GFSGBSN_850_dewp_000.txt.gz
Dewpoint
7 5 6 4 5 -1 -4 -4 -3 -1 -1 -0 -2 -0 1 -1 1 1 0 0 1 2 2 2 2 3 5 5 4 3 6 6 3 1 8 10 8 7 7 6 6 6 5 5 5 5 5
7 5 6 5 4 3 -1 -3 -4 0 -1 -0 0 1 0 -1 -1 -1 -1 -1 -0 2 2 0 1 3 5 5 2 1 4 5 7 6 6 9 8 7 6 6 6 6 6 5 5 5 3
7 6 4 4 3 4 -1 -4 -4 -1 1 -0 2 4 3 2 1 -1 -1 -1 -2 1 2 1 2 3 5 3 1 0 1 1 5 7 5 8 8 6 6 6 6 6 6 4 3 2 2
7 7 5 3 0 4 0 -4 -5 -4 2 3 1 3 4 4 4 3 1 1 0 -2 0 2 2 2 4 3 -0 1 3 1 3 6 4 8 8 7 6 5 4 4 3 6 3 1 0
6 6 6 3 3 1 4 2 -5 -5 -2 1 -0 1 2 4 5 5 3 2 2 1 -1 2 3 3 3 2 1 0 3 4 5 6 6 9 8 8 6 6 5 3 6 4 3 -1 0
6 6 6 6 2 2 2 3 -4 -4 -3 -2 2 0 2 4 5 5 4 3 3 2 2 2 3 3 2 4 2 0 -1 6 7 6 8 10 9 8 8 8 11 7 5 4 4 1 -0
5 6 6 6 3 3 -3 0 -4 -4 -3 -2 -1 2 4 5 4 5 5 5 3 2 2 3 2 2 3 2 3 1 -1 4 7 5 9 10 10 11 9 8 6 5 4 5 2 -1 -1
6 6 6 6 6 -0 -3 -5 -5 -4 -4 -3 -2 2 4 5 5 6 5 4 0 0 3 1 4 4 1 4 5 2 1 5 6 4 7 10 10 8 7 7 7 3 4 3 2 0 -1
6 6 6 6 6 5 -1 -4 -5 -5 -4 -3 -2 1 5 5 6 6 6 3 1 2 3 4 2 4 4 2 4 4 2 5 6 2 7 9 9 7 8 6 7 4 5 5 5 1 0
6 6 6 6 6 6 5 -1 -4 -4 -4 -2 -1 -1 5 6 5 5 5 5 3 2 4 4 3 2 3 4 4 3 2 4 5 3 7 9 8 9 8 9 7 10 3 2 2 3 4
5 5 5 5 5 6 6 5 -1 -3 -3 -2 -0 0 4 5 4 5 5 4 3 4 5 2 3 1 1 4 4 5 -2 3 7 5 7 9 9 10 9 8 7 8 2 3 2 2 1
5 5 5 5 5 6 6 6 2 -1 -3 -3 -1 -0 3 5 4 5 5 4 4 5 5 4 4 3 4 3 4 5 5 5 5 5 6 6 6 8 9 7 5 3 2 1 1 1 5
5 5 5 5 5 5 5 6 6 4 -1 -0 -0 0 1 3 5 4 5 5 5 6 4 5 4 3 4 5 5 5 5 7 7 8 8 5 8 4 5 4 1 2 3 8 6 6 6
5 5 5 5 5 5 6 6 6 7 1 1 1 -0 1 3 6 3 4 4 7 6 4 3 4 3 5 4 6 5 7 9 7 4 7 8 10 3 -1 6 6 4 3 5 7 7 5
5 5 5 6 6 5 6 6 6 7 5 2 -0 -1 4 3 6 4 3 6 7 6 5 6 4 4 6 4 7 8 7 8 7 3 6 8 8 -2 -3 -2 4 2 3 1 4 3 6
5 5 5 6 6 5 6 6 6 7 6 0 1 3 5 5 6 4 4 6 7 5 5 4 5 5 8 6 8 7 8 7 7 4 1 3 2 0 -3 -4 -5 -0 -1 3 3 7 7
5 5 5 6 6 6 6 6 6 7 3 0 6 5 7 7 6 6 6 5 7 4 4 5 6 6 6 6 7 7 7 6 4 2 1 -0 1 3 -2 -0 -0 -2 -0 0 2 3 5
5 5 5 6 6 6 6 6 6 7 3 1 5 5 6 6 7 7 7 8 5 6 7 7 5 5 6 5 7 7 8 6 3 4 5 2 2 3 2 0 -2 -3 -1 -0 4 3 1
5 5 5 5 6 6 6 6 6 6 4 -1 4 7 6 6 9 8 8 7 6 7 8 8 5 4 2 4 7 7 8 5 5 5 5 3 4 7 6 4 2 1 -1 -2 -0 0 2
5 5 5 5 6 6 6 6 6 6 6 -2 5 6 6 6 7 6 8 8 9 8 8 6 5 4 4 6 5 7 7 4 4 4 4 2 4 4 6 4 3 4 1 -1 0 3 2
5 5 5 5 5 6 6 6 6 6 6 -1 4 3 4 6 6 4 5 8 9 8 7 5 6 4 5 6 6 7 5 4 2 3 2 2 4 2 -0 2 3 2 3 1 1 1 3
5 4 5 5 5 5 6 6 6 6 5 -0 3 2 3 2 1 2 3 6 5 4 5 6 7 5 4 5 5 7 5 4 4 2 1 1 2 -1 -2 -2 -3 0 1 1 1 0 -1
5 4 5 5 5 5 6 6 5 6 4 2 2 2 2 1 0 1 3 4 3 2 2 3 4 4 2 1 -0 2 1 1 2 2 1 -1 -1 -0 1 -1 -1 -2 -2 2 1 -1 0
6 6 4 5 5 5 6 6 6 6 5 0 1 3 1 1 0 0 0 1 2 0 2 -0 -0 2 -1 -1 -1 -2 -1 -0 -0 -1 -3 -2 -2 -2 -1 0 -1 -3 -0 -4 -1 -1 -1
5 6 5 5 5 5 5 6 6 6 5 -0 1 3 -1 0 -0 -1 -0 -0 -2 -2 -1 -1 -2 0 -2 -3 1 5 2 -1 1 -0 -1 -2 -1 2 2 1 -0 2 -0 2 2 3 1
5 6 6 5 5 5 5 6 6 6 6 -0 3 3 0 -0 -0 -1 -1 -2 -1 -2 -2 -3 -2 -2 -3 1 1 6 7 4 1 1 -2 -1 -1 0 2 4 4 1 -0 -1 -0 4 1
5 6 6 5 5 5 5 5 6 6 6 4 3 5 3 0 1 -2 -2 -1 -2 -2 -1 -3 -3 -3 -1 2 4 4 3 1 2 2 1 1 1 2 4 4 3 -0 -0 -1 3 2 1
6 6 6 5 5 5 5 5 5 6 6 6 5 6 6 1 3 2 0 -1 -0 -1 -1 -3 -1 -1 0 3 4 3 3 2 3 1 0 0 2 3 3 4 5 -0 1 2 1 0 -1
6 6 6 5 5 4 5 5 6 6 6 7 6 6 5 2 3 2 2 2 2 2 -1 -2 1 -0 -0 2 2 2 3 1 2 4 1 2 1 2 2 3 1 0 0 -0 -1 -1 -0

GFSGBSN_850_dewp_003.txt.gz
Dewpoint
7 7 6 5 5 5 4 -0 -4 -4 -4 -1 -0 -0 -2 -0 -1 2 1 -0 0 1 2 1 1 3 6 6 5 5 5 4 4 7 5 8 10 9 9 7 6 5 5 5 4 5 5
7 7 7 5 5 4 5 4 -3 -5 -5 -2 -1 1 1 1 0 1 -1 -0 -0 -0 1 2 1 3 5 5 3 3 3 4 5 7 6 6 9 8 8 7 7 6 5 5 5 5 5
7 7 7 6 4 2 5 4 -2 -5 -6 -2 -1 2 3 3 4 3 -0 -1 -1 -1 1 2 2 2 4 4 1 0 1 2 3 6 7 6 9 7 7 7 6 6 7 6 5 5 4
6 6 7 6 5 5 2 4 3 -5 -6 -3 1 3 3 3 4 4 4 2 2 -1 -0 2 3 3 4 4 2 1 1 1 2 2 5 6 9 8 6 6 5 7 5 9 6 1 1
6 6 6 6 6 4 4 1 5 1 -5 -5 -3 0 -1 -1 1 4 5 4 2 3 2 1 3 3 4 2 0 -1 1 4 3 2 4 5 9 9 7 6 6 5 10 7 7 2 3
6 6 6 6 6 6 3 0 3 0 -5 -4 -2 2 2 2 3 3 5 5 3 4 4 2 3 3 3 4 2 2 0 2 6 6 8 7 10 9 8 9 12 7 8 5 5 2 1
6 6 6 6 6 6 3 1 -1 -1 -6 -4 -3 1 1 3 4 5 5 6 4 4 3 2 2 1 3 2 3 2 1 1 5 7 6 7 10 11 9 8 6 4 5 5 5 1 0
5 6 6 6 6 6 6 1 -3 -6 -6 -5 -4 -3 1 1 5 5 5 5 4 2 3 1 2 3 2 3 5 3 1 2 5 6 5 8 10 8 7 7 6 5 5 5 3 1 0
5 5 5 5 5 5 6 6 1 -5 -6 -5 -4 -2 1 1 5 5 5 5 4 2 2 3 1 4 3 2 4 3 3 2 5 3 5 7 8 7 8 9 9 6 6 5 6 3 1
5 5 5 5 5 5 5 5 5 -0 -4 -4 -4 -2 2 3 4 6 5 6 3 3 4 4 3 1 3 2 3 2 3 3 5 3 3 8 7 8 8 8 8 10 3 4 4 5 7
5 5 5 6 5 5 5 5 6 6 -0 -3 -3 -2 1 3 4 4 5 5 3 2 5 3 3 2 2 2 2 4 2 2 5 3 4 9 9 8 9 8 7 8 5 6 4 4 1
4 4 5 5 5 5 6 6 6 7 6 0 -2 -3 1 2 4 4 4 5 3 4 5 5 3 4 4 3 2 4 3 3 4 3 2 8 7 8 8 6 7 1 4 4 2 1 5
4 4 4 5 5 5 5 6 6 7 6 6 1 1 3 3 5 4 5 3 5 5 3 5 5 4 3 4 3 4 4 5 7 6 6 8 9 8 9 6 3 3 8 11 10 7 6
4 4 5 5 5 5 5 6 6 6 6 6 4 3 4 4 4 5 3 4 6 5 3 3 3 3 4 3 5 4 4 5 6 5 5 9 11 6 7 8 7 7 8 8 9 7 5
5 5 5 5 5 5 6 6 6 6 6 7 5 2 4 4 4 4 3 5 5 5 2 4 3 3 3 3 5 5 5 4 5 6 4 7 8 2 3 2 5 6 8 2 4 3 6
5 5 6 5 5 5 6 6 7 5 6 6 3 5 5 6 5 4 3 6 5 4 3 1 3 2 3 4 6 5 6 3 6 5 3 5 5 2 -3 -0 -3 4 1 7 3 7 8
4 5 6 5 5 5 5 5 6 5 6 5 4 5 6 5 5 4 5 5 5 6 1 2 4 6 3 5 5 6 5 7 6 5 2 0 2 3 -2 0 1 2 6 2 2 4 6
4 5 6 5 5 5 5 5 5 5 6 3 4 5 6 6 5 5 6 5 5 4 4 4 4 5 6 4 4 6 7 6 6 5 3 -0 2 3 1 1 -1 -2 1 2 4 4 2
5 5 5 5 5 5 5 5 5 6 6 3 4 6 6 6 7 7 6 6 7 6 6 6 5 4 4 5 8 7 7 4 5 5 4 2 4 6 5 3 2 1 -2 -1 -0 0 2
5 5 5 5 5 5 5 5 6 6 6 4 5 7 6 6 6 7 8 8 8 7 7 7 4 3 4 5 5 7 7 5 5 4 3 1 3 5 6 5 3 4 1 -1 0 3 2
5 5 5 5 4 5 5 5 5 6 6 4 4 4 6 6 7 6 7 7 8 8 8 7 6 3 4 7 7 7 7 4 4 5 3 2 4 2 0 2 2 2 2 -0 1 1 2
4 5 5 5 4 5 5 4 5 6 6 5 4 2 3 3 1 6 6 8 7 7 7 7 6 3 4 6 6 7 5 5 5 2 3 1 3 -1 -1 -0 1 3 2 1 -0 -0 0
2 6 5 5 4 5 5 5 5 5 5 3 2 2 2 1 0 2 4 6 7 5 6 2 4 3 4 3 2 3 3 3 3 1 1 2 -0 1 3 -1 -2 0 -1 2 1 -0 -0
1 5 6 6 4 5 5 4 5 5 5 5 2 2 1 2 1 1 1 4 5 3 5 -0 1 1 -1 0 -0 -0 -1 -1 1 -1 -2 2 2 0 0 -1 1 -1 -1 -1 1 -2 -3
2 4 5 6 5 4 5 4 5 5 5 6 1 3 1 -0 -0 -1 0 1 0 0 -1 -1 -1 -0 -1 -2 4 5 4 1 1 -1 -1 -2 -0 2 2 1 -1 2 -0 0 0 1 1
2 3 6 6 5 5 5 4 5 5 5 6 0 2 2 -1 -1 -2 -1 -2 0 1 -2 -2 0 -2 -0 1 3 7 9 4 2 1 -2 -1 -1 1 3 3 1 -1 -1 -1 -0 3 1
1 2 6 6 6 5 5 4 5 5 5 6 2 3 4 -1 -0 -2 -2 -1 -2 -2 -1 -3 -2 -1 0 2 3 4 3 0 3 2 1 1 1 2 4 3 2 -0 -1 -1 3 1 1
0 2 6 6 6 5 5 4 4 5 5 6 5 4 5 1 2 1 -1 -2 -1 -3 -1 -3 -1 -2 2 4 4 3 3 1 2 -0 -0 1 2 2 3 3 2 -1 0 2 0 0 -0
-0 1 4 6 5 5 5 4 4 5 5 6 6 5 6 1 3 2 1 1 1 1 -3 -2 -0 -1 -1 2 2 2 3 1 2 4 0 1 -1 1 1 2 0 0 0 -0 0 -1 -1

GFSGBSN_850_dewp_006.txt.gz
Dewpoint
6 6 6 6 5 6 5 5 4 -2 -5 -4 -0 -1 -3 -3 -1 -2 -2 -1 -1 2 3 3 1 3 5 6 5 5 5 4 3 7 8 5 8 8 9 8 6 6 4 4 4 4 4
6 6 6 6 6 6 3 5 5 3 -4 -5 -1 -0 1 2 2 2 -1 -2 -0 -1 1 1 1 2 5 5 4 3 3 3 3 7 8 5 8 7 5 6 7 5 5 4 4 4 5
5 6 6 6 6 6 5 3 5 3 -4 -6 -2 -1 1 3 3 3 2 1 -2 -1 -0 2 3 3 5 4 2 0 1 2 1 4 6 6 6 9 6 7 7 6 6 5 5 5 5
6 6 6 6 6 6 6 4 2 4 3 -6 -5 3 1 2 3 3 3 3 2 -1 -1 3 4 3 3 3 1 2 1 2 3 3 5 6 6 9 10 6 7 8 7 8 4 5 5
5 6 6 6 6 6 6 5 4 2 5 -1 -5 1 0 2 1 1 2 4 5 1 2 2 3 4 3 2 2 1 2 2 4 3 3 6 7 9 9 8 9 8 9 7 5 4 4
5 5 6 6 6 6 6 6 3 -1 3 -1 -5 -2 3 2 2 3 4 3 5 4 4 4 2 3 2 3 3 3 2 1 3 5 5 6 6 9 10 9 11 9 8 6 6 4 2
4 5 5 5 6 5 6 6 3 -2 1 -2 -5 -2 -0 1 2 3 5 4 5 4 4 3 2 1 2 2 3 3 2 2 3 5 6 4 7 9 8 9 6 4 6 7 4 2 3
4 5 5 5 5 5 5 5 5 1 -5 -7 -6 -4 -2 1 2 2 5 5 4 3 4 3 3 2 3 3 3 3 3 2 3 5 6 5 8 6 8 7 7 5 6 6 3 2 2
5 4 5 5 5 5 5 5 5 5 -0 -6 -5 -4 -3 2 1 2 5 5 5 4 3 3 3 3 2 3 3 3 3 1 2 4 6 6 6 6 9 8 8 6 6 5 5 4 3
5 5 5 4 5 5 5 5 5 5 5 -2 -4 -4 1 3 3 5 5 5 5 4 4 3 4 3 3 3 2 1 3 1 3 4 6 3 4 8 8 8 7 7 5 5 6 8 9
4 4 4 5 5 6 5 5 5 6 6 4 -0 -3 2 2 5 5 4 5 4 4 6 2 3 2 2 1 0 2 3 1 3 5 4 5 7 8 10 8 6 6 5 6 7 8 7
4 4 4 4 5 6 6 5 6 6 7 7 6 1 -2 1 3 5 5 4 3 4 5 5 3 3 3 2 0 3 3 1 3 4 3 2 7 7 6 6 6 4 5 5 4 6 9
5 4 4 4 4 5 6 6 6 6 6 7 7 6 2 2 4 4 5 3 5 6 3 5 5 4 2 2 0 2 4 3 6 8 7 4 5 9 6 9 5 6 8 12 12 10 9
6 5 4 4 4 6 6 5 5 6 6 6 6 6 5 4 3 5 4 4 6 4 5 3 4 4 4 1 1 3 3 2 3 6 4 7 10 10 7 7 8 7 7 7 9 9 6
5 5 5 5 5 6 5 5 6 6 6 6 6 6 5 4 4 4 3 5 5 6 3 5 3 5 2 1 1 4 2 1 4 4 5 7 8 7 7 5 5 8 9 3 4 4 5
3 5 4 5 5 5 5 5 6 6 6 6 6 4 4 4 4 4 3 6 5 4 3 1 1 1 2 1 6 5 1 -2 2 3 4 4 9 6 5 6 4 7 5 8 5 7 7
2 5 5 5 5 6 5 5 5 6 6 6 6 4 5 5 4 3 5 5 5 4 3 -1 -1 0 -0 1 5 3 1 1 0 2 3 4 5 5 5 7 8 7 9 7 4 3 5
1 3 5 5 6 6 5 5 5 6 6 6 4 6 6 5 4 4 5 4 5 6 4 -3 -2 -2 -2 0 3 5 2 4 -2 3 5 4 2 8 5 1 2 4 5 5 7 5 3
0 2 5 6 6 5 5 5 5 6 6 5 4 6 6 5 6 5 5 5 5 6 3 -0 2 1 -1 1 4 4 3 -0 1 4 5 2 3 6 7 4 1 5 4 5 3 1 3
1 1 3 6 6 6 5 4 5 6 6 5 4 7 6 5 6 7 7 6 7 5 3 4 3 3 2 2 0 3 4 4 5 3 4 1 3 2 5 4 3 5 3 4 5 6 4
2 1 2 6 6 6 5 5 5 5 6 6 2 5 5 6 6 6 6 7 6 8 6 7 5 4 1 4 5 5 4 6 4 5 5 4 4 3 2 2 2 3 4 2 3 3 4
1 1 2 5 6 6 5 4 5 5 5 6 3 4 4 5 5 6 7 7 6 8 6 7 8 4 3 4 5 7 6 6 6 5 5 3 5 1 2 2 2 2 2 3 3 3 2
-0 1 1 4 6 6 5 5 4 5 5 5 4 1 3 2 2 6 6 7 7 6 7 6 6 4 4 4 3 4 4 4 4 5 6 4 3 3 4 0 1 4 2 2 1 0 0
-1 1 1 2 6 6 5 5 4 5 5 5 2 3 3 2 2 2 4 6 7 6 7 3 2 4 2 1 2 3 3 2 2 1 3 4 3 2 4 0 6 1 -1 -0 1 -0 -1
-0 0 1 2 5 6 5 5 4 4 5 5 6 2 3 2 -0 -0 4 5 3 2 2 0 -0 0 1 -0 3 5 4 6 2 -0 0 2 6 7 4 7 1 -1 -0 -1 1 2 -1
-1 -0 0 1 5 5 5 5 4 5 5 5 5 4 3 0 -0 -1 -0 4 6 4 0 -1 -0 -2 -1 1 6 8 10 8 7 4 -1 2 6 8 5 4 4 -0 -1 -2 -2 -1 -2
-2 -1 -0 1 3 5 5 5 4 4 5 5 6 4 3 1 0 -2 -1 3 4 3 1 -1 -0 1 5 4 6 7 7 2 6 6 7 4 3 8 5 7 1 -1 -1 -0 1 1 0
-2 -1 -0 1 2 5 5 5 4 4 5 5 5 4 3 2 1 -0 -1 -2 1 2 3 -1 3 2 5 7 5 4 5 1 1 1 3 5 3 3 5 8 8 -0 -0 1 1 1 0
-2 -1 -0 1 2 5 5 5 4 4 5 5 5 5 4 6 3 2 1 -0 0 -2 2 0 3 1 4 5 3 3 3 2 1 2 -0 2 1 2 1 2 1 0 1 -0 1 0 -0

GFSGBSN_850_dewp_009.txt.gz
Dewpoint
6 6 6 6 6 6 6 6 4 5 2 -5 -5 0 -0 -3 -1 0 -1 -2 -1 -3 1 4 3 1 4 6 5 4 5 4 5 8 8 6 3 5 8 6 6 6 4 3 3 2 3
6 6 6 6 6 6 6 5 3 5 5 -1 -5 -2 0 1 2 2 2 -0 -1 -1 -2 2 1 1 5 4 3 4 5 5 4 6 8 7 4 3 4 5 5 5 4 4 3 3 3
6 6 5 6 6 6 6 6 4 3 5 1 -6 -5 -1 0 3 4 3 3 0 -3 -1 -1 3 4 5 3 2 3 3 3 3 3 5 6 5 4 4 6 3 5 6 4 4 3 3
5 6 5 5 5 6 6 6 6 4 1 4 1 -6 0 3 3 3 3 4 3 0 -3 -1 2 5 6 3 3 3 3 2 2 2 2 4 5 4 6 8 7 5 7 9 4 3 3
4 5 5 6 6 5 6 6 6 5 3 2 4 -3 -4 3 2 3 1 1 4 4 1 1 3 5 3 3 3 2 2 1 1 3 2 3 5 5 6 9 10 8 10 8 6 3 3
4 4 5 5 6 5 5 5 6 6 3 1 4 -1 -5 1 2 2 2 4 4 5 3 4 4 4 2 2 2 2 2 2 1 2 2 2 5 6 7 8 11 9 9 6 7 3 4
4 3 5 5 5 5 5 5 5 6 5 -1 2 -0 -5 -1 2 4 4 4 4 5 4 4 3 1 1 1 3 3 2 2 2 1 3 3 6 7 6 6 7 6 8 6 5 2 4
5 3 4 4 5 5 5 5 5 5 6 1 -1 -4 -5 -1 1 3 4 4 4 4 5 4 3 3 2 3 2 3 2 2 1 3 1 4 7 3 2 5 7 7 7 6 4 3 3
6 3 4 4 5 5 5 5 5 5 5 5 -3 -5 -5 -1 1 3 5 2 5 5 4 3 4 3 2 3 2 1 2 1 -0 2 2 5 5 2 2 5 9 8 9 6 6 4 3
6 4 4 4 5 5 5 5 5 4 5 6 2 -4 -4 -0 2 2 4 4 5 5 4 4 4 4 3 3 3 2 2 1 0 1 1 3 2 5 3 6 8 9 7 4 5 6 7
6 6 5 5 5 5 5 6 6 5 5 6 6 0 -3 0 4 5 5 5 5 4 7 2 4 3 4 3 0 -0 0 2 2 1 4 4 4 6 5 7 7 9 6 5 6 7 9
3 5 6 5 4 4 5 6 6 5 6 6 7 6 0 2 2 4 3 5 4 4 6 5 3 4 3 4 1 0 -0 1 0 1 5 2 3 5 4 6 8 7 7 7 7 7 9
2 2 4 5 5 4 5 5 6 6 6 6 7 7 6 3 3 4 4 3 4 6 3 5 5 4 4 5 3 1 2 3 5 6 6 5 5 5 6 8 8 8 9 12 10 10 7
-0 1 2 5 5 4 4 5 6 5 5 6 7 7 6 4 4 4 4 3 6 3 4 4 4 4 5 3 2 1 2 3 2 4 6 8 8 6 4 9 9 9 9 7 9 8 6
-0 1 1 3 6 5 4 6 6 5 6 6 6 6 5 5 4 4 3 5 6 5 4 5 5 6 6 4 -2 -1 2 3 1 3 7 6 8 5 6 7 7 9 10 3 5 3 5
-1 1 1 2 5 5 5 6 5 5 6 6 6 6 5 5 4 4 4 5 6 4 4 4 3 2 3 3 0 1 3 2 0 0 3 6 8 6 8 7 7 8 4 7 4 7 6
1 1 1 2 4 5 6 6 5 5 6 6 6 5 5 4 4 4 4 5 5 4 3 4 0 -1 -1 -1 -0 2 2 -2 -2 -1 3 6 6 7 7 9 9 10 8 7 4 4 5
0 1 1 1 3 6 6 6 5 5 6 6 5 5 6 4 4 3 4 4 3 4 4 3 -3 -3 -3 -3 0 2 1 -2 -4 -1 6 6 7 8 7 2 5 7 7 5 6 6 3
-0 1 2 1 2 6 6 6 4 5 6 6 4 5 5 4 6 5 3 4 4 4 5 2 -1 -3 -5 -2 0 2 1 -3 -1 -2 6 4 6 10 9 5 6 8 5 6 5 3 4
-1 0 2 1 2 5 6 5 4 5 6 6 3 7 5 5 4 6 5 6 6 4 4 0 -1 -3 -2 -1 -2 1 2 -0 1 -2 3 3 4 5 6 5 6 8 7 5 4 5 4
-1 0 1 1 2 4 6 5 4 5 6 6 3 5 4 5 5 5 6 6 6 7 5 1 4 0 0 -1 -0 2 1 2 1 0 2 4 5 2 1 1 3 4 6 6 6 5 5
-1 -0 -0 1 1 3 4 5 4 5 5 6 3 1 5 6 4 5 6 6 6 6 5 6 7 3 0 0 -2 -0 2 3 4 4 2 3 6 2 3 2 2 3 3 4 4 4 4
-1 -0 0 1 2 2 4 5 4 5 5 5 5 4 3 3 4 5 6 6 6 5 6 4 6 5 3 -0 -1 2 0 2 3 3 6 5 6 4 4 2 3 5 2 2 3 2 2
-2 -1 -0 -0 1 2 5 5 5 5 5 5 5 4 2 1 0 1 3 6 7 6 6 6 7 7 3 2 2 3 3 2 3 4 3 5 5 4 6 2 7 1 -1 0 1 1 1
-2 -1 -1 -0 0 1 3 5 5 5 4 5 5 3 3 2 -1 -0 1 6 4 5 6 4 5 5 2 2 5 7 7 6 3 1 4 4 6 7 7 8 5 3 -1 0 2 2 -0
-2 -1 -1 -0 -0 1 3 5 5 5 5 5 5 5 4 3 -0 -1 3 6 5 5 3 2 0 0 0 3 6 9 10 8 7 5 3 5 5 8 7 5 7 0 -1 -3 -1 3 -2
-2 -1 -1 -1 -0 1 3 5 5 4 5 5 5 5 4 2 1 -0 0 5 6 3 3 0 1 2 4 6 7 8 7 6 8 8 7 8 8 9 9 9 5 -1 -2 -2 1 3 -1
-2 -2 -1 -1 -0 0 2 5 4 4 4 5 5 5 5 3 3 1 1 1 5 4 3 1 4 4 7 7 7 6 5 4 5 6 6 7 7 8 8 9 9 -1 -0 1 2 0 -1
-2 -2 -2 -1 -0 0 2 5 5 4 4 5 5 5 4 4 5 3 2 -0 3 5 2 1 4 3 6 7 5 4 5 1 2 5 1 7 3 3 3 5 1 -0 1 1 1 1 0

GFSGBSN_850_dewp_012.txt.gz
Dewpoint
5 4 5 6 6 6 6 6 6 6 4 5 1 -5 -2 0 -2 -1 0 -0 -2 -1 -1 2 4 2 1 5 4 5 3 3 5 6 8 7 6 4 6 6 6 7 6 4 3 3 3
3 3 5 6 6 6 6 6 6 5 4 5 5 -2 -5 -0 1 2 3 3 1 -0 0 1 3 3 3 4 2 3 5 3 4 5 7 8 7 4 3 4 6 6 6 6 5 3 3
4 1 1 6 5 6 6 6 6 6 5 4 4 2 -5 -2 0 3 3 3 3 2 0 0 1 2 5 3 2 2 3 4 4 3 3 6 6 7 3 3 4 4 6 6 6 4 3
6 4 0 3 5 5 6 6 6 6 6 5 1 4 -1 -4 1 3 3 2 3 4 2 1 0 4 5 4 2 2 2 3 2 2 2 3 4 5 6 4 6 7 6 9 6 4 3
7 6 3 1 5 5 6 5 6 6 5 6 4 2 5 -3 2 3 3 1 3 3 5 2 1 4 3 3 3 2 3 2 1 1 2 2 2 4 5 6 8 8 9 9 8 5 4
8 6 5 4 4 4 5 5 6 6 6 6 4 2 5 -1 1 3 2 2 3 4 4 4 4 4 2 2 3 3 2 2 2 1 1 2 2 5 6 7 9 8 10 7 8 6 5
6 7 6 5 3 5 5 5 5 6 5 6 5 -0 3 -1 1 3 4 4 3 4 5 3 3 1 1 2 2 2 2 2 2 2 3 2 5 6 6 5 5 6 6 8 5 5 5
5 6 7 6 3 5 4 5 5 5 5 5 5 1 3 -1 1 2 3 4 4 4 5 5 4 3 1 3 2 2 2 2 2 3 1 4 5 3 2 3 5 5 8 9 6 5 5
1 5 6 6 5 4 4 5 5 5 5 5 5 4 -3 -2 1 2 3 3 4 3 4 5 4 4 3 3 2 1 2 2 2 3 2 4 3 2 2 3 5 5 7 9 9 6 6
2 1 5 5 6 5 4 5 5 5 5 5 5 5 -3 -1 1 1 4 4 4 5 5 4 4 5 4 4 3 2 2 2 1 2 1 3 1 1 3 3 3 5 4 7 9 10 10
0 2 -1 3 5 5 5 5 5 5 6 5 6 6 -2 -2 4 4 4 5 4 5 6 3 4 4 4 4 3 2 3 3 3 1 1 4 3 2 3 5 2 5 5 6 8 10 10
-0 1 0 -1 3 5 5 5 5 5 6 6 6 7 2 1 3 4 4 3 4 5 6 5 4 4 4 4 4 3 2 3 2 2 1 3 1 2 2 2 3 3 5 8 9 10 12
0 0 1 0 2 2 5 5 5 5 6 6 6 6 6 4 3 3 3 4 4 6 2 6 5 4 3 5 4 4 3 3 4 5 4 5 4 2 3 6 3 5 8 11 12 12 12
-1 0 1 1 2 2 4 5 5 5 6 6 6 6 6 4 4 4 3 3 5 2 4 4 4 4 6 4 5 4 5 3 1 3 4 5 5 5 3 5 6 7 8 10 12 12 7
-1 0 1 1 0 1 3 5 5 5 6 6 6 7 7 4 4 5 3 4 4 3 5 5 5 6 5 5 5 5 4 4 1 1 6 7 6 4 4 2 6 7 8 7 10 3 6
-1 -0 1 1 2 0 2 5 5 5 6 6 6 6 6 6 5 4 4 5 3 3 4 4 6 4 3 4 4 3 3 0 1 0 1 5 7 6 6 6 7 8 7 10 9 7 9
-0 -0 0 1 2 1 2 5 6 6 6 6 6 6 5 6 4 4 5 4 2 3 4 5 4 2 1 2 1 0 -1 -1 0 1 3 4 5 7 5 9 8 9 10 9 8 7 7
-0 -1 -0 1 1 1 2 4 6 6 6 6 6 5 5 5 5 4 5 3 3 4 4 4 4 4 -2 -1 0 1 1 2 -1 0 4 4 6 8 7 5 7 8 9 7 7 8 6
-1 -1 -0 1 1 1 2 4 6 6 6 6 5 5 5 5 5 5 3 4 4 4 5 5 4 -0 -4 -3 -1 -2 1 -1 1 3 4 4 6 9 8 8 9 10 9 6 6 5 7
-2 -1 -1 1 1 1 1 4 6 5 5 5 4 6 5 4 4 4 4 5 5 4 4 4 2 -2 -3 -3 -3 2 0 1 -1 1 3 7 7 7 10 8 8 9 8 6 7 7 5
-2 -2 -1 0 1 1 2 3 6 6 5 6 4 5 4 5 4 5 5 5 6 5 5 4 1 -0 -2 -1 -1 -1 1 1 1 -2 3 5 9 8 6 7 7 7 7 7 7 6 5
-3 -2 -1 -0 0 0 1 3 4 5 6 6 4 3 4 5 3 4 5 5 6 5 6 5 4 4 3 0 -1 -0 -0 1 2 2 1 2 7 6 4 3 5 7 6 6 5 4 4
-3 -2 -1 -0 0 0 1 2 5 5 5 5 5 4 3 4 6 6 6 6 6 5 5 5 4 2 5 0 -2 -4 -3 -1 1 4 5 4 6 6 5 3 3 5 4 5 5 4 5
-4 -2 -1 -1 -0 -0 1 2 4 5 5 5 5 4 4 5 1 4 4 4 6 6 6 6 5 4 5 2 2 4 4 2 2 2 3 5 6 6 5 3 7 2 -1 0 2 2 2
-3 -3 -1 -1 -1 -0 0 1 3 5 5 5 5 5 5 5 2 1 -1 4 5 5 6 6 6 5 5 3 6 7 7 7 5 2 4 3 6 8 7 7 5 4 -1 0 2 2 0
-4 -2 -1 -1 -1 -1 -0 1 4 5 5 5 5 5 4 4 2 0 0 5 6 5 4 4 4 5 6 3 7 8 8 8 8 6 4 6 6 9 7 7 8 1 -1 -2 -1 4 -0
-4 -2 -1 -1 -1 -1 -0 1 3 5 5 5 5 5 5 4 3 1 1 3 6 4 5 3 2 4 5 7 7 8 9 7 9 8 8 8 8 9 8 8 6 -0 -2 -2 3 3 -0
-4 -2 -2 -1 -1 -1 -0 1 2 5 5 4 4 5 5 4 3 3 2 1 6 5 4 3 4 5 7 7 8 7 6 6 7 6 7 7 9 9 8 9 9 -1 -0 2 2 -0 -1
-4 -3 -2 -1 -1 -1 -0 1 3 5 4 4 4 5 5 5 5 5 4 2 0 6 4 2 5 4 6 7 7 5 5 2 5 8 5 7 6 7 7 6 1 -0 1 0 1 -0 0

GFSGBSN_850_dewp_015.txt.gz
Dewpoint
6 5 2 -3 4 6 6 6 6 6 6 4 4 4 -2 -4 1 -2 0 1 0 -1 -1 -2 2 3 2 4 5 4 3 4 4 5 7 7 8 7 5 6 6 7 7 7 6 6 5
7 7 6 3 -2 5 5 6 6 6 6 6 4 5 3 -4 -0 1 2 3 3 1 -1 -1 -0 4 3 5 -1 0 2 3 4 5 6 7 7 7 6 4 4 5 5 6 6 6 5
8 8 7 5 4 -1 4 5 6 6 6 6 5 4 3 -2 -4 0 3 4 4 3 1 -1 -1 1 4 3 2 2 3 3 3 4 3 6 5 7 7 5 4 5 7 5 6 6 6
6 7 8 7 5 3 3 4 6 5 5 5 6 5 2 2 -5 -0 2 3 3 3 4 1 0 0 3 1 0 2 2 4 3 4 3 3 3 3 6 6 5 7 7 9 5 5 6
4 5 6 7 7 5 2 4 5 6 5 5 5 5 3 4 -2 2 3 4 2 3 2 5 2 1 2 1 2 2 3 3 2 2 1 1 2 2 5 7 7 7 8 8 7 5 5
3 3 5 6 7 7 4 3 4 5 5 5 5 5 3 4 3 -0 4 3 3 3 4 4 3 4 2 1 2 2 2 3 2 1 1 2 2 4 6 7 7 6 7 7 8 6 6
2 2 3 4 5 7 6 2 4 5 5 5 6 6 3 4 4 -1 3 4 4 4 4 4 4 1 1 1 2 2 2 3 2 2 3 2 4 5 5 5 5 4 6 7 7 5 6
1 2 2 3 5 6 7 5 4 5 5 5 5 5 4 3 2 -0 3 4 4 4 5 4 4 4 2 2 3 2 2 2 2 4 2 3 5 3 2 3 5 6 7 7 5 5 6
1 2 2 2 2 4 6 6 4 4 5 5 5 6 5 2 -0 1 3 4 3 4 4 4 3 4 4 3 3 2 2 2 2 4 3 4 3 1 2 3 5 5 7 6 6 6 6
1 1 1 2 1 2 4 4 5 5 5 5 5 6 5 0 -0 0 2 0 3 4 5 4 4 5 4 4 4 3 2 2 2 4 3 3 1 1 3 4 3 5 3 4 5 6 10
0 0 1 1 2 1 1 4 5 5 5 5 6 6 5 -4 -1 0 1 2 3 5 5 2 4 3 4 4 3 3 2 3 4 3 3 3 3 3 3 3 2 4 2 3 4 6 8
-0 0 -0 1 1 -0 2 2 4 5 6 5 6 6 6 -0 4 3 4 4 4 4 4 5 3 4 4 4 3 4 3 3 4 5 3 2 2 2 2 0 1 3 4 5 6 7 10
-1 -0 1 1 0 1 1 2 4 5 6 6 6 6 6 -1 3 5 4 2 4 5 1 5 4 3 3 3 4 4 4 5 6 5 5 5 5 3 3 4 3 4 5 6 8 9 9
-2 -1 0 0 0 1 2 2 3 5 6 6 6 6 6 3 2 3 3 4 4 2 3 3 4 2 5 3 4 4 5 5 5 4 5 4 2 4 3 3 3 5 4 7 7 8 8
-2 -1 -0 -0 -1 1 1 2 2 5 6 6 6 6 6 4 4 3 2 4 2 2 4 5 5 5 6 4 3 5 4 5 2 3 3 4 5 3 2 2 2 4 6 3 8 9 10
-2 -1 -1 -0 -1 0 2 2 2 5 5 6 6 6 6 5 4 4 4 4 3 2 4 4 6 5 5 3 4 5 5 3 3 0 0 3 5 2 2 2 3 4 3 7 7 11 11
-3 -3 -2 -2 -0 1 1 1 1 5 5 6 6 6 5 5 4 4 4 4 2 2 3 5 6 6 5 4 4 4 2 1 2 1 -0 2 5 5 3 6 5 6 8 6 8 8 11
-3 -2 -2 -1 -1 1 1 2 1 4 5 6 6 6 5 4 5 4 5 3 2 3 4 4 4 5 5 1 3 1 2 -1 1 1 2 4 5 6 5 5 5 3 6 6 8 10 9
-3 -2 -2 -1 -1 1 1 1 3 4 6 6 5 5 5 4 5 5 4 3 3 4 4 5 5 4 2 1 4 1 2 0 2 3 4 4 6 6 7 7 7 6 7 6 6 9 9
-3 -3 -2 -1 -1 1 1 1 2 4 5 6 5 5 5 5 4 4 4 4 5 4 4 4 5 3 3 1 0 1 0 2 1 2 3 4 6 7 9 9 8 8 6 7 8 10 7
-3 -4 -2 -1 -1 0 0 1 1 3 5 5 5 5 4 5 4 5 4 4 5 5 4 4 5 5 2 -0 -2 1 0 1 2 2 4 4 7 6 6 6 7 8 8 7 8 8 7
-3 -4 -2 -2 -1 0 0 -0 1 3 6 5 4 5 4 4 3 4 5 6 5 5 5 6 6 2 2 2 -1 0 2 2 2 4 4 4 7 7 9 7 7 9 8 7 6 6 5
-3 -4 -3 -1 -1 -0 0 0 1 4 5 5 4 4 4 5 4 5 5 4 5 4 5 4 5 4 4 3 2 3 -1 -1 0 2 3 4 6 9 6 8 7 9 7 7 6 5 4
-3 -4 -3 -1 -1 -1 0 0 1 3 4 5 4 4 3 6 5 5 5 4 5 5 5 5 5 5 4 3 3 3 3 2 3 4 2 4 6 6 7 3 6 1 -0 4 5 4 4
-3 -4 -3 -1 -1 -1 -0 -0 1 3 4 5 5 4 4 6 4 4 3 1 5 5 6 6 6 4 4 5 6 8 7 7 5 3 4 3 6 8 7 7 4 2 -1 1 3 3 2
-3 -4 -4 -2 -1 -1 -0 -0 1 3 4 5 5 6 4 4 4 2 1 5 5 5 5 5 5 5 6 4 7 8 8 8 7 7 4 5 5 7 5 5 7 2 -1 -2 -1 4 0
-3 -4 -4 -2 -1 -1 -1 -0 1 4 5 5 5 5 4 4 4 4 1 2 5 5 5 4 4 5 6 6 8 8 8 6 8 7 8 8 7 6 7 8 6 2 -2 -2 3 2 0
-3 -3 -4 -2 -2 -1 -1 -0 1 3 5 5 5 5 5 4 4 4 3 2 4 5 5 4 5 6 6 7 8 8 7 7 7 6 7 8 8 9 8 9 7 -0 -2 -1 0 -0 1
-4 -4 -4 -3 -2 -1 -2 -0 1 2 5 5 5 5 4 5 4 5 4 4 3 2 4 4 5 5 6 7 6 6 5 4 6 8 5 8 6 7 7 6 2 0 1 1 0 1 1

GFSGBSN_850_dewp_021.txt.gz
Dewpoint
3 4 5 6 6 7 7 7 3 3 4 5 6 6 5 4 3 5 2 0 1 0 -1 -2 -2 -0 -1 2 4 3 3 3 6 8 8 8 7 7 6 5 5 6 6 6 6 7 8
3 3 3 4 5 5 6 7 7 3 4 4 6 6 5 5 4 2 4 0 2 2 1 -1 -1 2 3 3 -2 2 4 4 6 8 8 8 8 6 7 5 5 4 4 4 4 5 6
2 2 2 3 3 3 4 6 7 7 3 4 5 5 4 5 5 3 4 2 3 3 2 1 -1 0 4 1 1 -1 4 4 5 5 6 6 7 7 7 7 6 5 6 5 4 4 5
1 1 2 2 2 3 2 4 5 6 6 3 5 4 5 6 5 3 -2 1 4 4 4 3 1 1 0 -2 -1 2 0 1 2 4 4 4 6 7 7 5 5 6 6 8 4 4 5
-0 0 1 1 1 1 2 2 4 5 6 6 4 3 4 5 6 3 -1 0 4 3 2 3 4 2 1 0 -1 -1 2 2 3 3 5 4 3 2 3 6 7 7 7 6 6 4 5
-1 -1 -1 1 1 1 1 2 1 3 5 6 5 4 5 4 6 3 0 2 4 4 2 4 5 4 2 1 0 -0 0 2 2 3 3 2 2 4 5 7 6 6 7 6 6 5 5
-1 -2 -0 -2 1 1 1 1 1 1 4 6 6 4 5 4 5 4 -0 5 5 4 4 4 4 4 1 2 1 2 0 2 3 2 2 2 5 5 4 4 5 5 6 6 4 3 4
-2 -2 -1 -1 -1 0 1 1 2 1 2 4 6 5 6 5 6 5 1 4 3 3 4 3 4 4 3 2 3 2 2 3 3 4 2 3 5 2 1 2 3 5 6 6 4 3 4
-2 -2 -2 -1 -2 -0 0 1 1 1 1 1 4 5 5 6 6 5 4 1 4 3 3 2 3 4 4 3 4 3 3 3 3 4 4 4 2 1 2 3 4 4 5 4 5 3 3
-1 -1 -1 -2 -1 -1 -0 -0 1 1 0 1 2 5 6 6 6 5 5 2 2 3 0 1 4 4 4 4 4 3 2 2 3 4 4 4 2 1 2 3 3 4 3 3 4 5 5
-1 -1 -2 -2 -2 -1 -0 0 1 1 1 1 2 4 6 6 5 5 3 1 2 3 -1 1 4 4 5 4 3 4 3 2 3 4 3 4 4 3 3 3 2 3 2 4 5 5 5
-1 -1 -1 -2 -2 -2 -0 -1 -0 0 0 0 3 2 5 6 5 3 3 -1 3 1 1 3 3 4 4 4 4 3 3 3 4 4 3 2 2 2 2 1 1 2 3 3 4 5 6
-1 -2 -2 -2 -2 -1 -0 -0 -0 -1 -1 -2 2 2 5 5 4 1 -1 3 3 1 -0 4 3 3 2 4 4 4 4 5 5 6 5 5 5 3 3 3 1 3 5 6 6 6 4
-1 -1 -2 -2 -2 -1 -1 -1 -1 -0 1 -3 1 2 4 5 5 0 1 3 -0 -0 3 2 3 3 3 2 3 4 4 4 4 5 5 5 5 5 3 3 3 4 5 6 5 4 3
-1 -1 -2 -2 -1 -1 -1 -2 -0 1 1 1 2 1 3 5 4 1 3 4 1 -0 2 3 2 4 4 3 3 4 4 3 2 3 4 5 4 3 3 2 3 6 6 3 5 4 6
-2 -2 -2 -2 -2 -2 -1 -1 0 1 2 2 2 3 4 5 2 3 3 2 1 2 2 2 3 3 3 3 4 3 2 1 3 1 1 3 3 2 3 2 3 4 2 6 6 6 5
-2 -2 -2 -2 -2 -2 -1 -1 0 0 2 2 2 2 3 4 3 4 4 4 2 3 3 3 3 4 3 3 3 3 1 1 1 2 2 3 4 3 4 5 4 5 5 5 3 4 5
-2 -2 -2 -2 -3 -3 -1 -1 0 1 2 1 1 2 4 4 4 3 4 3 1 4 3 3 3 3 4 3 3 2 3 1 1 2 3 2 4 4 3 2 1 1 2 3 5 3 2
-2 -2 -2 -2 -3 -3 -1 -1 0 1 1 2 3 3 4 4 3 4 4 3 3 4 3 3 4 3 3 4 4 3 2 -0 1 1 3 2 5 5 6 3 3 5 3 1 2 4 3
-2 -3 -4 -2 -3 -3 -0 -1 -1 1 2 2 3 3 4 4 3 2 4 4 4 2 3 3 4 4 4 4 3 3 2 0 -1 0 1 2 5 5 5 6 4 5 4 3 3 5 3
-2 -3 -4 -3 -4 -2 -1 -1 -0 0 3 4 2 3 2 4 4 2 2 3 4 5 3 3 5 4 5 5 3 4 2 1 2 2 4 4 5 5 5 5 5 6 4 4 5 3 3
-2 -3 -3 -3 -3 -2 -1 -0 0 1 3 4 4 4 3 3 3 3 3 5 4 4 4 5 5 4 4 6 2 0 1 1 3 5 5 4 4 5 5 6 6 7 6 4 3 2 2
-3 -3 -3 -3 -3 -3 -1 -1 0 0 1 3 4 3 2 4 4 4 4 4 4 3 4 3 4 5 5 5 3 2 2 1 1 4 5 4 5 6 8 7 7 8 7 4 4 3 4
-3 -3 -3 -3 -3 -3 -1 -1 -0 1 2 3 4 4 4 4 4 4 4 3 4 4 5 4 4 5 4 4 4 4 3 4 2 3 3 6 6 7 8 8 9 7 6 3 3 4 4
-3 -3 -3 -3 -3 -3 -1 -2 -0 1 2 3 5 4 3 5 3 3 3 4 4 4 4 4 4 4 4 5 5 6 5 4 4 3 4 4 5 8 9 8 5 2 8 7 7 7 6
-3 -4 -3 -4 -4 -3 -2 -2 -0 1 2 4 5 4 3 4 4 3 3 4 5 4 5 4 5 4 5 5 6 6 7 5 5 6 3 4 4 7 7 7 7 2 -0 4 5 8 4
-3 -3 -4 -5 -3 -4 -2 -3 -1 0 1 3 5 4 3 3 3 3 2 2 4 3 3 4 4 5 5 6 7 7 6 5 6 5 7 6 7 8 6 7 5 2 0 1 6 2 -0
-3 -3 -4 -4 -4 -3 -3 -4 -1 -0 1 3 4 5 4 4 4 3 3 3 5 3 5 4 5 5 6 7 7 7 6 6 6 4 6 6 6 7 6 7 5 -0 -1 1 -1 1 1
-2 -3 -4 -5 -4 -4 -4 -3 -1 -1 1 3 4 4 4 4 4 4 3 3 3 3 3 4 4 5 6 6 6 6 7 5 5 6 4 7 4 5 5 4 1 0 0 1 0 1 1

GFSGBSN_850_dewp_024.txt.gz
Dewpoint
3 2 2 2 3 4 4 4 6 7 7 2 4 4 7 5 5 4 1 1 1 0 0 -1 -0 3 -0 4 5 4 3 4 5 7 9 9 7 6 5 5 5 6 6 6 6 5 6
2 2 2 2 3 3 3 3 4 5 6 7 5 4 5 7 5 5 3 3 0 2 2 0 -0 3 3 1 -2 -1 4 4 6 8 8 9 8 6 6 6 5 5 5 4 4 4 4
0 1 0 0 2 2 2 3 3 3 5 6 6 5 4 6 6 4 4 2 2 3 3 1 0 1 4 1 0 0 4 5 6 8 8 8 8 7 7 7 6 6 6 5 4 4 4
0 0 -0 0 1 1 1 2 2 2 3 5 6 5 4 4 6 5 4 2 2 3 4 3 3 3 1 -1 -2 1 2 4 5 6 4 4 6 7 7 6 5 6 6 7 3 4 4
0 -0 -0 -0 -0 -0 -1 1 1 1 1 3 4 6 5 5 5 6 5 1 1 4 4 2 4 3 2 1 -0 -2 2 1 3 2 4 4 3 3 4 5 6 6 7 6 4 3 4
-1 -2 -1 -1 -0 0 -0 -0 -0 -0 -1 1 2 5 5 4 5 5 5 0 2 5 3 3 5 4 3 2 0 -1 -1 2 3 3 4 4 3 4 4 6 6 5 6 5 5 4 4
-1 -2 -2 -1 -1 -2 -2 -1 -0 1 -0 1 0 3 6 5 6 6 5 3 5 4 4 2 3 3 2 2 1 1 1 1 2 2 3 2 5 6 5 4 4 5 6 6 5 3 4
-0 -0 -0 -1 -0 -1 -0 -0 0 -1 -1 1 -0 1 4 5 6 6 5 3 4 2 3 3 3 5 3 3 3 2 1 2 3 4 2 3 5 3 2 3 4 4 5 5 2 1 4
-0 -1 -0 -1 -1 -2 -1 -1 -0 -1 0 -0 0 0 3 5 6 6 5 1 3 3 2 2 2 4 4 4 4 3 3 2 3 4 3 4 2 1 2 3 3 3 4 3 3 2 2
-1 -1 -1 -0 -2 -1 -2 -1 -1 -2 -0 -1 1 0 2 5 6 6 5 3 3 2 -1 -0 4 4 4 3 3 3 2 2 3 4 3 4 2 2 2 3 2 4 2 3 4 4 4
-1 -1 -1 -1 -2 -1 -2 -1 -0 0 0 0 -1 0 0 3 4 6 4 3 2 -0 -1 1 4 4 4 2 3 4 3 2 3 4 4 4 4 4 4 2 2 3 1 3 4 5 5
-0 -1 -1 -2 -1 -2 -1 -0 -1 -1 -1 -0 -1 -2 -1 1 5 5 4 3 1 -2 1 4 3 4 5 4 3 3 4 3 4 3 3 2 2 2 2 1 1 2 3 3 4 5 6
-0 -1 -1 -2 -1 -2 -1 -1 -1 -1 -1 -1 1 -3 -2 1 4 5 3 2 2 1 -0 3 3 3 2 4 3 4 4 5 5 6 5 5 4 3 2 3 2 3 6 6 6 6 4
0 -0 -1 -2 -2 -1 -1 -2 -1 -1 -0 1 1 -4 -3 -1 3 5 1 0 1 -0 2 2 2 2 3 2 3 3 4 5 4 5 5 4 3 4 3 3 3 3 4 5 6 4 2
-1 -2 -1 -2 -2 -1 -2 -1 -0 0 1 1 1 0 2 -0 3 3 1 2 1 -0 2 3 3 4 4 3 3 3 4 4 1 3 5 5 4 3 2 2 1 5 5 3 6 6 6
-1 -2 -2 -2 -2 -1 -3 -1 0 1 1 2 2 2 -0 1 3 3 1 2 1 1 2 1 3 2 4 4 4 4 3 0 2 1 0 2 4 2 2 3 3 5 3 5 5 6 6
-1 -2 -2 -2 -2 -2 -3 -0 0 1 1 2 2 2 3 3 2 3 4 2 2 3 1 2 2 3 2 3 3 3 1 -0 1 1 1 1 4 3 4 5 4 5 6 6 5 5 3
-2 -2 -3 -2 -2 -2 -2 -1 -0 -0 1 2 2 2 4 3 3 3 4 2 2 3 3 3 2 3 3 2 3 2 2 1 0 1 3 1 4 4 2 1 1 2 3 3 4 3 3
-2 -2 -2 -4 -2 -3 -2 -1 -0 -0 1 2 3 2 4 2 3 4 3 3 3 4 3 3 3 3 3 4 5 3 2 0 0 2 2 2 5 5 4 3 3 5 4 2 2 3 3
-4 -4 -3 -3 -2 -3 -2 -1 -0 1 1 3 2 2 4 3 3 3 3 3 4 3 3 2 3 3 4 5 4 4 2 0 1 1 1 1 5 5 5 4 4 5 4 5 4 5 2
-4 -4 -2 -3 -3 -3 -3 -1 -0 0 2 3 3 2 2 3 3 2 1 2 3 4 3 3 4 4 5 6 5 5 2 2 1 1 2 3 5 4 5 4 4 5 5 5 5 3 3
-4 -4 -3 -4 -3 -3 -3 -1 -0 0 2 3 3 4 3 2 3 2 3 3 3 4 4 4 5 3 4 6 3 2 3 1 1 4 4 4 5 5 5 4 5 5 6 5 4 3 3
-4 -4 -3 -4 -3 -3 -3 -1 -1 0 1 2 2 4 3 3 2 4 3 4 3 3 4 3 3 5 5 5 4 4 2 1 2 3 5 5 5 6 6 6 6 7 5 5 4 3 2
-4 -4 -4 -3 -3 -3 -3 -1 -1 0 1 2 3 4 3 5 3 3 3 3 4 3 4 4 4 4 4 4 4 4 3 3 3 3 2 6 5 6 7 8 9 7 6 3 4 3 2
-3 -3 -4 -4 -4 -3 -3 -1 -1 0 1 2 4 5 4 4 3 3 3 3 3 4 5 4 4 4 4 5 6 5 5 4 4 4 3 3 5 7 8 8 8 4 7 5 5 4 2
-2 -2 -4 -6 -4 -4 -5 -2 -2 -0 1 3 5 4 5 3 3 2 3 4 5 5 5 5 5 4 5 6 6 6 5 4 4 5 3 4 4 7 7 8 8 2 0 4 4 8 5
-5 -4 -3 -4 -4 -3 -3 -3 -3 -1 1 3 4 5 4 4 3 3 3 4 4 4 4 4 4 4 5 6 7 5 6 4 6 6 7 7 7 7 8 7 5 2 0 4 7 4 -0
-4 -4 -2 -4 -5 -4 -4 -4 -2 -2 1 2 4 5 4 4 4 3 2 3 4 3 4 3 5 5 5 6 7 6 6 5 5 4 5 5 6 7 6 7 5 -0 1 2 0 -0 1
-5 -4 -3 -4 -5 -4 -4 -6 -2 -2 0 2 4 5 4 3 4 3 3 3 3 3 3 3 4 4 5 6 5 6 7 5 4 5 4 6 4 5 4 4 0 1 0 1 1 1 1

GFSGBSN_850_dewp_027.txt.gz
Dewpoint
1 1 1 1 1 1 2 3 3 3 3 4 6 5 5 5 7 5 5 4 -0 0 0 -0 -1 0 -2 3 5 4 4 4 6 8 8 8 7 5 5 5 5 7 6 6 6 5 5
1 1 1 1 1 2 0 1 2 2 2 3 5 6 5 5 5 7 5 4 0 0 1 1 -0 2 2 1 -2 1 4 4 5 8 8 8 8 6 5 5 5 5 5 5 4 4 4
1 1 0 0 1 -0 0 1 1 1 2 2 3 4 6 6 5 7 5 4 2 1 2 2 0 1 2 0 -0 0 2 4 6 8 7 7 8 6 6 6 6 6 6 5 5 4 4
0 -0 -0 -0 -0 0 -1 -0 -0 1 2 1 2 3 4 6 5 6 6 4 3 2 3 3 4 3 1 0 -1 -1 2 5 7 8 7 6 7 7 7 6 5 6 6 6 3 3 4
-1 -0 -0 -1 0 0 0 0 -1 -1 -0 1 1 -1 2 5 5 5 7 5 1 2 5 4 4 4 3 2 1 -1 1 4 4 6 4 4 5 4 6 6 6 6 6 7 4 3 4
0 -0 -1 -0 -0 -0 0 -0 -1 -0 1 -1 1 -0 -0 3 5 6 7 5 1 4 5 2 4 4 2 2 0 -0 1 2 2 2 3 4 3 4 4 6 6 5 6 4 5 3 3
1 0 -1 -0 -0 -0 -1 -2 -2 -0 -1 -1 -0 -0 -2 0 5 6 6 5 3 4 4 2 2 3 2 2 2 2 -0 2 3 3 4 3 4 5 5 4 4 5 6 5 4 3 3
0 0 1 -0 -0 -1 -0 -1 -1 -1 -1 -2 -0 0 0 -0 3 5 6 4 1 0 4 3 2 4 3 3 3 3 1 2 2 4 2 4 5 2 1 3 4 4 5 5 2 1 2
1 1 0 -0 -0 -1 -1 -1 -1 -1 -2 -2 -1 1 -0 -1 2 5 6 5 3 1 1 1 2 3 4 3 4 3 2 3 3 3 3 4 2 1 3 3 3 4 5 3 2 1 1
0 0 -0 0 -1 -0 -1 -1 -1 -1 -1 -1 0 -1 -0 0 -0 4 5 5 3 2 -2 -1 3 3 3 4 3 3 2 2 3 4 3 4 2 2 3 3 3 4 2 2 3 4 3
-0 1 0 -0 -1 -1 -1 -1 -1 -1 -0 -1 0 -0 1 0 1 3 4 4 2 -0 -3 -0 4 4 4 2 2 4 3 2 4 4 3 3 3 4 3 2 2 3 1 2 3 4 4
-1 0 0 -0 -1 -1 -1 -1 -1 -1 -0 -0 -0 -2 0 0 -1 1 4 3 1 0 -1 4 3 4 5 3 3 3 3 3 3 3 3 2 1 2 2 2 1 1 3 3 4 5 6
-0 -0 -0 -1 -1 -1 -1 -0 -2 -0 -0 0 1 0 0 1 1 1 4 3 3 -0 -0 4 4 4 3 4 4 3 4 5 5 6 5 3 4 3 2 3 2 2 6 6 6 7 5
-1 -0 -1 -1 -1 -1 -1 -1 -2 0 0 0 1 1 1 -1 -4 4 3 3 1 -0 2 1 2 3 3 3 2 3 4 5 4 4 6 5 3 4 3 3 3 4 4 5 5 5 3
-1 -1 -1 -1 -2 -2 -2 -2 -1 -1 1 1 0 2 2 -2 -1 1 3 4 1 0 2 2 2 3 3 2 2 3 3 3 2 4 6 5 4 2 3 2 2 5 5 2 4 3 6
-2 -2 -2 -2 -2 -2 -3 -2 -1 0 1 2 0 1 1 1 0 1 2 2 0 0 2 1 3 2 3 3 4 4 3 1 2 1 2 2 4 1 2 2 2 4 2 5 5 5 5
-2 -2 -2 -2 -3 -2 -2 -1 -1 0 1 2 2 2 2 1 1 2 4 2 3 1 0 1 2 3 2 3 3 4 2 -1 0 1 1 2 2 2 4 4 3 5 5 5 4 5 4
-2 -2 -2 -4 -3 -2 -4 -1 -1 -0 0 1 1 3 2 2 2 1 4 2 3 3 2 2 2 2 2 3 3 3 2 -0 -0 1 3 1 3 3 2 -0 1 1 3 3 6 4 5
-3 -2 -3 -3 -4 -3 -2 -3 -1 0 0 1 1 3 2 2 3 4 3 3 3 3 2 2 3 3 2 2 4 2 1 -0 1 1 2 2 4 4 3 3 1 4 4 4 4 5 5
-2 -3 -4 -4 -5 -4 -2 -4 -1 -0 1 3 2 3 2 2 3 3 3 3 4 3 3 2 3 2 3 4 3 4 3 1 0 1 1 1 4 3 4 4 4 5 5 4 4 5 3
-3 -4 -3 -4 -3 -2 -3 -3 -1 -0 2 3 2 2 2 3 3 2 1 2 4 4 3 3 4 3 3 5 3 4 2 2 1 1 2 3 5 4 4 3 4 5 5 5 5 4 4
-3 -3 -2 -3 -4 -2 -3 -2 -2 -0 2 2 3 3 3 3 3 2 2 2 3 4 3 4 4 3 3 5 4 3 2 2 2 2 3 3 5 5 5 4 4 5 6 5 5 4 3
-3 -4 -2 -2 -3 -3 -3 -3 -2 -0 1 1 2 3 3 2 2 2 3 2 2 3 3 2 3 3 5 3 4 3 4 1 1 4 3 5 5 6 6 5 6 8 7 5 5 4 3
-2 -2 -2 -2 -2 -2 -2 -3 -2 -2 0 1 2 2 3 4 3 3 2 3 3 2 4 4 3 4 3 4 4 4 5 4 3 3 2 4 5 6 6 7 9 8 5 5 4 4 3
-2 -4 -3 -2 -3 -3 -3 -2 -7 -4 0 1 2 3 3 4 3 2 3 3 4 3 4 4 4 4 4 5 5 5 4 5 4 3 4 3 4 7 8 8 6 4 4 6 4 6 3
-2 -2 -4 -3 -4 -4 -4 -4 -18 -5 0 1 4 4 4 3 3 2 3 3 4 4 4 4 4 4 5 5 6 6 4 3 4 5 3 4 4 7 7 8 8 3 2 4 4 7 3
-3 -3 -6 -3 -4 -5 -4 -6 -10 -3 0 2 4 4 4 3 2 2 2 4 4 4 4 4 4 4 5 5 6 6 4 4 6 5 5 6 6 6 7 8 5 2 1 4 5 3 -0
-5 -4 -5 -4 -4 -4 -3 -13 -5 -2 -0 1 4 5 5 4 3 3 2 3 4 3 4 3 4 4 5 5 6 5 5 4 5 3 5 4 6 7 7 7 5 -0 3 4 -0 1 0
-4 -3 -4 -4 -5 -4 -4 -14 -4 -2 -1 0 2 4 5 4 4 3 3 2 3 3 3 4 4 4 4 6 6 5 5 4 4 5 3 6 3 4 4 3 0 1 -0 1 1 1 1

GFSGBSN_850_dewp_030.txt.gz
Dewpoint
1 1 1 1 1 0 1 1 1 2 2 2 3 3 5 5 5 5 7 5 4 -1 0 0 -0 -0 -1 5 5 4 3 4 5 9 9 8 6 5 4 3 4 4 2 3 4 5 4
1 1 0 1 1 1 1 0 0 0 1 1 2 2 3 5 5 5 6 6 4 2 -0 1 0 0 3 -1 -2 3 4 3 6 9 9 8 7 6 5 4 4 3 4 4 4 3 3
0 1 1 0 0 1 0 0 0 -0 -1 -1 1 1 1 3 5 6 5 7 4 3 -0 2 1 0 3 2 -0 -1 0 3 5 9 8 8 7 6 6 5 5 5 5 3 3 2 3
1 1 1 1 1 0 -0 0 0 0 -0 0 -0 -1 0 1 3 5 6 7 4 3 1 2 2 3 3 0 -0 0 0 5 6 7 8 7 7 7 6 6 4 4 4 5 2 2 2
1 1 0 -0 0 0 -0 0 -0 -0 -1 0 -0 -0 -1 1 0 4 5 6 5 3 2 3 3 4 3 2 1 -1 2 5 7 6 6 7 7 6 6 5 5 4 5 5 3 1 1
1 1 0 0 1 -0 -0 0 -1 -0 -1 -0 -0 -2 -1 -3 -1 3 5 6 6 3 5 5 4 4 3 3 1 -0 1 4 4 4 4 4 3 2 2 4 5 3 5 3 3 1 2
1 0 1 1 1 1 -0 -1 -0 0 -1 -1 -1 -2 -1 -0 -0 2 5 6 5 5 4 3 3 2 3 2 2 1 2 3 3 3 4 3 4 4 2 1 1 3 4 4 2 1 2
1 1 1 1 0 0 -0 -0 -1 -1 -0 -2 -2 -2 -2 -1 -0 1 4 5 4 4 4 3 3 3 4 3 3 3 2 2 3 4 2 3 4 1 0 1 2 3 4 3 1 0 1
1 1 1 1 1 0 -0 -1 -0 -0 -0 -2 -2 -2 -0 -1 -1 -1 0 5 3 0 2 3 4 3 4 3 3 3 2 2 1 3 3 3 2 0 2 2 2 2 3 3 3 1 -1
0 0 -0 -0 -0 -1 -1 -1 -1 -0 -1 -2 -0 -0 1 0 -0 2 2 3 3 2 5 2 3 3 3 3 2 3 2 2 2 3 3 3 0 1 2 3 2 3 -0 1 2 2 4
-1 -0 -0 -1 -2 -2 -1 -1 -1 0 -1 -1 0 -1 -1 0 1 -1 2 3 4 3 7 0 3 4 3 1 2 4 3 2 2 2 3 3 3 3 3 2 1 2 0 1 1 2 3
-1 -0 -1 -1 -2 -3 -1 -1 -1 -1 -1 -0 -0 1 1 -0 1 -1 1 4 4 4 4 3 3 4 4 1 2 4 3 3 2 2 2 1 1 1 1 0 0 0 2 2 2 3 6
-1 -1 -2 -2 -3 -2 -1 -1 -1 -1 0 -0 0 1 1 1 1 -1 1 2 4 6 0 4 3 4 2 2 3 2 4 5 4 6 6 2 3 1 1 2 1 2 5 4 6 6 3
-2 -2 -2 -2 -3 -1 -2 -2 -2 -0 0 0 1 -0 0 1 0 -1 2 3 5 1 2 1 2 3 4 2 2 3 4 5 2 2 5 4 5 2 2 2 1 3 3 4 3 2 -0
-1 -2 -3 -3 -3 -2 -2 -2 -1 -0 -1 1 1 0 1 1 2 2 2 4 5 -0 1 2 2 3 3 2 2 3 3 2 1 2 4 5 4 1 1 1 1 4 6 2 5 3 5
-2 -3 -2 -3 -2 -3 -3 -2 -1 -1 -1 0 1 1 1 2 1 2 2 5 1 0 0 0 3 1 2 2 3 2 2 0 1 0 1 2 5 0 0 2 2 3 1 5 5 4 3
-3 -2 -3 -2 -3 -4 -4 -2 -2 -1 -1 0 1 1 1 1 1 1 4 4 3 0 -0 1 2 2 2 2 2 2 2 -0 0 0 1 1 1 2 2 3 2 4 5 6 3 4 3
-2 -2 -2 -2 -4 -4 -2 -2 -2 -1 0 1 1 2 1 0 2 2 4 3 1 1 2 1 0 1 1 2 2 2 2 -0 -1 0 2 -0 2 3 3 -2 -1 -2 0 2 6 4 4
-3 -3 -2 -2 -3 -2 -2 -3 -1 -0 0 2 1 2 2 1 4 4 3 3 2 2 2 2 2 2 1 2 3 1 1 -1 -1 0 1 0 4 4 4 3 0 2 1 0 4 4 6
-3 -2 -2 -2 -3 -2 -2 -3 -1 -0 2 2 2 3 2 2 3 3 4 4 3 3 2 2 2 1 2 2 1 3 2 1 -0 -0 0 0 2 3 3 4 4 6 4 5 5 6 4
-2 -3 -3 -2 -2 -3 -2 -3 -1 -1 2 3 3 2 2 3 3 3 2 3 3 3 2 2 3 2 3 4 3 4 1 1 1 1 1 1 5 4 4 2 4 5 4 5 5 5 5
-1 -2 -2 -2 -2 -2 -3 -4 -3 -2 1 2 3 3 3 1 2 2 1 2 2 3 3 3 3 2 2 3 2 3 2 2 1 1 2 2 4 5 5 3 3 6 6 6 6 5 5
-1 -2 -2 -2 -2 -3 -3 -4 -6 -4 0 1 1 3 3 2 3 2 2 1 2 2 2 2 1 2 3 3 2 3 1 1 1 2 2 3 5 6 6 4 4 8 7 7 6 4 4
-3 -2 -2 -3 -3 -4 -4 -4 -14 -3 0 1 1 2 3 3 3 1 1 1 1 1 2 3 3 3 3 3 3 4 5 4 4 3 1 4 5 4 6 5 9 7 5 5 6 5 5
-3 -2 -2 -3 -4 -5 -5 -4 -17 -2 -0 1 2 2 4 3 1 1 1 2 3 3 3 3 4 4 4 4 5 5 3 4 3 4 4 3 4 6 7 8 5 5 5 7 6 7 3
-3 -3 -2 -4 -4 -6 -4 -4 -17 -2 -1 2 3 3 4 3 2 0 2 2 3 3 4 4 4 3 4 5 6 7 4 2 4 6 3 3 4 5 4 8 7 4 4 4 4 7 0
-3 -3 -4 -4 -3 -4 -4 -8 -15 -2 -1 1 3 3 4 4 3 2 2 3 3 3 4 5 5 5 5 5 5 7 5 2 5 5 5 6 6 6 6 7 5 1 1 4 4 3 1
-3 -3 -4 -4 -4 -3 -5 -15 -15 -4 -2 1 2 3 4 4 3 3 2 4 4 3 5 4 4 4 5 5 6 6 5 3 5 4 5 5 5 6 6 7 7 0 2 4 2 1 1
-3 -6 -4 -4 -5 -4 -4 -11 -6 -8 -6 -0 2 3 5 4 4 3 2 2 2 2 3 4 4 4 3 4 5 5 5 4 4 5 3 6 3 4 4 3 1 1 1 1 1 1 1

GFSGBSN_850_dewp_033.txt.gz
Dewpoint
1 1 2 1 1 1 1 1 1 0 0 0 1 1 2 3 4 5 5 5 7 4 1 -1 -0 -0 -1 5 4 5 4 5 7 9 9 7 5 3 3 1 1 3 2 0 1 3 3
1 2 1 1 2 1 1 1 1 0 1 1 1 0 1 2 2 5 5 5 6 5 3 -0 1 0 4 2 2 4 4 5 6 8 9 8 7 4 4 2 3 2 2 1 2 2 2
1 1 2 1 2 1 1 1 1 1 1 1 1 0 0 -0 1 3 5 6 5 6 4 0 1 1 5 2 2 1 3 5 8 8 9 9 7 6 5 4 4 4 5 3 2 2 2
2 2 1 1 1 1 1 -1 1 0 0 1 1 0 0 0 0 0 3 6 6 6 5 1 2 4 3 2 3 0 2 5 6 8 8 8 7 6 6 5 4 4 3 5 1 1 1
2 2 1 1 2 2 1 1 0 0 0 0 0 0 -0 -1 -1 -0 1 5 6 7 5 2 3 5 3 2 1 1 2 5 5 6 8 8 8 6 6 6 5 4 5 4 2 1 1
1 2 2 2 1 1 1 1 0 0 1 -1 -1 -3 -2 -2 -2 -1 -0 3 5 6 5 5 5 4 2 2 3 2 2 5 5 6 6 6 5 5 5 7 6 4 4 3 2 0 1
1 1 1 1 1 1 1 1 -1 -1 -0 -0 -2 -2 -3 -3 -1 -1 0 2 5 6 5 5 4 1 2 3 2 2 3 4 4 3 3 2 3 4 3 3 2 1 2 2 1 -0 1
1 1 1 0 0 -0 -0 -2 -2 -1 -0 -1 -1 -1 -2 -2 -2 -2 1 1 4 4 5 4 3 3 3 3 2 2 2 3 3 4 2 4 6 1 -0 -0 1 1 3 2 0 -1 -0
1 -0 0 -0 -0 -0 -2 -2 -2 -0 -2 -0 -1 -1 -1 -1 -1 -1 1 1 3 4 5 4 3 3 4 3 1 2 2 2 2 3 2 4 1 -0 0 1 2 2 2 2 2 0 -1
-0 -0 -0 -1 -2 -2 -1 -1 -1 -1 -1 -1 -1 0 1 0 -1 1 2 1 2 4 5 5 4 3 4 3 3 2 2 1 1 2 2 2 -0 0 1 2 1 3 -1 0 1 2 3
-1 0 -1 -2 -2 -1 -1 -1 -2 -1 -1 -1 -1 -0 1 0 0 1 1 3 3 3 8 3 3 3 2 1 2 3 2 2 1 1 1 3 2 2 2 1 -0 2 -0 1 1 2 3
0 -0 -2 -1 -3 -1 -1 -3 -2 -1 -1 -1 -1 -0 2 1 1 1 1 2 2 3 8 3 3 3 3 1 2 3 2 2 1 0 1 0 -0 0 1 0 0 0 1 1 1 2 6
-0 -1 -3 -2 -1 -3 -3 -3 -2 -1 -1 -1 -0 1 1 2 1 1 -0 2 4 6 0 5 3 3 2 2 2 3 3 3 4 6 5 2 1 0 -0 2 0 1 4 4 6 6 4
0 -2 -3 -3 -3 -1 -3 -3 -2 -2 -0 -1 0 1 2 0 1 1 2 2 6 4 2 -0 3 2 3 1 2 2 2 4 1 1 3 4 6 2 1 2 2 1 2 4 3 2 0
-0 -1 -3 -3 -1 -3 -2 -2 -2 -1 -1 -0 0 1 1 2 2 -1 2 4 6 1 1 2 2 4 4 1 2 2 2 3 2 1 4 4 4 -0 1 0 -0 3 5 1 4 1 3
-1 -2 -3 -2 -2 -3 -2 -2 -1 -2 -1 1 1 1 1 1 1 -0 3 1 4 -1 -1 1 3 1 3 2 3 2 3 0 0 -0 -1 2 5 0 1 0 0 1 1 5 6 5 3
-2 -2 -3 -1 -3 -3 -1 -2 -2 -0 0 2 1 2 1 2 2 2 3 4 2 -1 -1 0 1 1 0 2 2 2 2 -0 -1 -1 -0 0 1 2 1 3 2 3 4 4 3 4 4
-2 -2 -3 -2 -3 -1 -1 -3 -1 -0 1 1 1 2 2 1 3 3 5 4 0 1 1 0 -1 -1 1 0 1 1 1 -1 -2 -1 1 -0 0 3 2 -2 -2 -1 1 2 6 3 5
-1 -1 -2 -2 -3 -2 -2 -2 -2 1 2 1 1 1 1 2 4 4 3 4 1 2 1 1 2 0 -0 1 2 1 1 -1 -2 -0 -0 -0 3 4 5 2 -1 1 0 -0 3 5 6
-1 -1 -2 -3 -1 -3 -3 -2 -7 1 2 2 2 2 1 2 3 3 5 5 4 2 2 1 1 -0 1 1 1 2 1 1 -1 -1 1 -1 1 3 4 6 4 6 3 3 5 6 4
-2 -2 -1 -2 -1 -2 -3 -3 -11 -0 1 3 3 2 2 4 3 4 3 4 3 3 2 1 2 1 1 3 3 3 1 1 1 0 0 1 6 2 3 2 3 4 4 4 6 6 6
-2 -3 -1 -2 -2 -3 -3 -3 -15 -1 -0 2 2 3 2 1 1 2 2 4 2 3 1 2 2 2 1 2 2 2 1 1 1 1 1 1 5 5 5 1 2 4 2 5 7 7 7
-2 -2 -3 -2 -2 -3 -3 -3 -15 -1 1 1 2 3 3 1 1 0 2 2 1 1 2 1 1 1 2 2 2 2 1 0 0 2 2 3 5 5 4 3 3 7 7 7 7 6 7
-2 -2 -2 -4 -2 -3 -3 -4 -13 -1 0 1 1 2 3 2 1 -0 -1 -0 0 0 2 2 2 1 3 3 3 3 4 3 3 3 3 3 4 4 5 4 8 4 2 4 6 6 5
-3 -4 -3 -3 -5 -3 -4 -5 -16 -3 -0 2 2 2 4 1 0 -0 -1 0 1 2 2 3 3 4 4 4 4 4 4 4 3 4 4 2 3 4 5 4 3 3 3 5 7 7 3
-3 -6 -7 -4 -5 -3 -4 -7 -15 -7 -3 1 3 3 3 3 1 -0 0 1 2 2 3 3 3 3 3 4 5 7 5 1 4 5 3 3 3 4 4 6 6 3 2 1 4 7 2
-3 -3 -9 -9 -4 -12 -5 -12 -14 -12 -7 0 2 2 3 4 2 -0 -0 1 1 2 3 3 5 5 4 5 6 6 5 1 3 3 6 6 6 6 6 6 3 0 1 4 6 4 2
-3 -3 -5 -10 -4 -5 -4 -4 -3 -4 -11 -0 2 2 3 4 3 3 2 2 2 2 3 4 4 4 5 5 6 5 5 3 3 1 4 4 5 6 6 7 6 0 1 5 3 2 2
-3 -3 -6 -5 -4 -5 -4 -4 -3 -3 -7 -1 2 3 3 4 5 3 2 2 3 3 3 4 4 3 3 4 5 5 6 2 2 3 2 5 2 4 4 4 1 1 2 2 2 2 1

GFSGBSN_850_dewp_036.txt.gz
Dewpoint
2 2 2 2 3 3 2 2 1 1 1 1 1 1 1 1 1 3 3 5 6 6 6 3 -2 -0 -3 6 6 6 4 8 8 8 8 8 5 4 4 2 2 3 2 1 1 1 2
2 2 2 2 1 1 1 2 1 1 1 1 1 1 1 1 1 1 2 4 5 6 7 4 -0 0 -0 3 3 5 3 4 6 8 8 8 5 4 4 2 2 1 1 2 1 0 1
3 2 2 1 2 2 2 2 0 -0 1 1 1 0 1 1 0 1 0 2 5 6 7 5 0 1 5 3 2 2 2 4 7 6 8 8 7 6 5 4 4 3 5 3 3 2 2
2 2 2 2 2 2 1 -0 1 0 -0 -0 0 0 0 0 0 1 -1 -0 3 6 7 6 1 3 4 3 4 2 1 3 5 7 7 8 7 6 6 5 4 5 5 7 2 2 1
2 2 2 2 2 2 1 1 1 0 -0 -2 -1 -2 0 -0 -0 -0 -0 -2 1 5 6 6 3 5 3 3 3 2 2 3 5 7 7 8 7 6 6 7 6 4 6 5 3 1 1
2 2 2 1 1 1 0 0 -1 -1 -1 -2 -1 -1 -2 -1 -3 -2 -1 -1 -2 4 4 5 5 5 3 3 2 1 2 5 5 5 7 8 6 6 6 7 8 6 6 4 3 2 1
2 2 0 1 0 -1 -1 0 -0 -2 -2 -1 -2 -1 -2 -1 -2 -1 -1 1 1 5 6 5 4 2 2 2 2 1 3 4 4 5 6 7 7 8 6 4 4 5 3 2 1 -1 0
1 1 1 0 -1 -2 -0 -0 -1 -2 -2 -2 -2 -1 -0 -1 -1 -1 -1 2 1 3 5 4 4 2 3 2 2 2 3 4 4 7 3 4 5 2 1 2 4 2 2 2 1 -1 -0
1 1 1 -0 -1 -1 -0 -0 -1 -1 -2 -3 -1 -1 -1 -0 -1 -1 -1 0 -0 1 5 4 4 3 3 2 2 2 3 3 4 4 4 4 2 1 2 2 2 2 3 2 2 0 -1
0 1 0 -1 -1 -2 -1 -1 -3 -2 -3 -1 -1 -1 -1 -0 1 1 1 1 1 1 4 6 4 3 3 2 2 2 3 2 2 4 3 3 0 0 1 2 1 3 0 1 1 2 4
-0 0 -1 -1 -1 -1 -1 -2 -2 -1 -1 -1 -2 -1 0 1 1 1 1 1 2 1 6 5 4 3 3 2 2 2 2 1 1 2 2 3 2 2 2 1 0 1 0 1 1 2 2
0 0 -1 -1 -1 -1 -2 -1 -1 -2 -1 -1 -1 -1 1 1 1 1 -1 1 1 3 6 6 4 3 3 2 2 2 2 2 1 0 0 1 -0 0 1 -0 -0 0 1 1 2 2 5
0 0 -2 -3 -1 -1 -1 -1 -2 -1 -1 -1 -1 1 0 1 2 0 1 2 3 5 4 5 5 3 2 3 3 2 3 4 4 5 6 2 2 0 -0 2 1 1 3 5 6 6 4
0 -2 -2 -2 -1 -1 -1 -1 -1 -1 -1 -1 1 1 1 1 1 0 1 2 5 5 6 0 3 3 3 2 3 3 4 5 2 2 5 5 5 2 0 2 3 3 3 5 5 5 3
-0 -2 -2 -1 -1 -2 -1 -1 -2 -1 0 0 2 0 1 1 1 0 2 2 5 4 1 3 3 4 4 2 3 3 3 3 1 1 4 5 4 0 1 0 1 3 4 1 3 2 3
-0 -1 -2 -2 -2 -2 -2 -1 -1 -0 1 1 2 1 2 2 -1 2 3 2 4 3 0 1 3 2 3 3 3 3 3 1 1 -0 -1 3 4 1 1 -1 -1 1 0 5 5 4 4
-1 -0 -1 -2 -1 -2 -1 -2 -1 0 2 1 0 1 1 1 -0 1 3 2 4 3 -1 3 1 1 0 2 2 2 1 0 -1 -0 -1 -0 2 2 2 3 3 2 3 3 3 4 5
-1 -0 -1 -1 -1 -3 -3 -2 -2 1 1 -0 1 2 1 1 1 2 4 4 3 3 0 -1 -1 -1 -0 -0 2 1 2 0 -1 -1 1 -0 1 3 3 -1 -0 0 2 1 4 3 4
-1 -1 -1 -2 -2 -3 -3 -5 -4 1 2 1 1 1 1 2 4 4 3 4 3 3 1 1 1 -1 -1 1 2 1 1 -1 -1 -1 1 0 2 3 4 1 -1 1 1 1 2 4 5
-1 -1 -1 -2 -2 -3 -4 -6 -5 1 2 2 1 2 1 2 3 3 4 4 3 2 2 1 0 -0 -0 2 0 2 2 -0 -1 -0 -1 -1 2 3 4 5 5 5 3 2 3 6 4
-1 -2 -2 -2 -2 -3 -4 -6 -9 0 2 3 3 2 2 4 3 3 4 3 3 3 2 1 1 1 1 2 2 2 1 2 -0 1 -0 1 4 3 3 1 2 3 4 3 5 5 6
-2 -3 -2 -2 -3 -3 -4 -4 -14 -0 1 2 2 3 3 1 2 2 3 5 3 2 2 2 2 1 1 2 2 3 1 0 2 1 1 1 4 3 3 2 2 3 2 3 4 7 7
-2 -2 -3 -3 -2 -3 -4 -4 -14 -2 1 1 2 3 3 1 0 1 2 2 1 2 2 1 1 1 3 2 2 2 2 0 1 1 2 4 4 5 3 3 3 6 4 6 7 6 7
-2 -2 -3 -3 -3 -3 -3 -3 -12 -5 -0 1 1 2 3 3 2 1 -0 0 1 0 2 2 1 3 3 3 3 3 3 3 3 2 2 5 5 4 4 4 7 5 4 4 5 5 5
-1 -2 -2 -3 -4 -4 -4 -3 -9 -14 -2 1 2 2 3 4 0 -0 -1 0 1 2 2 3 3 4 3 3 3 4 5 5 4 3 3 4 5 6 5 5 3 1 3 4 5 6 4
-1 -1 -2 -3 -3 -4 -4 -4 -7 -5 -15 1 2 2 3 4 1 -1 -2 -0 0 2 2 4 4 3 3 4 5 5 5 3 6 5 3 4 4 4 5 6 5 3 2 1 4 8 3
-1 -2 -2 -3 -3 -4 -4 -4 -3 -3 -16 0 2 2 3 4 3 0 0 1 1 2 4 4 4 5 4 5 5 5 5 2 3 7 5 6 5 6 6 6 3 -1 2 3 8 5 2
-2 -2 -3 -3 -3 -4 -4 -4 -4 -3 -14 -1 1 2 2 3 3 3 2 1 1 3 4 4 4 4 4 5 5 5 5 4 4 4 4 5 6 6 6 7 6 0 2 4 3 2 2
-2 -2 -3 -3 -4 -4 -3 -2 -4 -3 -6 -3 1 2 2 3 4 3 3 3 3 3 4 4 4 3 3 5 4 5 6 5 2 5 1 4 3 4 3 4 0 1 2 2 2 2 2

GFSGBSN_850_dewp_039.txt.gz
Dewpoint
3 3 3 2 3 3 1 2 2 1 1 1 1 1 1 1 1 1 1 2 2 5 6 7 5 -0 -1 5 5 6 5 7 9 8 6 8 7 6 5 4 4 3 2 2 2 2 1
3 3 2 2 2 2 2 2 -0 1 1 0 -0 0 0 1 -0 1 -0 1 3 4 6 7 6 2 1 5 2 4 4 5 8 8 7 7 6 4 4 3 2 2 2 3 2 2 2
2 2 2 2 2 2 1 1 1 1 1 1 1 -0 -0 1 1 1 1 1 1 2 5 7 6 1 4 1 1 4 3 3 5 7 7 7 7 5 5 4 4 3 4 4 3 3 3
2 2 3 3 1 1 1 -0 -0 -1 -1 -1 1 -0 -3 -1 -2 -2 0 0 -1 -2 4 6 6 2 4 2 2 3 1 4 7 7 7 7 8 6 6 5 4 4 4 7 4 2 2
2 2 2 1 1 0 -1 0 -0 -1 0 -2 -2 -2 -2 -2 -1 -2 -3 -2 -2 -3 1 6 5 3 3 1 3 3 -0 3 6 7 7 8 8 7 6 6 6 5 6 6 5 2 2
2 1 1 2 0 -0 -1 -1 -1 -1 -2 -2 -2 -3 -1 -2 -1 -1 -2 -2 -2 -3 -1 5 5 4 3 3 2 3 1 3 5 7 7 8 7 7 7 7 8 6 6 5 4 2 2
1 1 1 1 -0 -1 -0 -0 -0 -1 -0 -0 -3 -2 -2 -0 -1 -1 -2 -2 -0 1 0 5 4 4 2 3 2 1 3 4 5 7 8 7 7 8 6 6 5 5 6 4 1 -0 -0
1 1 1 -0 -1 0 0 -0 -0 -2 -0 -1 -3 -1 -1 -2 -2 -1 -1 -1 1 1 2 4 5 3 2 2 2 1 4 4 5 7 4 5 6 5 4 4 5 5 5 3 1 -1 -0
1 1 1 -1 -0 -0 -0 -1 -1 -1 -1 -1 -1 -1 -2 -1 0 -1 -1 -1 -0 0 2 5 5 4 3 2 2 2 4 4 5 6 4 5 2 1 2 3 4 2 3 3 2 0 -1
1 1 0 -2 -0 -1 -1 -2 -2 -1 -1 -1 -1 -2 -1 0 1 1 1 0 1 2 3 5 5 4 2 2 3 2 4 3 3 5 4 3 1 1 2 3 1 3 1 1 2 2 3
-0 -1 -1 -2 -2 -2 -1 -1 -2 -2 -1 -1 -2 -1 -2 0 1 1 1 1 2 -0 5 5 5 3 2 3 2 2 3 2 3 4 3 4 2 2 2 2 0 2 1 1 2 2 2
-0 0 -1 -2 -2 -2 -1 -1 -1 -1 -1 -1 -3 -2 1 1 1 1 1 1 1 2 4 6 4 4 4 2 2 2 2 2 1 2 2 2 -0 0 2 -0 0 -0 0 1 1 2 3
-1 0 -1 -2 -2 -2 -1 -1 -1 -1 -1 -0 0 1 1 2 1 2 0 1 1 3 3 5 6 4 4 4 3 2 4 4 3 5 5 3 2 0 -0 2 0 2 1 2 4 5 3
0 0 -1 -1 -3 -2 -1 -2 -1 0 -0 1 1 1 0 1 2 -0 1 0 1 5 5 4 4 3 5 3 3 3 4 4 3 2 3 3 3 2 0 1 2 3 2 1 4 4 4
-1 -0 -0 -2 -2 -1 -1 -1 -1 0 1 2 2 1 1 1 -1 0 1 1 3 4 5 5 4 5 5 3 4 4 4 4 2 2 3 3 4 1 0 -0 1 3 2 0 2 2 1
-2 -1 0 -1 -2 -1 -1 -1 -1 1 2 0 -0 1 1 1 1 0 2 3 2 3 3 3 5 3 5 3 4 4 3 1 1 0 -0 2 4 2 2 0 1 0 0 3 1 2 3
-1 -1 -1 -1 -2 -3 -2 -1 -2 1 0 -1 -1 -1 1 1 -1 1 2 3 3 3 2 2 2 2 2 3 3 3 3 1 -0 0 -0 0 2 3 2 2 2 2 2 2 2 3 4
-2 -1 -1 -1 -5 -2 -3 -4 -1 2 0 -1 -1 -0 1 1 1 2 3 3 2 3 3 2 -2 -0 0 2 2 1 2 0 -1 -1 2 -0 2 4 2 -0 -0 0 1 1 1 0 2
-1 -1 -3 -1 -4 -3 -4 -7 -3 1 2 -1 -1 -0 0 2 3 3 3 2 3 4 2 2 2 -1 -1 1 1 1 1 -1 -1 -0 1 0 1 1 3 1 -0 2 1 1 1 3 2
-1 -2 -3 -2 -3 -4 -3 -7 -13 0 2 1 0 -1 0 2 3 2 4 4 4 3 2 0 -1 -2 1 2 1 3 2 -0 -1 1 -1 -1 2 0 2 3 3 2 3 1 2 5 3
-1 -2 -3 -3 -2 -3 -3 -6 -18 0 1 3 3 1 2 2 3 3 4 3 4 4 2 1 1 0 1 3 2 3 2 1 -0 0 -0 0 1 2 2 2 1 1 2 3 4 3 6
-1 -2 -3 -3 -3 -6 -3 -7 -12 -4 1 1 2 3 2 2 3 2 4 5 4 3 3 2 2 2 1 2 2 2 2 2 2 1 1 1 2 1 1 2 2 3 2 2 2 3 4
-2 -1 -3 -2 -3 -4 -7 -9 -12 -14 1 1 2 2 3 1 1 2 3 2 3 2 1 1 1 3 4 3 2 1 0 -0 0 1 1 3 2 1 1 1 2 5 3 2 5 6 6
-3 -2 -2 -1 -3 -4 -6 -4 -11 -8 -3 0 1 2 2 2 1 1 1 1 2 2 2 3 3 3 3 3 2 2 2 2 2 2 1 3 4 3 3 3 6 4 3 3 5 5 5
-4 -2 -2 -1 -2 -3 -4 -3 -5 -3 -11 -0 1 1 3 3 0 -0 -1 2 2 2 3 4 4 4 3 3 3 4 4 4 4 3 3 3 4 4 5 4 3 2 3 4 6 5 4
-4 -2 -2 -2 -2 -3 -4 -4 -3 -3 -7 -1 1 2 2 3 1 3 -1 1 2 3 2 4 3 3 3 4 4 4 5 4 5 5 3 4 4 6 5 6 5 2 2 1 4 7 2
-3 -2 -2 -2 -2 -3 -4 -3 -4 -3 -4 -4 1 1 2 3 3 3 -0 0 1 2 4 4 3 3 4 4 4 4 4 2 5 5 4 6 6 5 5 6 3 0 -1 3 6 4 2
-4 -2 -2 -2 -3 -4 -3 -3 -3 -3 -4 -4 0 1 2 3 3 4 2 1 1 2 4 4 3 4 3 5 4 4 5 4 4 4 4 5 6 6 6 6 5 -1 2 5 3 2 2
-4 -3 -2 -2 -2 -3 -2 -2 -3 -2 -3 -3 -0 1 2 2 3 3 3 3 3 3 3 3 4 3 3 4 3 4 4 4 4 4 2 5 3 4 3 3 -1 0 2 2 2 1 1

GFSGBSN_850_dewp_042.txt.gz
Dewpoint
2 2 2 2 3 3 2 2 2 0 -0 0 1 1 2 1 -0 1 1 1 1 2 3 6 6 7 1 4 4 7 6 4 8 8 7 6 7 7 5 4 4 4 3 3 2 2 2
2 2 2 4 3 2 1 1 -1 1 1 1 1 1 0 -1 -2 -1 -1 0 1 1 2 4 6 6 3 4 -2 4 4 7 8 8 8 7 7 6 4 4 4 3 3 2 2 2 3
2 2 2 2 1 2 0 0 -0 -1 -1 -1 0 -2 -2 -2 0 -2 -1 1 1 -0 -0 4 6 5 4 -0 2 4 3 5 7 8 7 6 7 5 4 4 4 3 4 3 3 3 3
2 3 1 2 2 1 -0 -0 -1 -1 -1 -1 -2 -2 -2 -3 -2 -1 -2 -3 -4 -3 -3 1 5 5 4 1 2 4 3 5 6 6 7 6 7 7 6 4 4 4 4 6 3 2 2
2 2 1 1 1 1 0 1 1 0 0 -1 -2 -3 -3 -2 -1 -1 -2 -3 -4 -6 -3 -2 4 5 3 1 1 2 2 4 7 7 7 8 8 7 6 5 5 4 6 6 5 3 2
2 2 1 1 0 1 1 -0 -0 0 -0 -0 -0 -3 -3 -1 -0 -1 -1 -3 -4 -3 -3 -2 3 4 3 3 1 2 2 3 6 7 7 8 8 8 7 6 8 6 6 5 5 2 2
2 1 1 1 -0 1 0 0 -1 0 -0 -1 0 -0 -1 -2 -3 -2 -2 -1 -2 0 -1 4 5 4 3 2 1 3 3 3 5 7 7 8 8 8 8 6 4 4 5 6 3 -0 -1
1 1 1 -0 0 -0 -1 -1 -0 -2 -2 -1 -1 -1 -1 -2 -1 0 -0 -0 -2 1 1 -0 4 4 4 3 2 3 2 4 5 7 6 8 8 6 5 6 6 6 5 4 1 -1 -0
1 0 1 -1 -1 -2 -2 -1 0 -1 -1 -1 -1 -2 -2 -1 0 -0 0 1 -0 0 2 1 3 4 3 1 2 3 3 5 5 6 4 6 4 3 4 5 6 4 3 3 3 1 -1
1 1 1 -1 -0 -1 -2 -1 -1 -0 -0 -1 -1 -1 -1 -1 0 1 0 1 -1 1 1 1 4 4 3 2 2 2 4 4 4 6 4 3 1 3 4 4 1 3 1 1 2 2 3
0 1 1 -1 -0 -3 -2 -1 -1 -1 -2 -1 -1 -4 -2 0 2 2 1 -0 1 1 1 3 4 4 3 3 2 3 4 2 4 4 3 4 3 2 2 2 1 2 0 1 1 2 1
-0 1 1 -1 -1 -1 -1 -1 -1 -0 0 -0 -1 -0 0 2 1 1 1 1 0 2 2 5 5 5 4 2 3 3 3 2 2 3 2 1 0 1 1 0 -0 -0 0 1 1 1 2
-1 0 0 -0 -1 -1 -1 -1 -1 0 1 2 2 -0 1 1 2 1 -0 1 -0 2 2 5 6 4 3 4 4 4 4 3 4 6 6 3 2 0 -0 2 0 0 0 2 1 1 2
-1 -0 0 0 -1 -1 -1 -1 0 0 2 1 1 1 1 1 1 1 1 0 1 3 5 4 3 3 5 3 4 4 4 4 2 2 4 4 4 1 -0 1 2 2 0 1 1 4 3
-1 -1 -1 -0 -2 -1 -1 -0 0 1 1 0 0 1 -0 1 -0 -0 1 -0 2 3 4 4 4 6 5 4 4 4 3 3 2 1 2 2 2 1 0 0 0 2 2 -0 1 0 0
-1 -0 -1 -0 -2 -1 -4 -0 0 1 -0 -1 -1 0 1 1 0 1 1 3 3 2 3 2 5 4 6 5 5 4 3 2 1 0 -0 2 4 2 1 0 0 -0 -0 1 -1 0 2
-1 -1 -1 -1 -2 -5 -9 -1 -1 -1 -1 -2 -2 0 1 0 -0 0 2 4 3 3 4 3 3 3 3 3 3 2 2 1 -1 -0 -0 0 2 3 3 2 2 3 3 2 1 1 3
-1 -1 -1 -4 -2 -2 -5 -2 -4 1 -3 -3 -2 -0 -0 1 -0 2 3 3 1 3 4 4 -1 1 2 2 2 2 2 1 -1 -0 2 -0 2 1 3 -0 -1 0 1 0 -0 -2 1
-1 -2 -1 -5 -4 -3 -5 -10 -15 0 1 -0 -2 -1 0 2 3 2 3 3 2 4 4 2 -0 -1 -0 1 2 1 0 -1 -1 -0 1 -0 0 0 2 1 0 2 1 1 0 3 0
-1 -1 -2 -3 -12 -13 -27 -14 -15 -2 1 2 0 -2 0 2 2 3 3 4 5 3 4 -0 -1 -1 1 1 0 3 1 0 -0 1 -1 -1 1 -0 2 -0 0 0 2 1 2 4 2
-1 -1 -2 -2 -7 -17 -27 -24 -14 -6 1 2 2 1 2 2 4 3 4 4 4 4 1 -0 1 1 2 3 3 3 1 1 0 1 1 -0 1 1 1 1 1 1 2 2 1 2 3
-2 -1 -2 -1 -4 -15 -18 -26 -15 -10 1 1 2 2 2 3 2 2 3 4 4 3 2 2 3 2 1 3 2 3 2 1 1 0 1 0 -0 1 1 1 2 2 2 1 1 1 2
-5 -1 -2 -2 -2 -8 -14 -13 -9 -3 -1 1 2 2 2 1 1 1 2 1 2 1 2 3 2 3 4 3 2 -0 -1 -1 -0 0 2 2 1 1 2 1 2 4 3 2 2 2 2
-9 -2 -1 -4 -3 -3 -9 -9 -5 -2 -2 -1 1 1 2 2 1 1 1 2 2 2 3 3 3 3 3 2 2 1 2 1 1 1 1 2 2 2 1 1 5 4 1 1 1 2 4
-12 -2 -1 -4 -3 -3 -5 -6 -4 -4 -2 -1 1 1 2 2 2 -0 1 2 2 2 4 4 4 4 3 3 3 3 4 4 4 3 3 2 3 4 3 3 2 2 3 4 5 4 3
-14 -3 -1 -3 -3 -4 -4 -5 -3 -4 -3 -5 1 1 2 3 1 3 0 1 2 2 1 4 3 2 2 3 3 4 5 4 5 5 3 3 4 4 3 5 5 2 1 2 3 6 3
-13 -4 -2 -3 -3 -3 -3 -4 -3 -3 -3 -5 -0 0 1 2 3 3 -0 1 1 2 3 4 3 3 3 3 4 4 4 3 5 5 6 6 5 4 4 4 3 -0 -1 3 6 5 2
-11 -3 -2 -3 -3 -3 -3 -3 -3 -2 -2 -5 -1 0 1 2 3 4 4 2 2 2 4 3 3 3 3 4 3 3 4 4 4 3 4 5 4 5 4 6 5 -1 3 5 3 2 2
-5 -3 -2 -2 -3 -2 -3 -3 -4 -3 -3 -2 -2 -0 0 1 3 3 3 3 3 2 3 3 4 2 3 3 2 3 4 3 3 4 2 4 2 4 3 3 -1 -1 2 2 1 1 1

GFSGBSN_850_dewp_045.txt.gz
Dewpoint
3 3 3 3 2 2 2 1 1 0 -0 -0 0 1 -1 -3 -0 0 1 -1 -1 1 1 2 4 6 6 4 1 7 7 2 6 7 7 8 8 6 6 5 4 4 3 3 3 3 3
2 2 3 2 2 2 2 1 1 0 0 0 0 -0 -1 -1 -2 -1 -1 -2 -0 1 2 1 3 5 5 3 1 3 5 6 7 7 7 7 7 6 5 4 5 3 3 3 2 2 2
2 3 2 2 2 2 0 -0 1 1 1 1 0 -2 -1 -2 -2 -2 -2 -2 -0 1 1 -2 2 5 5 4 0 -2 4 5 7 9 8 7 6 6 5 4 3 3 4 3 3 3 3
2 2 2 2 2 1 1 0 0 0 0 1 0 -1 0 -1 -2 -1 -1 -2 -1 -4 -4 -4 0 4 5 4 3 4 6 7 6 7 6 6 8 6 5 4 4 4 4 6 2 2 2
2 2 1 2 2 0 1 0 -0 0 -1 -0 -0 -2 -0 -3 -2 -1 -1 -1 -2 -4 -3 -3 1 4 4 3 3 4 4 6 6 8 8 6 7 7 6 5 5 4 6 6 4 2 2
2 1 2 1 1 -0 -0 -1 -1 -0 -0 -2 -0 0 0 -1 -1 -2 -1 -2 -3 -4 -3 -2 1 4 4 3 3 4 3 4 6 7 8 8 8 7 7 6 8 7 5 5 5 2 1
1 1 1 1 0 -1 -2 -1 -0 -1 -2 -1 -1 -0 -2 -2 -2 -1 0 0 -2 -0 0 -1 2 3 4 3 2 1 2 3 6 7 8 8 8 9 7 5 4 4 5 5 4 1 -0
0 1 1 1 -1 0 -2 -1 -2 -1 0 0 0 -1 -1 -3 -0 -0 -1 -0 1 -1 -0 -3 1 3 4 3 4 2 3 3 6 8 7 9 8 7 7 6 7 6 6 5 2 -0 -0
0 1 1 1 -1 -1 -1 -1 -1 -0 -1 -1 -1 -1 -1 -1 -0 -2 0 0 -1 0 0 -2 2 4 4 3 3 4 3 4 5 7 6 6 6 6 6 7 8 6 5 3 3 1 -1
0 1 1 1 -1 -1 -1 -1 -1 -1 -0 -0 -0 -0 -4 -2 -1 1 1 1 -1 -0 -3 2 2 4 4 2 3 3 3 5 5 6 4 3 0 5 5 6 5 4 1 1 1 2 4
0 -0 1 1 0 -0 -0 -0 -1 1 0 1 1 2 -1 -2 0 2 1 -0 -0 1 -10 0 4 4 4 3 2 3 4 3 5 5 3 4 2 4 5 4 1 2 0 1 1 1 1
-1 1 0 1 0 -1 -0 -0 -0 1 2 -0 1 1 1 1 0 1 1 -0 1 -2 2 4 4 4 4 3 3 4 3 2 2 2 1 1 0 0 1 1 0 -0 -0 0 1 0 2
-1 1 -0 0 0 -1 0 -0 1 1 1 1 1 -0 1 1 1 1 1 1 -2 -2 2 5 5 4 3 4 5 4 4 3 5 6 6 3 2 -0 -0 2 0 -0 1 1 0 1 2
-1 0 -1 -1 0 -1 -1 0 1 1 0 0 1 -1 1 0 1 1 -0 -1 -0 3 3 4 4 3 6 4 4 4 3 4 2 3 5 5 5 1 -0 1 2 1 1 1 0 2 2
-3 -0 -4 -1 -2 -2 -1 0 0 1 -1 -0 -1 -2 0 0 0 -0 1 1 2 3 3 5 5 6 6 4 5 4 3 3 2 0 2 2 2 1 0 0 0 2 1 -1 1 -1 0
-1 -3 -4 -2 -1 -0 0 -2 -2 -0 -1 -1 -2 -1 -0 -1 -1 -0 1 3 2 1 2 2 6 5 5 5 6 4 3 2 1 0 -0 1 4 2 1 0 0 0 -0 2 -2 -3 1
-8 -1 -5 -5 -3 -8 -3 -11 -8 -1 -2 -3 -3 -2 0 1 -1 0 2 3 2 2 4 3 4 3 3 3 3 3 3 1 -0 0 -0 0 2 4 2 2 3 2 2 1 1 1 2
-11 -6 -3 -4 -3 -13 -29 -19 -12 -1 -2 -3 -2 -3 1 1 -1 1 4 3 2 3 3 3 0 1 2 2 2 2 2 1 -1 -1 1 -0 1 5 3 -0 -1 0 1 0 -0 -1 2
-8 -10 -9 -5 -1 -5 -28 -29 -15 -4 0 1 -2 -1 1 1 3 3 2 2 3 4 4 2 -0 -1 -0 1 2 1 1 -1 -1 -0 1 -1 0 0 1 0 -0 2 1 -0 -0 -1 -1
-9 -10 -2 -11 -3 -4 -18 -29 -19 -8 0 1 1 -1 0 2 2 3 3 4 4 3 2 -1 -1 -1 -0 1 0 2 1 1 -0 -1 -0 -1 -0 -1 1 -1 0 1 2 1 0 1 1
-9 -15 -1 -4 -5 -3 -7 -21 -23 -9 0 1 2 1 2 1 2 3 3 4 3 4 1 -0 -0 1 1 3 3 2 1 0 1 1 0 -1 1 0 1 1 0 1 2 2 0 1 1
-15 -16 -3 -1 -3 -7 -6 -6 -23 -13 1 0 1 2 2 2 2 2 1 3 3 3 2 2 3 2 1 2 2 3 1 1 1 -0 1 -1 0 0 0 0 1 2 1 1 2 2 2
-17 -14 -9 -1 -2 -3 -9 -4 -6 -17 -1 0 1 2 2 1 1 1 2 2 2 1 3 3 2 3 3 3 1 -0 -1 -1 -1 0 1 1 1 0 2 -0 1 3 2 1 1 1 1
-14 -12 -14 -2 -2 -3 -3 -6 -3 -8 -2 -0 0 1 2 1 1 1 1 2 3 2 3 4 3 3 3 2 2 1 1 0 -0 0 0 1 1 1 1 0 4 1 0 -0 1 0 1
-13 -12 -13 -2 -2 -4 -3 -4 -3 -3 -5 -4 1 1 1 2 1 0 1 2 2 2 4 4 4 4 3 3 3 3 3 3 3 2 2 1 3 4 4 2 0 2 1 3 3 3 1
-10 -9 -12 -3 -1 -5 -2 -3 -3 -3 -4 -8 1 0 1 2 1 3 3 1 1 1 2 3 2 2 3 2 3 3 4 3 5 5 3 3 3 4 4 4 5 2 1 2 2 5 2
-5 -8 -8 -4 -1 -4 -3 -3 -3 -3 -2 -5 -3 -0 1 2 2 4 1 1 1 2 3 3 3 2 3 2 3 3 4 3 4 6 6 6 6 5 3 3 2 -1 -1 3 6 5 2
-1 -4 -5 -4 -1 -3 -3 -3 -2 -3 -3 -3 -2 -1 -0 1 3 3 4 3 2 2 3 3 3 2 3 3 2 3 3 3 4 3 5 5 5 4 4 4 3 -1 3 5 3 2 1
-3 -2 -5 -4 -1 -3 -3 -3 -4 -4 -4 -3 -4 -1 -0 0 2 3 3 3 3 3 3 3 4 2 2 4 2 3 3 3 3 4 2 5 2 3 2 2 -1 -1 -1 0 1 1 1

GFSGBSN_850_dewp_048.txt.gz
Dewpoint
2 2 3 2 2 2 2 1 1 -1 1 1 1 1 1 1 1 -1 -2 -1 0 -1 -0 2 1 3 5 5 4 7 8 7 -4 7 9 9 7 6 5 5 4 4 3 4 3 3 3
3 2 2 2 2 2 1 -0 1 1 1 0 0 1 -1 -0 -1 -1 -2 -2 -1 -1 -1 1 1 2 4 5 4 4 3 8 1 7 9 9 8 6 5 5 4 4 3 3 3 3 2
3 2 2 2 1 2 1 -0 0 -0 1 1 -1 0 -2 0 -2 -3 -1 -1 -1 -1 -1 1 0 2 4 4 4 3 -1 6 5 8 9 8 7 6 5 4 4 3 4 3 3 3 3
2 2 2 2 1 1 0 -1 0 -1 -1 0 0 1 -1 -1 -1 -2 -1 -1 -2 -2 -0 -1 -1 3 4 4 4 4 5 6 7 6 7 7 6 7 5 4 3 4 4 6 3 3 2
2 2 1 1 2 1 -0 1 -1 -1 -0 -1 -1 -1 -0 0 -0 -1 -2 -2 -2 -3 -3 -2 -0 1 3 4 4 4 5 6 6 6 6 5 6 6 5 5 5 4 6 6 4 2 2
1 1 1 1 2 0 -0 -0 -0 -1 -2 -1 -1 -0 -0 -0 -1 -2 -2 -1 -2 -3 -4 -3 -1 2 3 3 4 4 4 6 7 7 8 7 6 7 6 6 6 6 5 5 5 1 2
2 1 2 1 2 1 -1 0 -1 -0 -1 -0 0 -0 -0 -0 -1 -1 -1 -2 -3 -1 -1 -2 1 1 4 3 3 4 3 4 6 7 9 7 8 8 6 5 3 4 4 5 4 1 0
0 0 1 1 1 0 0 -0 -1 -0 0 1 0 -1 -0 -1 -1 0 -0 -0 -1 -0 0 -3 -2 -0 2 4 4 4 3 4 7 7 8 8 8 7 5 5 5 5 6 6 2 -0 0
0 -0 1 1 2 1 -1 0 0 1 1 1 1 1 -0 -3 -2 -2 1 0 0 -0 0 1 0 3 4 4 4 3 2 4 6 7 7 7 7 6 7 7 7 7 6 5 4 1 -1
-1 -0 0 1 2 0 1 1 0 1 1 1 -0 1 2 -0 -2 1 -0 1 0 -1 -6 1 2 3 3 4 4 3 2 5 5 7 5 3 5 7 7 7 7 8 2 2 1 2 4
-7 -0 1 1 1 -0 1 0 0 1 1 -0 -1 -1 1 1 1 0 0 -0 -0 0 -12 -0 3 4 3 4 4 3 3 4 5 5 5 5 6 7 7 6 4 3 0 1 0 1 1
-12 -4 1 -1 1 -1 -1 0 0 1 0 -1 -1 0 1 1 1 1 0 -0 -0 -4 0 3 4 3 4 3 4 4 4 3 2 3 3 2 0 1 1 1 0 -0 -0 -0 -0 0 2
-15 -9 0 -1 -1 -0 0 0 1 1 -0 -0 -1 0 1 0 1 0 -0 -0 -4 -2 2 4 4 4 4 4 5 4 4 4 6 6 5 3 2 0 -0 1 -0 -0 3 5 -0 1 1
-18 -11 -0 -1 -1 -2 0 -0 0 -1 -2 -1 -2 -0 0 1 0 -0 -0 -2 -2 2 3 3 4 5 6 4 5 5 4 4 1 3 4 4 6 2 -0 1 2 1 1 2 -1 2 1
-18 -12 -1 -2 -3 -5 -3 -4 -5 -0 -3 -3 -2 -2 1 1 0 0 1 -1 0 2 2 4 5 6 6 5 5 5 3 3 2 0 3 2 3 1 0 -0 0 2 1 -1 1 -1 0
-14 -6 -3 -2 -10 -21 -13 -10 -9 -2 -1 -4 -5 -3 -1 1 0 1 -2 2 2 1 3 3 5 4 5 6 5 5 3 2 2 0 -1 0 4 2 1 -0 0 0 -0 1 -2 -1 0
-11 -6 -3 -4 -11 -17 -28 -13 -16 -5 -0 -2 -3 -3 -0 1 -0 -0 2 3 2 2 3 2 3 3 3 5 3 3 2 1 -0 0 -0 -0 2 4 2 2 2 1 2 1 0 0 0
-12 -5 -1 -3 -4 -15 -25 -28 -23 -11 -1 -0 -2 -2 1 1 -0 1 3 3 2 3 3 0 0 1 2 1 2 2 2 0 -1 -0 1 -1 2 5 3 -0 -1 0 1 -0 -1 -0 2
-9 -13 -1 -1 -4 -11 -21 -29 -27 -12 0 2 0 -2 -0 2 3 3 2 3 3 4 4 -0 0 -0 -0 0 1 1 1 -1 -1 -1 0 -1 -0 1 3 1 -0 2 0 -1 -1 -2 -1
-11 -16 -5 -2 -5 -8 -19 -27 -29 -12 1 2 1 -0 0 1 3 3 4 4 4 3 1 -1 -0 -1 -0 1 0 1 1 2 -0 -1 -1 -1 -1 -0 1 -0 0 1 2 -0 -1 -0 0
-14 -16 -11 -1 -2 -7 -12 -18 -31 -17 1 1 1 1 2 3 3 2 3 3 3 3 1 -0 0 0 1 3 2 2 1 1 1 2 -0 -1 0 -0 0 0 -0 1 1 1 -1 0 0
-7 -12 -8 0 -1 -5 -9 -8 -27 -24 -0 1 1 1 1 1 1 1 1 2 3 3 3 2 3 2 1 2 1 2 1 1 1 -0 1 -1 2 0 -0 0 1 2 1 1 1 1 1
-3 -11 -8 -0 -1 -3 -5 -5 -11 -19 -2 0 1 1 2 1 -0 1 1 2 2 1 3 3 2 3 3 3 1 -0 -1 -1 -1 0 1 1 1 0 0 -0 1 3 2 1 1 1 1
-3 -5 -10 -2 -1 -2 -2 -3 -6 -5 -7 -1 0 1 1 1 0 0 0 2 3 2 3 4 3 3 2 3 1 0 -0 0 -0 0 -1 1 1 1 1 0 3 -2 -0 -1 -0 -1 -1
-2 -4 -10 -7 -2 -2 -3 -3 -3 -4 -3 -5 -1 1 1 2 1 1 2 2 1 3 3 3 3 3 3 2 2 2 3 2 3 2 2 -0 2 3 3 2 -0 1 2 1 2 3 0
-1 -3 -7 -7 -4 -2 -1 -3 -3 -3 -3 -5 -3 0 1 2 1 2 3 1 1 1 2 3 3 2 3 2 2 2 3 3 5 5 3 3 1 1 3 3 4 0 1 2 2 6 1
-1 -2 -2 -3 -5 -4 -1 -5 -3 -3 -3 -3 -6 -1 -0 1 0 4 2 1 1 1 1 3 2 2 2 1 3 2 3 2 4 5 5 5 5 5 3 3 2 -1 -1 3 6 5 2
-2 -2 -2 -2 -5 -5 -2 -5 -3 -4 -4 -4 -4 -3 -1 -0 1 3 4 4 2 2 2 2 2 2 2 2 2 2 2 3 3 2 2 3 4 4 4 4 3 -2 3 5 3 2 1
-1 -2 -3 -2 -6 -1 -1 -4 -4 -4 -3 -4 -3 -4 -2 -1 1 3 3 3 3 3 3 3 3 2 2 3 1 2 4 4 3 5 2 4 2 3 1 1 -2 -1 -1 1 1 1 1

GFSGBSN_850_dewp_054.txt.gz
Dewpoint
3 3 2 2 2 1 3 2 1 1 2 1 0 0 -0 -1 -2 -1 1 0 0 -0 -0 -1 -2 -0 1 2 1 5 6 7 7 7 6 6 7 7 6 5 4 3 2 2 1 3 3
3 3 2 2 2 2 3 1 -0 1 1 -0 1 1 -1 -1 -1 -1 -1 -1 -2 -1 -1 -2 -1 -1 1 2 1 4 6 4 6 7 6 7 6 6 5 5 4 2 2 2 1 3 2
2 3 1 1 2 2 2 1 1 1 1 0 1 0 0 -1 -1 -1 -0 -1 -2 -3 -2 -1 -1 -1 2 -0 3 4 4 5 7 7 5 7 6 5 5 4 4 3 3 1 2 1 0
3 1 2 2 2 2 2 1 -2 1 1 1 1 1 1 0 -1 -0 -1 -2 -4 -2 -1 -2 -0 0 -0 -2 1 4 3 5 5 6 6 8 7 5 4 4 4 3 2 4 -1 1 2
3 2 2 2 1 2 2 1 2 1 1 1 1 2 2 1 -2 -0 -0 -3 -2 -2 -3 -1 -0 0 -2 1 1 3 4 5 5 7 7 7 7 4 4 4 5 3 1 1 3 2 -0
1 2 2 2 1 2 1 2 1 1 1 1 1 1 0 1 -1 -2 -2 -1 -2 -2 -2 -0 -1 0 -2 1 1 5 5 5 7 6 7 8 7 6 4 4 3 3 2 2 0 2 3
-0 2 2 1 0 1 1 1 2 1 1 2 1 1 0 0 0 -3 -1 -3 -1 -0 1 -2 -2 -0 1 3 3 5 4 4 7 6 7 6 8 8 5 2 0 0 2 0 1 1 1
-3 -1 2 1 0 -0 1 1 1 0 1 2 0 1 0 1 -0 -2 -1 -0 -1 -1 -2 -2 -1 -1 -1 2 5 5 4 7 5 6 5 6 8 3 3 3 3 2 1 1 3 1 1
-8 -5 0 0 -0 0 -0 1 0 1 2 1 -0 -0 0 0 -2 -3 -1 0 0 -0 -2 -2 0 -0 -1 3 4 3 4 6 5 6 6 7 6 3 3 4 3 3 2 3 3 1 -1
-8 -5 -0 1 0 -0 -3 0 1 0 1 1 -2 0 -0 0 -1 -0 -0 -1 0 -1 0 -2 2 1 2 4 3 4 4 5 6 5 5 5 5 4 4 4 2 5 4 3 3 3 3
-7 -6 -0 1 1 -3 -6 -2 -1 -1 -2 -5 -3 -2 -1 -1 -0 0 -1 -1 -2 -1 2 -0 2 3 4 4 3 3 4 6 5 5 5 6 6 7 5 4 3 5 3 2 1 2 3
-10 -7 0 0 -0 -2 -9 -6 -7 -3 -1 -4 -5 -3 -3 -2 -1 -1 -1 -1 -1 1 3 3 2 3 4 3 3 3 4 4 5 4 4 5 5 5 5 5 3 -0 1 0 1 2 6
-14 -7 -1 1 -4 -8 -9 -15 -20 -7 -2 -5 -5 -3 -3 -2 -1 -0 -0 1 3 3 0 3 4 4 3 4 3 3 5 4 6 7 7 5 4 4 4 4 3 1 4 7 6 8 5
-14 -6 -1 0 -2 -10 -9 -23 -21 -19 -5 -2 -6 -5 -2 -1 -1 -0 -0 1 3 3 4 2 4 4 5 5 4 5 4 4 2 5 7 7 7 4 4 4 4 5 4 6 4 2 -0
-14 -8 -4 0 -2 -10 -19 -23 -26 -30 -9 -1 -3 -4 -2 1 1 0 1 4 3 2 3 4 5 5 6 4 4 5 4 4 1 2 5 7 6 0 -0 -0 1 2 5 -1 2 -0 2
-13 -7 -9 -5 -2 -5 -10 -23 -29 -30 -14 -2 -2 -4 -0 1 -0 -0 3 4 4 2 3 3 4 2 4 4 5 5 3 1 1 -0 -1 1 6 2 0 -0 -1 1 -1 4 4 4 2
-13 -8 -10 -9 -1 -4 -5 -18 -26 -30 -17 -2 -2 -2 0 1 0 2 4 5 3 2 3 2 2 3 3 4 3 2 2 1 -0 -0 -1 0 2 4 1 3 2 1 2 1 -0 -1 -3
-12 -8 -8 -7 -1 -4 -7 -12 -23 -29 -19 -3 -1 4 0 1 3 2 4 3 2 3 3 2 0 1 1 2 2 1 1 1 -0 -1 0 -0 2 5 4 -0 -1 -0 1 -1 3 3 2
-11 -9 -6 -6 -1 -1 -7 -9 -22 -28 -10 0 1 -1 -0 2 5 4 2 3 3 2 1 -0 -0 -0 -1 0 2 1 0 0 -0 -1 -0 -0 2 5 4 2 0 2 0 -1 -1 2 4
-10 -9 -5 -6 -2 -0 -6 -9 -18 -25 -12 0 0 4 1 2 3 3 3 4 3 2 1 -1 -1 -1 -1 0 -0 1 1 1 0 1 -1 -2 0 2 2 3 2 4 2 -0 3 5 1
-11 -10 -4 -4 -5 -1 -3 -6 -12 -23 -9 -0 0 1 1 4 3 2 2 2 2 2 1 0 -1 -1 -0 1 1 1 1 1 1 1 -1 -0 5 2 0 0 2 2 2 1 3 2 5
-12 -9 -4 -4 -5 -2 -2 -2 -4 -17 -14 -0 1 1 1 1 1 1 2 2 3 3 3 1 0 1 0 0 -1 1 1 1 1 0 -0 -1 4 2 3 0 1 2 1 1 1 1 0
-10 -5 -3 -4 -6 -3 -2 -3 -2 -5 -13 -3 -1 0 1 1 0 1 2 2 2 3 3 2 1 1 1 1 1 -1 -1 -1 -1 0 0 1 2 3 3 1 1 3 1 1 1 -0 0
-7 -1 -2 -2 -3 -6 -3 -3 -2 -4 -6 -6 -3 -1 1 1 1 1 1 1 3 2 3 3 2 1 0 -0 0 -0 -0 -0 -0 -0 -1 1 2 2 3 1 4 -1 -1 -1 -0 -0 -1
-5 -2 -2 -3 -3 -2 -4 -2 -4 -4 -5 -6 -5 -1 0 2 0 0 2 2 2 3 3 3 4 2 2 2 1 2 2 1 2 2 -0 -1 1 3 4 3 0 -0 0 1 1 1 -2
-4 -2 -3 -3 -3 -2 -3 -4 -3 -3 -4 -5 -5 -4 -2 0 -1 1 2 2 2 2 2 3 3 3 2 2 2 2 2 2 3 3 2 0 -0 2 3 3 1 2 2 1 -1 7 1
-3 -2 -3 -3 -3 -2 -4 -5 -2 -2 -4 -4 -3 -4 -4 -1 -1 1 2 3 1 1 2 2 3 2 1 2 3 2 2 1 3 3 4 3 3 3 2 2 -0 -3 -3 2 8 6 2
-1 -1 -1 -3 -3 -3 -5 -2 -2 -2 -6 -4 -3 -3 -4 -3 -4 -2 -1 2 3 2 2 2 2 2 2 3 3 3 3 2 2 2 2 2 3 4 2 2 3 -3 2 4 3 2 2
-2 -3 -3 -3 -3 -3 -4 -4 -1 -3 -4 -4 -2 -3 -4 -4 -3 -2 -1 0 1 3 4 3 1 1 2 3 2 2 3 3 2 3 1 2 0 1 0 -0 -3 -1 -0 0 1 2 2

GFSGBSN_850_dewp_057.txt.gz
Dewpoint
3 3 2 2 2 2 3 3 3 2 1 2 2 1 0 -0 -1 -1 -1 -2 -2 -1 -2 -1 -1 -0 2 2 0 1 5 4 7 7 4 5 3 5 6 4 2 2 -1 -1 1 3 2
1 2 2 2 2 2 3 3 1 1 1 1 1 1 1 0 -0 -1 -1 -1 -2 -1 -1 -1 -2 -1 1 1 -2 -2 5 6 7 8 4 4 3 4 4 4 2 2 1 0 0 2 2
-1 2 2 2 2 2 2 2 2 2 2 1 1 1 1 1 1 -1 -1 -1 -1 -0 -1 -2 -1 1 1 -1 -1 3 2 5 6 7 4 3 3 3 4 4 3 2 2 1 0 1 1
-1 -1 2 1 2 1 1 2 1 2 1 1 1 2 1 0 1 0 -2 -1 -2 -2 -2 -0 -2 2 1 -1 -1 -0 4 3 6 7 5 3 5 3 3 3 3 3 2 4 0 0 -0
-3 -3 -0 2 1 1 1 1 2 1 1 -0 1 0 1 0 1 -1 -2 -3 -3 -2 -2 -2 1 1 -2 -1 -2 -1 3 5 5 7 4 5 7 4 4 4 5 3 3 1 -1 -2 0
-7 -4 -1 1 1 0 1 1 1 1 1 1 0 -0 1 0 0 -1 -3 -1 -0 -3 -0 2 1 0 -2 -3 -0 2 4 5 6 6 5 6 6 6 4 4 5 3 1 -2 -2 1 -0
-9 -7 -2 -1 -0 0 -0 1 2 1 1 2 1 -0 1 1 0 -2 -0 1 0 1 1 -2 -2 -3 -1 2 3 3 5 5 7 4 5 7 8 8 4 0 -2 -3 -1 -4 -3 1 1
-10 -11 -3 -3 -2 -0 -1 0 2 2 1 1 1 -0 1 -0 -2 -3 0 -1 0 1 -1 -2 -2 -2 -2 0 3 4 5 3 7 5 3 8 6 5 1 -1 -1 -0 -1 -1 -0 -0 0
-9 -11 -5 -6 -6 -1 -2 -1 1 2 1 2 1 -1 -0 -1 -3 1 1 -1 -1 -0 -1 -2 -0 -1 0 2 3 5 5 5 5 3 5 5 5 5 6 2 1 -0 1 -1 1 1 -0
-10 -9 -6 -6 -7 -3 -4 -1 -2 1 -1 0 -0 -3 -3 -1 1 2 1 -2 -1 1 2 -1 2 2 2 3 3 4 5 5 4 5 5 5 4 6 6 4 1 1 -2 -1 2 2 -1
-9 -9 -7 -6 -7 -8 -3 -4 -5 -1 -4 -4 -4 -3 -3 -4 1 1 1 -1 0 1 4 1 2 2 2 4 4 4 3 5 5 5 5 6 5 7 4 3 0 1 2 2 2 3 3
-10 -10 -8 -7 -7 -10 -4 -15 -15 -21 -7 -2 -5 -4 -2 2 1 -1 -1 0 1 4 5 4 3 4 4 4 4 5 5 4 3 4 4 5 5 6 5 3 2 3 2 2 2 3 6
-11 -11 -7 -8 -7 -7 -7 -20 -18 -29 -24 -5 -1 -5 -2 -1 1 -0 1 2 4 4 3 5 5 4 2 3 4 4 5 5 6 7 6 4 4 5 4 5 2 3 5 8 8 8 6
-11 -12 -7 -9 -6 -8 -6 -5 -24 -28 -30 -8 -2 -4 -2 1 1 1 1 3 5 3 4 3 4 3 5 4 4 4 5 5 3 5 7 8 7 4 4 5 6 6 5 7 6 6 3
-11 -12 -8 -8 -7 -6 -6 -5 -16 -28 -29 -9 -3 -3 -0 2 0 2 2 6 4 3 3 5 3 5 4 3 4 5 4 3 3 2 7 7 7 4 4 4 4 6 6 0 1 -1 1
-10 -12 -9 -7 -6 -6 -6 -7 -11 -27 -28 -7 -3 -3 1 1 0 3 4 3 4 2 2 3 3 2 3 2 3 4 2 1 2 -0 -1 3 7 3 2 3 1 4 0 5 6 5 1
-11 -12 -9 -6 -6 -6 -7 -7 -10 -25 -28 -6 -1 1 0 1 2 3 5 4 4 2 2 2 1 2 1 2 1 1 2 1 -1 -1 -1 1 2 4 1 3 3 2 3 1 1 0 -1
-12 -11 -9 -5 -5 -4 -6 -8 -11 -22 -27 -10 2 5 0 1 4 3 3 2 2 2 2 2 0 0 0 1 1 1 1 1 -1 -2 -0 0 2 5 4 -0 -1 -0 1 0 5 3 1
-13 -11 -9 -6 -5 -2 -5 -8 -9 -19 -17 -3 2 2 0 2 5 4 2 3 2 1 0 -0 -0 -0 -1 0 2 0 0 0 -0 -1 -0 -1 3 5 4 2 0 2 1 -1 -1 4 5
-14 -12 -10 -4 -5 -1 -3 -6 -6 -16 -20 -2 2 3 2 3 3 2 2 3 2 2 -0 -1 -1 -1 -1 -0 -1 1 1 0 0 -0 -1 -2 1 3 3 5 3 4 2 0 4 6 0
-15 -13 -8 -5 -4 -5 -2 -3 -5 -15 -15 1 1 1 1 4 2 2 2 1 1 1 -0 -1 -1 -1 -1 0 -0 0 1 1 0 -1 -1 -1 6 2 0 0 3 3 2 2 5 2 6
-14 -13 -8 -4 -3 -6 -4 -3 -3 -10 -16 -1 0 1 0 1 1 1 1 1 1 2 1 -0 -0 -1 -2 -1 -1 -0 -0 -1 -1 -1 -1 -0 5 3 4 0 1 3 1 1 1 1 -0
-13 -10 -2 -2 -3 -3 -4 -3 -3 -5 -14 -3 -2 0 1 1 0 1 2 2 1 2 2 1 -1 -1 -1 1 0 -1 -2 -2 -2 -1 -0 1 3 4 4 0 1 3 1 0 0 -0 -0
-12 -4 -2 -3 -3 -3 -2 -4 -4 -3 -4 -3 -2 -1 1 0 0 1 1 1 2 2 2 2 1 0 0 -0 -1 -1 -1 -1 -1 -1 -2 1 1 2 3 1 5 2 -1 -2 -1 -1 -1
-8 -3 -2 -3 -3 -3 -2 -3 -4 -2 -3 -3 -3 -2 -1 -1 -2 -1 1 2 2 3 2 3 3 1 1 1 1 1 1 1 1 0 -1 -2 -0 2 4 3 1 -2 -1 0 1 1 -2
-6 -3 -2 -3 -3 -3 -2 -4 -5 -2 -3 -2 -3 -5 -2 -1 -2 0 1 2 3 2 3 3 3 3 3 1 2 2 2 1 2 3 0 -0 -1 2 2 4 3 3 1 -1 -1 5 -1
-4 -1 -1 -3 -3 -4 -3 -4 -1 -2 -3 -4 -2 -4 -2 -3 -4 -0 2 3 3 1 2 2 2 3 2 3 4 3 1 -0 2 2 3 2 2 3 2 2 -0 -3 1 2 7 7 2
-3 -1 -2 -3 -3 -4 -3 -3 -3 -1 -4 -3 -2 -4 -3 -3 -4 -4 -3 -1 0 3 3 2 3 2 3 4 3 2 2 0 1 -0 0 2 2 2 1 3 3 -3 -1 4 3 2 2
-2 -3 -2 -3 -3 -3 -2 -8 -8 -2 -4 -4 -2 -3 -3 -3 -4 -4 -4 -1 -1 -0 1 3 2 1 1 2 2 2 2 2 -0 2 -1 1 -1 0 -0 0 -2 0 1 2 2 2 2

GFSGBSN_850_dewp_060.txt.gz
Dewpoint
-2 -2 1 2 2 3 1 3 3 2 2 2 2 2 1 1 1 1 0 -2 -1 -2 -0 -1 -1 -1 0 2 2 -1 1 1 3 7 6 6 3 6 6 5 3 4 1 -0 -0 2 1
-7 -7 -1 1 3 1 2 1 1 2 2 2 2 1 1 1 0 1 1 -2 -1 -1 -1 -1 -1 -1 -0 1 -1 -1 -1 4 6 6 6 5 3 5 4 4 4 2 2 1 0 3 2
-9 -8 -2 0 2 2 1 2 3 2 2 2 2 1 1 1 1 0 2 -1 -0 -0 -1 -1 -2 -0 2 0 -2 -0 -2 1 7 7 7 4 3 2 4 4 4 2 2 2 0 2 2
-10 -10 -5 1 0 1 1 2 2 1 1 2 3 2 0 2 1 0 0 -3 -1 -2 -3 -2 -0 2 1 -2 -3 -1 1 2 6 7 7 3 3 2 3 4 4 4 3 5 1 1 1
-9 -10 -5 -4 1 1 1 2 2 2 1 1 2 1 1 1 0 0 -3 -5 -5 -5 -4 -3 1 1 -1 -2 -2 -2 -1 -0 3 6 6 3 3 4 3 5 6 5 5 4 3 0 0
-9 -10 -6 -6 -0 2 0 0 2 1 1 1 0 0 0 0 -0 -1 -4 -2 -2 -3 0 2 2 1 -0 -3 -1 -1 -2 -1 4 6 6 5 5 6 5 6 8 6 7 2 2 1 1
-9 -10 -7 -6 -3 2 1 -0 0 2 1 1 1 0 0 -2 -4 -5 -0 1 1 2 1 -1 -1 -1 -2 -1 -1 1 2 0 3 7 6 4 7 7 6 4 2 1 2 3 -1 0 1
-9 -10 -9 -6 -4 1 -1 -2 -2 1 0 -2 -4 1 -2 -2 -3 0 1 -1 0 0 -1 -2 -3 -3 -2 -1 2 2 2 3 4 6 4 6 7 4 3 2 2 -1 -0 1 -2 1 1
-10 -11 -10 -6 -5 -1 -5 -6 -3 -2 -2 -2 -5 -3 -4 -2 0 1 0 1 -1 1 -1 -2 -0 -0 0 0 2 3 5 4 4 6 5 5 4 4 4 3 2 0 1 -1 1 1 0
-10 -12 -10 -7 -5 -4 -6 -12 -12 -6 -16 -5 -3 -4 -3 -2 1 0 0 -2 -0 1 3 1 1 3 2 1 1 5 4 5 6 4 4 6 5 5 6 6 1 2 -1 -1 2 3 3
-12 -12 -10 -8 -6 -3 -5 -5 -14 -22 -25 -13 -2 -5 -3 1 1 1 -0 -1 0 1 4 1 2 2 2 2 3 4 5 4 5 5 5 6 6 6 6 6 2 1 -1 2 3 3 3
-12 -13 -11 -8 -8 -3 -1 -5 -5 -21 -27 -20 -3 -2 -5 1 2 1 1 1 2 4 5 4 2 2 3 4 4 4 5 5 3 4 4 5 4 5 5 6 5 2 3 2 2 3 7
-13 -13 -11 -9 -8 -6 -4 -5 -5 -12 -27 -24 -4 -4 -3 -0 2 1 2 2 4 5 3 5 4 4 5 5 4 3 5 5 6 6 6 5 4 4 5 6 4 3 4 6 8 8 7
-13 -12 -12 -9 -8 -6 -6 -5 -6 -10 -26 -24 -4 -3 0 1 2 2 1 3 4 3 4 4 4 3 5 5 5 5 6 6 4 5 6 7 6 4 4 5 6 5 4 6 6 7 4
-13 -12 -13 -9 -7 -7 -6 -7 -7 -8 -20 -25 -4 -1 1 2 0 2 3 4 3 3 4 5 3 4 4 3 4 6 5 4 5 5 7 7 6 4 4 4 4 6 7 1 3 -1 4
-13 -13 -13 -10 -8 -7 -6 -6 -7 -8 -15 -21 -4 0 2 1 2 3 4 3 4 2 2 3 3 1 3 3 4 4 3 1 2 -0 1 3 6 4 5 4 4 5 3 5 5 2 4
-12 -15 -13 -10 -7 -7 -5 -5 -7 -8 -13 -16 1 2 2 1 3 4 4 4 4 2 1 3 1 1 1 2 1 1 2 1 -1 -1 -1 2 4 6 5 6 6 5 7 3 2 1 3
-11 -15 -14 -12 -8 -6 -4 -5 -5 -9 -18 -15 2 3 1 2 5 4 3 2 2 1 2 2 0 -1 0 -0 1 1 2 1 -1 -1 1 1 3 6 4 -0 0 2 2 3 7 5 2
-13 -16 -15 -11 -7 -5 -4 -4 -5 -11 -17 -3 2 2 2 4 5 3 3 2 1 1 0 -0 0 -0 -0 0 2 0 2 0 -1 0 1 0 3 5 4 2 0 2 1 0 2 4 5
-15 -15 -14 -10 -5 -5 -2 -5 -4 -14 -10 1 2 2 2 3 2 3 2 3 2 2 -0 -1 -1 -1 -1 -0 -1 1 2 1 0 -1 -1 -1 1 3 4 5 3 4 2 1 3 3 3
-14 -14 -14 -7 -3 -3 -4 -4 -4 -10 -6 -0 -0 1 1 3 3 2 1 1 1 1 0 -1 -1 -1 -1 0 -0 0 1 1 1 -2 -1 1 3 1 1 2 4 4 3 2 2 2 1
-12 -13 -11 -3 -2 -3 -2 -4 -4 -5 -10 -2 -1 0 -0 0 1 1 1 0 1 1 1 -0 0 -1 -2 0 0 0 0 0 1 -0 -1 1 3 3 3 0 1 3 1 2 2 1 1
-12 -10 -3 -2 -3 -3 -2 -3 -4 -3 -9 -3 -3 -1 0 -1 0 1 3 2 2 2 2 1 1 -1 -1 2 -1 -2 -2 -2 -2 -0 0 2 3 3 3 0 1 3 1 1 1 0 1
-7 -6 -3 -2 -3 -3 -3 -3 -4 -3 -4 -2 -3 -1 -0 -0 -0 1 0 0 1 2 3 2 2 1 0 -1 -1 -2 -2 -2 -2 -1 -2 1 2 3 4 2 4 2 -1 -1 -0 -0 -1
-4 -4 -2 -3 -2 -3 -4 -3 -5 -3 -3 -3 -2 -2 -2 -2 -4 -5 0 0 1 1 3 2 3 0 1 1 1 1 2 0 1 -1 -1 -2 1 3 4 3 2 1 -1 -0 0 1 -2
-3 -4 -1 -1 -3 -3 -4 -3 -2 -2 -3 -4 -2 -4 -2 -2 -3 -5 -1 0 2 3 3 3 2 2 3 2 3 4 4 1 2 3 -0 -1 -0 2 3 4 4 4 -0 -2 -1 5 -2
-3 -3 -1 -2 -2 -3 -4 -3 -4 -2 -2 -4 -3 -3 -3 -4 -5 -4 -1 1 2 3 4 3 3 3 2 3 5 4 2 -1 2 3 3 2 2 4 3 4 1 2 1 0 6 6 2
-2 -3 -2 -2 -2 -3 -2 -3 -8 -6 -1 -4 -4 -3 -3 -3 -4 -5 -4 -3 -2 1 4 3 3 3 3 4 4 3 2 1 1 -1 1 3 3 4 3 4 3 -1 -1 4 3 2 2
-0 -2 -2 -2 -3 -4 -3 -5 -3 -3 -2 -2 -3 -4 -3 -2 -4 -5 -6 -5 -4 -2 -1 0 3 2 2 3 3 2 3 2 1 2 -1 1 -1 0 0 1 -1 -1 2 2 2 2 2

GFSGBSN_850_dewp_063.txt.gz
Dewpoint
-9 -8 -2 3 4 2 2 3 3 3 3 2 2 2 2 1 2 0 1 1 0 -1 -1 -2 -2 -1 -1 0 -1 1 1 4 2 3 6 7 6 7 8 7 5 5 2 2 2 1 1
-9 -9 -4 3 2 3 2 2 2 2 1 2 2 3 2 2 3 1 0 1 -0 -1 -2 -0 -1 -1 -0 2 -4 -1 -1 2 3 6 6 7 5 6 6 6 5 3 3 3 1 2 1
-9 -10 -6 2 3 2 2 1 2 3 2 2 2 3 1 1 1 0 0 1 -2 -1 -1 -1 -3 -0 1 -2 -1 2 1 0 4 5 6 5 4 4 4 4 4 3 4 2 3 3 2
-9 -10 -7 -2 1 2 2 1 2 3 3 2 2 2 1 -0 -0 -1 -1 -6 -3 -4 -5 -3 0 -0 1 -5 -3 -1 -1 1 1 5 7 5 4 3 4 4 5 4 3 6 2 2 2
-9 -10 -9 -4 -0 1 3 1 0 2 2 3 2 2 -0 -3 -2 -4 -6 -6 -7 -6 -5 -3 0 -1 -0 -2 -1 -3 -1 -1 2 6 6 4 5 3 2 5 7 6 6 5 3 1 2
-10 -10 -10 -6 -1 0 1 0 1 -0 2 -2 1 -1 -2 -5 -5 -3 -0 -1 -3 -3 1 2 1 1 -1 -1 -1 -1 -3 -1 1 4 6 6 5 5 5 6 8 7 5 4 4 2 2
-10 -11 -11 -6 -2 -4 -2 -2 -1 1 1 -2 -4 -3 -4 -2 -4 -2 -1 -0 -0 1 1 -1 -1 -2 -1 -1 -3 -3 -1 -0 2 5 7 5 6 6 5 5 3 5 4 3 2 0 2
-11 -11 -11 -7 -3 -6 -2 -0 -2 -1 -1 -1 -3 -4 -3 -2 0 0 -2 -1 -0 0 0 -3 -2 -3 -2 -3 -1 1 3 -0 2 4 6 7 6 4 3 4 4 2 4 4 0 0 1
-12 -12 -12 -8 -5 -5 -4 -3 -2 -3 -8 -9 -7 -4 -3 -2 -0 -1 -1 -2 -2 1 0 -1 -0 0 0 -1 1 3 2 3 3 4 6 6 4 3 4 4 5 3 1 1 2 1 -0
-12 -12 -13 -9 -8 -3 -6 -4 -4 -3 -19 -23 -14 -2 -5 -1 0 0 0 -2 -1 0 3 3 2 2 2 1 2 2 -1 4 2 5 4 5 4 4 5 4 3 5 -1 -0 2 2 4
-12 -12 -13 -10 -9 -10 -5 -6 -6 -4 -13 -25 -17 -3 -5 1 1 1 -0 -0 1 1 3 2 2 1 2 2 3 2 4 4 3 5 4 7 5 6 6 5 4 2 -1 2 2 2 2
-11 -12 -13 -12 -11 -9 -7 -5 -6 -7 -10 -23 -11 -3 -3 0 2 1 1 0 2 2 4 4 2 3 3 3 4 4 5 5 4 5 4 5 4 5 5 5 6 5 2 2 2 4 6
-10 -12 -12 -14 -11 -10 -7 -6 -6 -7 -9 -17 -13 -3 -1 -0 2 2 1 1 -0 3 2 5 4 4 4 4 3 4 5 5 5 5 6 5 5 4 5 5 5 5 3 5 6 5 5
-9 -11 -13 -14 -11 -10 -7 -6 -6 -7 -8 -15 -14 -3 1 1 1 1 2 1 1 2 4 3 4 4 5 5 5 5 5 6 4 4 5 4 7 5 4 5 7 6 2 4 5 6 5
-10 -9 -15 -15 -13 -12 -8 -5 -6 -6 -8 -15 -10 -2 1 1 1 2 3 1 2 2 3 4 3 4 4 5 5 5 5 6 4 5 5 5 5 4 4 5 5 7 5 1 2 -0 2
-9 -9 -16 -15 -15 -10 -6 -5 -5 -6 -8 -16 -3 1 2 1 2 3 1 3 3 2 2 3 6 3 3 4 5 5 3 3 5 4 3 4 5 4 5 5 4 5 3 4 2 1 4
-6 -12 -15 -14 -14 -8 -5 -5 -5 -10 -10 -16 2 3 3 1 3 3 2 1 3 2 2 3 3 1 1 2 2 2 3 1 -0 0 1 3 4 6 5 6 7 5 6 4 2 1 2
-6 -14 -14 -14 -13 -7 -5 -5 -5 -14 -16 -16 1 2 2 3 3 3 2 2 1 1 2 3 1 1 0 0 1 3 3 1 -1 -1 2 1 4 6 6 4 4 4 5 3 4 4 0
-9 -13 -13 -15 -11 -5 -4 -4 -5 -14 -8 -2 2 2 2 3 3 2 2 3 2 1 0 0 0 -0 -1 0 2 1 2 0 -0 0 0 0 3 4 4 2 2 5 4 4 1 3 2
-10 -12 -13 -11 -4 -3 -3 -4 -5 -11 -7 -1 1 1 -0 2 2 3 3 3 4 1 1 -1 -1 -1 -1 -0 -0 2 2 1 -0 -1 -0 -1 2 2 3 2 2 3 3 1 2 3 2
-9 -10 -9 -4 -3 -3 -3 -4 -4 -6 -9 -7 -2 -0 -0 2 2 1 2 2 2 2 1 -1 -1 -1 -1 0 0 2 2 1 0 -2 -1 1 1 0 2 3 2 3 2 2 1 1 1
-9 -7 -4 -3 -4 -4 -3 -3 -5 -4 -10 -12 -1 -1 -2 -1 -0 1 2 2 2 2 1 1 1 -1 -0 2 1 1 1 1 1 -1 -0 1 2 1 2 1 1 1 1 2 1 1 1
-6 -4 -3 -3 -3 -3 -4 -4 -5 -4 -8 -7 -6 -4 -1 -2 -0 2 2 1 2 2 2 1 2 1 1 1 -1 -2 -2 -2 -1 -0 0 2 1 1 2 0 1 1 1 1 2 1 0
-3 -3 -3 -2 -3 -3 -4 -4 -4 -3 -4 -4 -4 -3 -3 -1 -3 -3 -4 0 1 2 3 2 3 1 0 -1 -1 -2 -2 -2 -2 -1 -1 1 1 1 1 1 3 -3 -2 -1 1 0 -0
-3 -3 -2 -1 -3 -3 -4 -4 -3 -3 -3 -4 -4 -5 -3 -3 -3 -4 -4 -0 1 1 3 3 3 0 1 0 1 1 2 1 1 0 -1 -1 1 2 3 1 -1 2 -1 -0 1 1 -1
-2 -3 -2 -1 -3 -3 -4 -3 -4 -3 -3 -3 -4 -3 -3 -3 -4 -4 -2 -1 1 3 4 4 2 2 2 2 2 3 3 2 3 3 -0 -1 -1 1 2 3 5 3 -1 -2 -0 4 -1
-2 -2 -2 -1 -3 -3 -3 -3 -7 -6 -3 -2 -4 -3 -3 -4 -5 -4 -4 -3 -0 1 3 3 3 2 2 2 4 2 2 -1 3 3 3 2 1 2 2 3 1 1 0 -0 6 4 -0
-1 -2 -2 -3 -3 -3 -4 -4 -5 -3 -3 -2 -3 -4 -3 -3 -4 -5 -5 -5 -4 -2 2 1 3 3 2 3 3 3 2 1 1 0 2 2 3 3 3 4 3 1 -0 4 3 2 2
1 -1 -2 -3 -3 -2 -4 -4 -6 -4 -2 -2 -2 -2 -2 -2 -4 -5 -5 -4 -4 -5 -4 -1 1 3 3 2 2 2 3 1 1 2 -1 1 -1 -0 1 1 -2 -2 1 2 2 2 2

GFSGBSN_850_dewp_066.txt.gz
Dewpoint
-9 -6 1 4 3 2 3 2 2 2 3 3 3 3 3 3 2 3 1 -1 1 1 -2 -1 -2 -2 -0 1 -0 -0 1 1 3 2 6 7 5 6 7 7 7 6 4 4 4 5 4
-9 -7 -1 4 2 0 3 2 1 2 3 3 3 3 2 -0 -1 -0 -0 1 1 -2 -2 -1 -0 -1 -1 1 -4 -1 1 1 4 3 6 6 6 6 6 6 6 6 4 3 4 3 4
-9 -9 -4 2 0 -1 3 3 1 2 3 3 3 2 1 -2 -2 -1 0 0 -2 -3 -2 -1 -3 -2 -1 -3 -2 0 -0 2 4 4 5 5 5 5 4 5 5 4 5 5 4 3 2
-10 -10 -10 -1 1 -0 3 2 1 1 3 3 3 2 1 -6 -4 -6 -6 -6 -3 -4 -4 -3 -1 -0 -1 -2 -1 -1 1 1 3 4 4 5 6 3 4 4 5 5 4 7 3 3 2
-10 -10 -11 -5 -1 1 3 0 -1 1 1 2 -0 1 0 -6 -5 -2 -1 -2 -6 -6 -5 -3 -0 -0 -3 -2 -1 -1 -0 -0 1 3 5 7 7 4 4 5 7 7 6 6 4 2 3
-10 -11 -12 -8 -5 -3 -3 1 2 2 1 1 1 -5 -2 -3 -3 -2 -0 -0 -3 -1 0 1 1 1 -2 -1 -2 -3 -2 -0 1 5 6 7 6 5 5 6 8 6 6 5 5 3 3
-10 -11 -12 -10 -7 -4 -5 0 0 2 1 -1 -1 -3 -3 -4 -1 -1 -3 -1 0 1 1 0 -0 -2 -1 -2 -4 -0 -1 0 0 3 6 7 7 6 5 5 4 5 4 5 3 1 3
-10 -11 -12 -11 -9 -5 -6 -6 -1 2 2 -3 -5 -2 -5 -2 -2 -3 -4 -1 -1 -1 -1 -3 -2 -1 -1 -2 -2 1 -0 0 1 4 5 7 6 3 4 4 4 5 4 4 1 1 2
-9 -10 -11 -11 -11 -7 -9 -8 -3 -0 -0 -10 -20 -4 -4 -2 -1 -1 -1 -3 -1 0 0 0 2 1 -0 -1 -0 2 1 2 2 4 4 6 4 3 4 5 6 4 5 3 2 1 -0
-7 -9 -11 -11 -12 -10 -9 -9 -6 -5 -5 -11 -22 -7 -4 -1 0 0 0 -3 -0 -0 2 3 2 1 2 1 2 2 1 3 3 4 3 6 3 4 5 5 4 5 0 1 2 3 5
-6 -8 -11 -12 -13 -10 -11 -9 -6 -6 -7 -8 -20 -8 -3 -0 -0 1 0 0 1 1 4 3 3 2 2 2 2 2 0 3 4 4 4 6 5 5 6 5 2 3 -1 1 2 3 2
-4 -7 -9 -13 -14 -11 -12 -7 -5 -6 -6 -8 -18 -6 -1 -0 1 1 1 1 2 -0 4 4 2 3 3 2 2 2 4 4 3 5 5 5 4 5 5 5 5 4 2 2 3 3 5
-4 -7 -7 -14 -13 -13 -11 -7 -5 -6 -7 -8 -17 -3 0 -0 1 2 1 1 -1 3 1 5 5 4 4 4 4 4 3 3 6 6 6 6 5 4 5 5 4 4 3 6 7 8 5
-3 -7 -7 -14 -12 -14 -9 -6 -6 -7 -8 -9 -14 -2 1 1 2 2 2 -1 0 1 3 3 4 4 5 5 5 5 5 6 4 3 5 6 7 5 4 5 6 6 2 4 5 6 4
-2 -5 -10 -12 -12 -13 -8 -5 -6 -7 -11 -13 -5 -1 1 1 2 2 2 -1 -1 -1 1 4 3 5 6 5 5 6 4 5 5 3 4 4 5 4 4 4 5 7 6 1 0 -0 2
-4 -4 -12 -11 -13 -11 -6 -5 -6 -9 -12 -14 -0 2 0 1 1 3 -1 2 1 1 2 3 5 2 5 6 5 4 4 4 5 4 2 3 5 4 4 4 5 6 3 4 1 2 4
-2 -7 -11 -11 -12 -8 -5 -5 -6 -10 -11 -11 2 3 2 3 3 2 -0 -0 2 2 2 3 4 1 2 2 4 3 3 0 1 4 2 2 2 5 5 6 7 6 6 3 2 0 2
-2 -9 -10 -11 -8 -4 -4 -5 -6 -10 -11 -5 1 0 2 4 2 2 1 2 1 1 2 2 3 1 1 0 1 3 3 1 -1 -0 4 3 3 6 5 4 4 4 5 2 4 2 -1
-5 -9 -9 -7 -4 -4 -5 -5 -6 -8 -9 -3 1 2 2 4 4 1 2 2 2 2 1 1 1 -0 -1 -0 2 2 2 0 0 -0 1 1 3 3 5 3 4 6 5 4 1 0 -0
-6 -8 -6 -4 -5 -5 -5 -5 -5 -7 -10 -3 -0 -2 -1 1 1 3 3 3 4 1 1 -1 -1 -2 -1 -0 -0 2 2 1 -0 -2 0 -0 2 1 2 2 2 4 5 3 3 2 3
-7 -5 -3 -4 -4 -5 -5 -5 -6 -7 -11 -5 -2 -1 -1 -0 1 0 1 2 2 3 1 -1 -0 -1 -0 0 1 2 2 1 0 -2 -0 -1 0 0 2 3 1 2 4 3 2 4 4
-6 -3 -3 -3 -3 -4 -5 -5 -5 -7 -14 -13 -2 -2 -3 -2 -1 0 2 2 3 3 1 2 1 2 -0 1 -0 2 1 1 1 -1 -0 0 2 -1 1 2 0 1 2 2 1 0 1
-3 -2 -3 -2 -3 -3 -5 -4 -4 -5 -9 -12 -8 -3 -2 -3 -2 1 0 -1 1 2 2 1 1 1 1 0 -1 -2 -1 -1 -1 -0 0 1 1 0 1 0 0 1 1 1 2 0 0
-2 -2 -3 -2 -3 -4 -5 -4 -4 -4 -4 -5 -6 -6 -3 -3 -3 -4 -4 -2 1 1 3 2 2 1 0 -0 -1 -1 -2 -2 -1 -1 -1 1 0 1 1 -0 1 -4 -2 -1 1 1 -0
-2 -2 -2 -2 -3 -4 -4 -4 -4 -3 -3 -4 -5 -7 -4 -4 -3 -4 -4 -3 -1 -0 2 2 3 1 1 -0 0 1 2 1 0 0 -1 -1 1 2 2 1 -1 -0 -0 -0 1 0 -1
-1 -2 -2 -2 -3 -4 -4 -3 -6 -6 -3 -3 -4 -5 -5 -4 -4 -5 -4 -2 -0 3 3 3 3 1 2 2 2 3 3 1 3 3 -0 -1 -1 0 1 3 4 1 -0 -2 -1 2 -1
-1 -2 -2 -3 -3 -4 -5 -4 -3 -2 -3 -2 -3 -4 -4 -4 -6 -4 -5 -5 -5 -0 1 3 2 2 2 2 3 3 2 -1 3 3 3 2 2 2 2 1 1 -2 0 -0 4 2 1
0 -1 -2 -3 -4 -3 -4 -4 -5 -2 -2 -2 -3 -2 -2 -3 -4 -5 -5 -5 -3 -4 -2 -0 3 3 2 4 4 3 2 1 1 0 2 2 3 3 2 3 2 0 1 3 2 2 0
1 0 -2 -2 -3 -3 -3 -4 -2 -2 -2 -2 -2 -2 -2 -2 -3 -4 -4 -4 -4 -4 -4 -3 -1 0 4 2 2 2 3 1 0 2 -1 1 -1 0 0 1 -3 -0 -1 1 2 2 2

GFSGBSN_850_dewp_069.txt.gz
Dewpoint
-7 -5 -4 -0 -1 2 3 3 1 2 2 2 2 3 3 4 1 1 -1 -2 -0 1 -1 -2 -3 -4 -2 1 -2 2 0 4 3 4 4 6 6 5 6 7 7 5 5 4 7 8 8
-9 -7 -4 -2 1 1 3 1 2 1 2 1 2 2 3 -0 -0 -1 0 1 1 -2 -2 -3 -1 -2 -1 1 -2 -3 -2 1 2 2 2 6 6 4 6 6 7 6 4 6 6 6 4
-9 -9 -8 -8 -2 1 2 2 1 1 1 2 2 2 3 -2 -7 -7 -7 -5 -2 -2 -2 -1 -3 -2 -2 -4 -2 1 -3 0 2 3 2 5 6 4 6 5 6 5 6 6 5 5 6
-8 -9 -10 -10 -3 -2 2 3 3 2 1 1 2 2 2 1 -6 -4 -4 -8 -3 -3 -2 -1 -0 -1 -3 -1 -2 -1 0 2 3 5 3 5 7 4 5 5 6 5 6 8 5 5 5
-7 -10 -10 -11 -5 -3 -2 2 3 2 2 0 1 -0 -2 -0 -3 -3 -2 -2 -7 -5 -6 -2 -0 0 -3 -1 -1 -1 0 -0 3 5 2 5 7 4 4 5 6 6 7 6 5 4 3
-5 -10 -9 -11 -9 -5 -2 -0 1 2 2 1 -4 -2 -3 -2 -2 -2 -2 -1 -3 -2 -0 0 1 1 -2 -2 -2 -2 -1 1 2 3 4 5 7 5 4 6 6 7 7 5 5 4 3
-3 -10 -9 -11 -10 -9 -1 -7 -2 2 2 1 -16 -11 -1 -3 -2 -1 -4 -0 0 1 1 -0 0 -1 -1 -1 -3 -2 -0 1 -0 3 5 6 6 4 5 5 4 4 4 5 3 2 4
0 -8 -8 -10 -10 -11 -6 -7 -3 1 2 0 -11 -19 -1 -3 -2 -2 -4 -2 -2 -1 -2 -1 -2 -1 -1 -2 -2 -0 0 -1 1 4 4 7 5 2 3 4 4 4 4 5 2 2 3
2 -7 -8 -9 -11 -12 -9 -11 -8 -1 0 -4 -9 -19 -4 -4 -1 -1 -1 -3 -2 0 0 1 1 1 -0 -1 -1 1 0 1 1 3 4 6 5 3 4 5 5 5 4 4 3 1 0
2 -5 -7 -8 -12 -12 -10 -12 -7 -3 -3 -5 -9 -17 -4 -2 0 0 0 -2 -1 -1 2 3 2 1 1 0 1 1 2 2 2 3 4 6 3 4 5 6 4 5 2 2 2 3 5
3 -3 -6 -6 -12 -12 -12 -11 -6 -5 -6 -7 -11 -14 -3 -1 -0 1 0 -0 0 1 1 3 3 2 1 2 2 1 1 2 2 3 3 6 5 5 5 5 2 3 1 1 2 3 2
2 -2 -5 -5 -12 -11 -12 -9 -5 -6 -7 -10 -12 -8 -2 0 1 1 1 0 1 -2 1 4 3 3 3 3 2 1 2 4 3 4 4 5 4 4 5 4 3 3 2 2 3 3 5
2 -2 -4 -6 -11 -10 -11 -7 -5 -6 -10 -11 -13 -3 0 0 2 2 1 1 -2 2 1 4 5 3 3 3 3 4 3 4 5 6 6 6 5 5 4 5 4 3 3 6 6 7 6
1 -1 -3 -9 -9 -11 -10 -5 -6 -7 -12 -11 -11 -2 1 2 2 2 1 -2 0 2 3 2 4 4 5 5 5 4 4 5 4 5 5 7 7 5 4 4 4 3 2 4 6 6 5
1 -2 -3 -9 -8 -10 -8 -5 -6 -7 -12 -11 -4 0 2 2 2 2 1 -2 -2 -2 0 3 3 6 4 4 5 5 6 6 4 4 4 5 6 4 5 4 4 5 6 -0 1 -0 2
0 -1 -6 -7 -7 -7 -5 -6 -7 -7 -11 -10 -1 2 2 2 2 3 -2 1 -1 -0 1 2 4 2 6 6 5 4 5 4 5 3 1 2 6 4 5 4 4 5 3 4 0 2 4
-0 -2 -7 -6 -5 -5 -6 -6 -6 -7 -11 -4 2 2 2 3 3 2 -1 -1 1 1 1 3 3 2 2 4 4 3 2 1 2 4 1 1 2 5 5 6 5 7 6 3 2 -0 2
-1 -4 -6 -4 -5 -7 -7 -7 -6 -7 -11 -5 1 -0 3 4 1 0 1 1 1 2 2 2 3 2 1 0 2 3 3 1 0 2 4 1 2 5 6 3 4 5 5 2 3 2 -1
-1 -5 -4 -3 -5 -6 -6 -7 -7 -7 -10 -7 0 1 1 3 1 1 1 2 2 2 1 1 1 -0 -1 -0 2 2 2 0 -0 0 2 2 3 5 5 4 4 6 5 3 1 -1 -0
-2 -6 -3 -3 -5 -6 -7 -7 -6 -8 -11 -5 -1 -2 -1 1 0 2 2 3 3 2 1 -1 -1 -2 -1 0 0 2 2 1 -1 -1 0 -0 1 1 2 1 3 6 6 4 2 2 2
-2 -4 -2 -3 -4 -6 -7 -6 -6 -9 -13 -5 -3 -1 -2 -2 0 0 1 2 2 2 1 -0 -0 0 -0 0 1 2 2 1 -1 -1 0 -1 2 0 2 2 1 2 4 5 2 3 3
-4 -3 -2 -3 -4 -6 -6 -6 -6 -7 -13 -11 -6 -4 -4 -3 -1 -0 0 2 3 3 2 2 1 2 0 -0 -1 2 1 1 0 -1 0 -1 1 -1 1 1 0 1 2 4 4 3 3
-4 -2 -2 -2 -4 -6 -6 -6 -5 -6 -7 -9 -10 -4 -2 -3 -3 0 -2 -1 2 2 2 2 2 1 1 0 -1 -2 -1 -1 -1 -1 0 -0 1 -1 -1 0 -0 -0 -0 2 3 0 1
-3 -2 -2 -3 -4 -5 -5 -5 -5 -5 -5 -6 -6 -6 -6 -4 -4 -4 -4 -3 -1 0 2 1 2 1 0 -0 -1 -1 -1 -1 -1 -1 -1 -0 -1 -0 1 -1 0 -3 -2 -2 1 1 -0
-2 -2 -2 -3 -4 -5 -5 -5 -5 -5 -4 -4 -6 -6 -6 -6 -4 -4 -4 -3 -1 -0 2 2 2 1 1 -0 0 1 1 0 0 -0 -1 -1 0 2 2 0 -1 -1 -0 -0 0 -0 -1
-1 -2 -2 -3 -4 -5 -5 -5 -4 -3 -3 -3 -4 -5 -5 -6 -6 -5 -4 -3 -1 0 2 3 3 2 2 1 1 2 2 1 3 3 -1 -1 -1 0 1 3 3 -1 -0 -2 -2 2 -0
-1 -1 -2 -3 -4 -4 -5 -5 -6 -4 -2 -2 -3 -2 -3 -4 -6 -5 -6 -6 -6 -1 -1 0 1 2 2 3 3 2 2 -0 3 3 3 2 2 1 2 1 0 -2 -1 -1 2 0 2
-1 -1 -2 -3 -4 -4 -4 -5 -4 -4 -3 -3 -3 -2 -2 -3 -4 -5 -5 -5 -4 -4 -3 -1 1 3 2 4 4 3 1 0 1 0 1 1 3 3 1 2 1 -1 0 2 0 2 1
0 -0 -2 -2 -3 -4 -4 -5 -4 -4 -3 -3 -5 -3 -2 -2 -2 -4 -4 -5 -5 -5 -5 -4 -1 -1 1 3 2 2 3 1 0 2 -1 1 -1 1 0 0 -4 -2 0 -0 2 2 2

GFSGBSN_850_dewp_072.txt.gz
Dewpoint
-7 -4 -5 -2 3 3 3 3 1 -0 0 3 2 2 2 2 1 -4 2 0 1 0 -1 -2 -2 -3 -1 -1 -4 1 1 4 3 5 4 6 6 5 6 7 7 6 5 7 6 7 8
-6 -7 -7 -3 1 3 3 2 3 1 1 1 2 2 2 2 -1 -6 -7 -0 -2 -3 -3 -3 -1 -1 -1 -0 -3 -2 -2 2 3 3 3 4 5 4 5 7 7 6 5 5 8 8 6
-3 -6 -8 -9 -5 2 0 1 2 3 2 2 1 2 2 2 0 1 -2 -6 -1 -3 -2 -3 -4 -3 -2 -3 -2 -1 -3 -0 1 2 2 2 6 4 6 6 6 5 8 7 8 7 7
-1 -5 -9 -8 -9 -4 2 1 3 2 2 3 2 2 2 1 1 -1 -1 -1 -4 -4 -2 -1 -0 -2 -4 -2 -1 -2 -1 -1 1 2 1 3 6 4 5 5 6 6 6 8 6 6 7
1 -4 -8 -8 -9 -8 0 3 2 1 2 2 2 0 2 2 0 0 -2 -1 -6 -6 -5 -3 -2 -2 -4 -1 -1 -2 -0 -1 1 1 1 4 5 5 5 6 6 6 8 6 7 5 7
2 -1 -7 -6 -9 -9 -3 2 0 2 2 2 2 1 1 1 -1 0 -2 -1 -3 -5 -1 -0 -1 -1 -2 -1 -2 -2 1 -0 3 4 3 5 5 5 4 5 7 7 6 6 7 6 7
3 2 -5 -5 -8 -9 -10 2 2 2 2 2 2 1 -2 1 -1 -1 -3 1 -1 1 1 0 0 -1 -1 -2 -3 -0 0 0 2 4 4 3 5 5 5 4 3 4 4 5 3 4 5
4 3 -3 -5 -6 -9 -11 -1 -1 2 2 1 1 -0 -6 1 -2 -1 -4 -1 -2 -2 -2 -0 -1 -1 -1 -2 -2 0 1 1 2 3 3 6 5 3 4 4 3 4 4 4 3 3 4
5 3 -2 -4 -6 -9 -11 -10 -1 1 1 -3 -1 -3 -12 -2 -1 -1 -2 -4 -2 -1 -0 1 0 1 -0 -1 -1 1 1 1 2 3 4 5 5 3 4 5 5 4 4 4 4 3 1
5 4 -0 -4 -5 -10 -11 -11 -4 0 -1 -3 -8 -9 -8 -2 0 0 0 -2 -2 -1 1 2 1 0 1 0 0 0 1 1 1 3 4 6 4 4 5 6 4 6 2 2 3 4 7
5 4 -0 -3 -4 -11 -10 -11 -5 -1 -4 -10 -11 -12 -4 -1 0 0 0 -1 0 -0 3 3 2 2 1 2 1 1 1 1 2 3 3 6 5 6 6 5 2 4 1 2 2 2 2
5 4 -0 -3 -4 -10 -10 -10 -5 -5 -7 -12 -10 -11 -2 0 1 1 0 -0 1 -3 1 3 3 3 1 1 1 1 2 4 3 3 3 4 3 4 4 3 3 1 2 2 3 3 6
5 3 -0 -3 -7 -9 -10 -8 -5 -6 -8 -10 -11 -4 0 1 2 1 0 1 -3 0 -0 4 3 2 3 4 2 2 3 3 4 5 5 6 6 5 3 5 4 1 3 5 6 5 6
4 2 -1 -3 -8 -8 -9 -5 -7 -7 -9 -9 -10 -1 1 2 2 1 1 -2 1 1 2 3 4 4 5 4 4 3 3 4 4 3 5 7 7 5 4 3 4 3 2 3 5 6 5
4 1 -1 -4 -7 -6 -5 -7 -7 -7 -10 -9 -3 1 2 2 2 2 1 -3 -1 -2 0 3 3 3 4 5 5 4 4 4 4 4 5 5 6 4 5 4 3 5 6 -1 0 -0 1
3 0 -1 -5 -5 -5 -6 -7 -8 -7 -10 -7 -0 2 2 2 2 2 -2 0 -2 -2 1 2 4 3 5 4 5 5 5 4 5 4 0 2 6 4 4 4 4 4 1 4 0 2 4
3 0 -2 -6 -4 -5 -7 -7 -7 -7 -9 -7 1 2 2 3 2 2 -2 -1 0 1 1 3 3 2 3 5 4 3 2 2 3 3 0 1 3 6 4 5 5 6 5 3 1 0 3
3 -0 -3 -4 -3 -5 -7 -7 -7 -8 -9 -8 1 -1 3 3 1 -0 0 1 1 2 2 2 2 2 1 1 2 2 2 1 2 2 3 1 2 5 5 3 3 4 5 2 2 2 -1
3 -1 -5 -3 -3 -6 -7 -7 -7 -8 -10 -9 -0 1 1 3 -0 0 1 2 2 2 2 2 0 -1 -1 0 3 2 1 0 0 2 2 1 2 5 5 3 3 5 5 3 0 -0 -1
2 -1 -5 -2 -3 -6 -7 -7 -7 -8 -12 -8 -2 -2 -1 1 0 1 1 2 3 2 1 -0 -1 -2 -1 0 1 2 2 1 -1 -0 0 -0 1 1 2 1 3 5 5 5 3 6 3
0 -2 -4 -2 -4 -6 -7 -6 -7 -8 -11 -8 -5 -2 -2 -2 -1 -0 1 2 3 3 0 -0 -1 1 -0 1 1 2 1 1 -1 0 -0 -1 2 0 0 2 1 3 4 5 6 4 5
-0 -3 -3 -2 -4 -6 -6 -6 -8 -9 -10 -12 -7 -5 -4 -4 -2 -0 -0 0 3 2 2 2 2 2 0 -0 -1 1 1 1 0 -1 0 -1 1 -0 1 1 1 2 2 4 4 4 4
-0 -4 -2 -2 -4 -6 -6 -6 -8 -13 -13 -10 -8 -5 -3 -3 -4 -0 -2 -2 1 1 2 2 2 1 1 1 -0 -1 -1 -1 -1 -1 0 -1 0 -0 0 0 -0 0 0 1 3 3 4
-0 -4 -2 -3 -4 -6 -6 -6 -8 -11 -9 -11 -8 -8 -8 -5 -4 -4 -4 -4 -2 -1 1 1 2 1 0 0 -1 -1 -1 -1 -1 -1 -1 -1 -1 -1 0 -1 1 -3 -3 -2 1 2 1
-3 -2 -2 -3 -5 -6 -5 -6 -7 -9 -8 -7 -7 -7 -7 -7 -4 -5 -5 -3 -2 -0 1 2 3 2 2 -1 -0 1 0 0 0 -0 -1 -2 -0 1 1 -0 -1 -2 -1 -0 -0 -0 -1
-3 -2 -2 -3 -5 -6 -6 -6 -7 -6 -6 -6 -5 -5 -5 -8 -7 -5 -5 -4 -2 -1 -0 2 3 2 2 1 1 2 2 1 2 2 -1 -1 -1 -0 1 2 2 -4 0 -2 -2 2 -2
-2 -2 -2 -3 -5 -5 -5 -5 -5 -6 -5 -5 -4 -3 -4 -5 -6 -5 -6 -6 -6 -2 -2 -1 1 1 2 2 3 4 2 -1 2 3 2 2 2 3 2 2 1 -3 -3 -1 2 -0 1
-1 -1 -2 -3 -4 -4 -5 -5 -4 -6 -5 -6 -6 -3 -3 -4 -4 -5 -5 -6 -6 -5 -4 -3 -0 2 3 4 4 2 1 -0 0 -0 1 2 2 3 1 3 2 -4 0 1 -1 2 2
-1 -1 -2 -3 -4 -4 -5 -5 -5 -6 -5 -7 -5 -4 -3 -3 -3 -4 -4 -5 -5 -5 -5 -5 -1 -1 0 3 3 2 2 1 -0 1 -1 1 -1 1 0 0 -4 -3 0 -1 -0 2 2

GFSGBSN_850_dewp_075.txt.gz
Dewpoint
3 -4 -6 -7 -5 4 -1 4 3 3 3 2 1 3 2 1 2 -2 -8 0 -1 -3 -2 -2 -2 -3 -3 -3 -4 -1 -0 3 3 4 5 4 6 4 6 6 7 6 6 6 7 7 7
4 -1 -5 -7 -6 -1 -1 2 3 3 3 3 3 2 2 1 1 -1 0 -6 -0 -3 -3 -2 -1 -2 -2 -2 -3 -1 -1 3 4 3 5 5 6 4 5 6 7 6 5 7 8 8 6
4 1 -2 -7 -7 -4 -4 2 1 1 3 2 2 2 1 2 1 1 -1 1 -4 -3 -2 -3 -2 -3 -3 -3 -1 -3 -0 -0 2 3 3 4 5 4 5 6 6 6 7 8 8 8 8
5 3 0 -5 -7 -7 -2 0 2 2 3 2 2 2 1 1 2 0 -0 -2 -2 -4 -3 -2 -1 -3 -4 -1 -2 -2 -0 0 2 3 2 2 5 5 5 6 6 6 6 8 7 7 8
5 3 2 -3 -6 -8 -5 0 3 2 2 2 2 2 2 -0 2 -0 1 -3 -3 -6 -6 -4 -3 -3 -3 -1 -2 -3 -1 -1 1 2 1 1 4 5 5 6 7 6 8 7 8 6 7
6 4 2 -1 -5 -7 -7 -5 2 -1 2 2 2 2 2 -5 1 1 0 -3 -2 -5 -3 -2 -1 -3 -1 -1 -2 -4 -0 -0 1 1 2 3 4 6 5 6 6 7 7 6 6 7 7
7 5 3 0 -4 -6 -7 -6 0 1 1 2 2 2 1 -5 1 -1 -1 -1 -1 -0 -0 -1 -0 -1 -1 -2 -3 0 1 0 1 3 4 3 5 6 5 4 3 4 5 5 6 6 6
7 5 4 2 -3 -5 -6 -8 -2 0 1 2 2 2 -1 -5 1 -1 -3 -1 -2 -3 -2 -1 -0 -1 -1 -1 -1 1 -0 1 2 3 3 4 5 3 4 4 3 4 5 5 3 5 5
8 6 4 3 -2 -5 -7 -9 -8 -3 1 1 2 0 -8 1 -2 -1 -2 -4 -3 -2 -1 1 0 -1 -0 -1 -0 1 2 1 2 3 4 4 5 3 4 5 4 4 4 4 4 5 3
8 6 5 2 -2 -4 -7 -9 -9 -3 -5 -2 -1 -6 -10 -1 0 -0 0 -2 -2 -1 -1 1 0 -0 -0 -1 0 1 1 0 1 4 4 5 5 4 5 5 3 5 2 3 4 6 7
9 6 5 2 -1 -3 -8 -9 -8 -5 -6 -7 -9 -7 -6 -1 0 -0 -0 -1 -1 -1 0 3 1 0 0 1 1 0 2 1 2 3 4 6 5 5 5 5 3 4 1 2 2 3 3
9 6 4 1 -2 -3 -8 -7 -5 -6 -7 -10 -8 -9 -1 0 1 0 -0 -0 1 -3 1 3 3 2 0 1 1 1 1 3 2 3 3 4 4 5 4 4 2 1 2 3 3 4 8
8 6 4 1 -2 -5 -6 -6 -7 -7 -7 -9 -9 -1 -0 1 1 0 -0 1 -2 0 -1 4 3 3 1 1 1 1 3 3 2 5 5 6 6 5 4 5 3 1 3 7 7 7 6
7 6 4 1 -2 -6 -5 -6 -7 -7 -7 -9 -3 1 1 2 1 0 1 -2 -1 1 3 3 4 3 4 3 4 2 3 3 2 4 6 6 7 6 3 4 4 2 2 4 6 6 5
7 7 3 0 -2 -5 -4 -6 -8 -7 -8 -7 -0 1 2 2 2 1 -0 -3 -2 -3 -1 3 3 5 6 3 3 4 3 4 3 3 5 6 6 5 5 4 3 4 5 -1 1 -0 3
7 6 2 -0 -3 -4 -4 -7 -8 -7 -8 -5 1 2 2 2 2 2 -2 0 -2 -3 0 2 4 3 5 4 5 5 5 3 4 3 3 3 7 4 4 3 4 3 1 4 2 4 4
7 5 2 -0 -4 -3 -5 -7 -7 -7 -9 -5 1 2 3 2 2 2 -2 -0 0 0 1 3 3 2 3 5 3 3 3 3 3 3 0 1 4 6 4 5 5 5 4 2 1 0 3
6 4 2 -1 -4 -3 -6 -7 -7 -8 -10 -4 2 -0 3 3 2 -0 0 0 1 2 1 2 2 2 1 1 2 2 2 1 2 1 2 0 3 6 6 3 3 4 4 1 4 3 -1
6 3 2 -2 -3 -3 -6 -7 -7 -8 -11 -6 0 2 1 2 -0 -0 0 2 2 2 1 2 0 -1 -1 0 2 2 1 0 2 1 2 1 2 5 5 3 2 5 5 1 -0 -0 1
6 3 1 -3 -2 -4 -6 -7 -7 -8 -11 -8 -3 -2 -1 1 -0 1 1 2 3 1 1 -0 -1 -2 -1 1 0 2 2 0 -0 -0 1 -1 1 1 2 1 2 5 5 3 3 5 3
5 3 -0 -3 -2 -4 -7 -7 -8 -9 -11 -9 -6 -3 -2 -3 -1 -1 0 1 2 3 1 0 -0 1 0 1 1 2 1 0 -1 1 -1 -1 1 -1 -0 0 2 3 4 4 4 4 4
4 2 -1 -3 -2 -4 -7 -7 -8 -13 -11 -11 -8 -5 -5 -4 -2 -1 -1 1 2 2 2 2 2 2 -0 0 -0 1 1 0 0 -1 -0 -2 1 0 1 2 1 2 2 3 4 4 3
4 1 -2 -2 -2 -5 -6 -7 -10 -13 -14 -13 -9 -7 -5 -4 -4 -1 -3 -2 1 0 2 1 2 1 1 1 -0 -1 -1 -1 -2 -1 -0 -1 -0 0 1 0 -0 1 0 1 3 3 3
4 1 -3 -2 -3 -6 -6 -7 -9 -12 -11 -13 -14 -11 -9 -5 -4 -4 -4 -4 -2 -2 0 0 2 0 1 1 -1 -1 -1 -1 -2 -1 -2 -1 -2 -1 -0 -1 2 -2 -3 -2 -0 0 2
3 0 -3 -2 -4 -6 -6 -7 -7 -12 -10 -9 -9 -10 -12 -5 -6 -5 -5 -3 -3 -1 0 2 3 3 2 -0 -1 -0 -0 -0 -0 -1 -1 -3 -1 1 1 0 -1 -2 -1 -1 0 -0 -1
2 -1 -2 -2 -4 -6 -6 -6 -7 -8 -10 -7 -8 -8 -11 -10 -6 -6 -5 -5 -4 -2 -2 1 1 2 2 1 1 1 1 0 1 2 -1 -2 -2 -0 1 2 1 -6 -0 -2 -2 2 -2
1 -2 -2 -3 -5 -6 -6 -6 -6 -8 -8 -7 -5 -5 -8 -7 -6 -6 -7 -7 -5 -3 -3 -1 -2 1 2 2 3 3 1 -1 2 2 2 1 2 3 2 3 1 -3 -4 -2 2 -0 -0
1 -2 -2 -3 -5 -5 -6 -6 -8 -9 -8 -7 -4 -4 -5 -6 -5 -6 -6 -7 -6 -5 -5 -4 -1 1 3 3 2 3 1 -0 -0 -1 0 1 2 2 2 4 3 -4 -0 2 -2 0 2
-1 -2 -2 -3 -5 -5 -6 -6 -8 -7 -7 -5 -4 -4 -5 -4 -4 -4 -4 -4 -5 -5 -5 -5 -1 -2 -0 2 3 3 2 0 -0 1 -2 1 -1 1 -0 0 -4 -4 -0 -1 -0 0 2

GFSGBSN_850_dewp_078.txt.gz
Dewpoint
4 3 -2 -4 -6 -5 -6 1 3 3 3 2 3 2 1 2 2 2 1 -6 1 -2 -4 -4 -4 -5 -3 -1 -3 -3 -1 1 3 3 3 6 5 3 3 4 6 7 5 5 5 7 7
5 4 1 -2 -6 -5 -5 -5 3 3 2 2 2 2 2 1 2 1 -1 1 -3 -3 -3 -3 -4 -3 -2 -3 -3 -1 -1 1 4 4 2 5 6 2 2 3 5 5 5 5 7 7 7
7 5 3 -0 -5 -6 -6 -3 0 1 2 2 2 2 2 1 2 1 0 -1 1 -4 -2 -3 -3 -4 -3 -2 -1 -1 0 0 3 4 4 5 6 4 2 3 4 5 6 6 6 7 7
8 6 4 1 -2 -5 -6 -4 -3 1 2 2 2 2 2 2 1 2 0 1 -1 -5 -3 -2 -2 -5 -3 -1 -2 -1 0 -0 2 3 3 4 5 5 3 5 4 4 4 8 5 7 7
9 8 5 3 1 -4 -5 -4 -6 -0 1 2 2 2 2 2 0 2 -0 0 -2 -6 -5 -5 -3 -3 -3 -1 -1 -3 -0 1 -1 2 2 3 5 5 5 4 5 5 4 4 6 5 7
8 8 5 4 2 -3 -5 -4 -7 -3 2 1 2 1 2 2 -1 2 1 -1 -1 -4 -4 -3 -2 -2 -1 -1 -2 -2 0 0 2 2 3 4 4 5 3 4 5 5 4 4 5 7 6
9 9 6 5 3 -1 -4 -4 -8 -6 1 2 2 1 1 1 1 2 1 -2 0 1 1 -1 -0 -1 -0 -3 -3 0 1 1 1 2 4 4 5 6 3 0 -1 2 3 4 4 6 6
9 9 6 5 4 1 -3 -4 -8 -7 0 2 2 1 -1 -1 2 1 -2 -0 -2 -3 -2 -1 -1 -1 -2 -2 -1 2 0 1 2 3 3 5 6 4 2 1 1 2 3 3 3 4 5
9 8 7 6 4 1 -2 -5 -8 -8 0 1 2 -1 -3 1 0 -1 -2 -4 -3 -3 -1 1 0 1 0 -1 -0 1 1 1 2 1 4 5 5 3 3 3 2 2 2 3 3 5 4
9 9 8 6 5 1 -2 -6 -8 -6 -3 -1 -1 -6 -7 1 1 -0 -0 -3 -2 -2 3 2 0 0 1 0 -0 1 1 1 2 3 4 4 4 4 4 2 1 4 1 2 4 5 4
9 9 8 6 5 0 -2 -6 -6 -6 -5 -4 -8 -8 -6 0 0 0 -0 -1 -2 -2 4 2 1 0 0 1 0 2 2 2 4 4 4 6 5 5 4 2 1 1 2 2 2 2 3
9 9 8 6 4 -0 -2 -5 -5 -7 -7 -8 -8 -7 -1 0 1 -0 -1 -1 -0 3 5 3 2 0 -1 -0 0 1 2 3 3 3 4 5 4 4 2 3 2 1 2 2 3 4 6
9 9 8 6 3 -1 -2 -5 -5 -8 -7 -9 -6 -1 1 1 1 -0 -1 1 4 5 1 4 3 1 0 -0 -0 1 3 2 3 6 6 6 5 5 4 4 1 2 3 7 7 7 4
9 9 8 6 3 -1 -3 -4 -6 -8 -8 -7 -0 1 2 1 1 -0 0 0 6 3 5 3 3 1 2 1 2 2 1 3 2 5 7 7 7 5 4 4 4 3 1 4 4 4 2
9 9 8 6 2 -1 -4 -3 -7 -8 -8 -4 1 1 2 1 1 0 0 5 4 3 2 4 4 5 5 3 2 2 2 2 2 3 5 6 6 5 4 4 3 4 5 -1 3 1 3
9 8 8 6 1 -1 -3 -4 -7 -8 -8 -4 2 2 2 2 2 1 1 3 3 -2 1 2 4 3 2 3 3 4 3 2 4 2 2 4 7 5 4 4 3 3 -0 4 5 6 3
9 8 7 5 1 -3 -3 -5 -7 -8 -9 -2 2 3 2 2 2 1 4 3 1 -0 1 3 3 4 4 5 3 4 3 3 3 3 3 2 4 6 4 5 4 4 4 3 1 1 1
9 8 7 4 1 -3 -3 -6 -7 -8 -10 -0 1 4 3 2 2 1 2 1 1 2 1 2 2 1 2 3 2 2 3 2 3 2 3 1 3 7 7 3 3 3 3 2 4 4 2
9 8 6 3 0 -3 -3 -6 -7 -8 -11 -1 2 2 2 2 4 3 1 2 2 2 2 2 1 -1 -1 1 3 2 1 0 3 1 1 0 3 6 6 3 2 4 4 2 1 3 5
9 8 6 3 -1 -3 -4 -7 -7 -9 -10 -4 -0 2 -0 2 0 2 2 2 3 2 1 -0 -0 -1 -1 1 0 2 2 0 2 1 1 -1 1 2 4 3 2 4 3 3 4 7 3
9 8 5 2 -2 -3 -4 -7 -8 -10 -10 -6 -5 -0 -0 3 0 0 1 2 2 3 1 0 0 1 -0 1 1 2 1 -0 -0 1 -0 0 5 1 -0 -1 3 4 4 4 6 4 5
9 7 4 1 -3 -3 -6 -7 -8 -15 -12 -8 -5 -4 -5 -3 -2 0 -0 2 3 2 2 2 2 1 -1 0 -0 1 1 0 1 -1 0 -1 4 3 4 2 2 3 2 2 3 3 3
8 7 4 -0 -3 -3 -6 -7 -11 -12 -13 -11 -10 -8 -4 -3 -2 1 -1 -1 1 0 2 1 2 1 1 1 -0 -1 -1 -1 -1 -0 0 0 2 2 3 0 1 2 1 1 1 2 2
8 6 3 -1 -2 -4 -6 -7 -12 -11 -11 -14 -15 -9 -4 -3 -2 -2 -3 -3 -1 -2 1 0 3 1 2 2 -0 -1 -1 -1 -1 -1 -2 -0 0 0 2 0 3 -2 -3 -3 -1 -1 -1
8 5 2 -2 -2 -5 -6 -7 -12 -12 -10 -9 -13 -16 -10 -4 -5 -5 -5 -4 -3 -2 0 1 3 2 2 0 -0 0 0 1 0 -1 -1 -3 -1 2 2 1 -1 -3 -1 -1 -1 -2 -2
8 6 2 -2 -3 -5 -7 -7 -9 -14 -9 -8 -8 -16 -16 -10 -10 -6 -6 -5 -4 -2 -2 -0 1 1 2 1 1 1 2 0 1 2 -1 -2 -2 0 2 3 1 -4 -0 -2 -2 1 -1
8 6 1 -2 -3 -6 -7 -7 -11 -14 -9 -7 -6 -10 -9 -7 -6 -8 -7 -7 -6 -3 -2 -2 -3 1 2 2 3 1 -1 -1 0 2 2 2 2 3 2 2 -1 -3 -3 -2 1 -0 -0
8 4 0 -2 -4 -6 -7 -7 -14 -12 -9 -7 -5 -8 -8 -6 -6 -7 -7 -6 -5 -6 -5 -4 -1 1 2 3 3 2 0 -1 -0 -1 1 1 2 2 2 3 2 -3 -1 0 -2 -0 1
7 3 -2 -2 -5 -6 -7 -9 -13 -11 -8 -5 -5 -6 -5 -5 -5 -5 -4 -4 -5 -5 -4 -5 -1 -1 -0 3 3 2 2 0 -0 1 -1 1 -1 -0 -0 -1 -3 -3 -1 -1 -1 0 1

GFSGBSN_850_dewp_081.txt.gz
Dewpoint
7 5 5 2 -0 -4 -5 -4 -4 1 1 2 2 2 2 2 1 2 1 2 -2 -3 -5 -4 -4 -5 -0 -1 -3 -2 -1 2 3 1 4 6 6 4 3 2 2 5 2 2 5 5 5
9 7 5 4 2 -1 -4 -4 -3 -3 -0 2 2 2 1 2 0 2 1 -0 2 -4 -3 -5 -5 -4 0 -3 -2 -1 -0 2 4 3 3 4 6 3 1 1 1 3 3 2 6 5 5
9 9 7 5 3 1 -3 -4 -4 -3 2 1 2 2 1 2 1 2 1 1 -1 -2 -3 -4 -6 -2 -0 -3 -1 -0 1 2 2 4 5 4 4 6 0 1 3 2 5 5 6 6 6
9 9 8 6 4 3 -1 -3 -4 -4 -0 2 2 2 1 2 2 1 2 1 2 -2 -5 -3 -4 0 -3 -1 -0 -0 -0 2 0 2 5 4 3 5 2 -0 3 5 4 7 6 5 6
10 9 8 7 5 4 1 -2 -4 -6 0 2 1 2 1 2 2 1 2 1 -2 -3 -6 -6 -1 -0 -5 -1 -1 -1 1 0 2 1 3 3 3 6 3 3 6 5 6 4 5 5 7
10 10 9 8 6 5 2 -1 -3 -7 -3 1 2 2 1 1 1 1 1 1 -0 -4 -2 -0 0 -0 -3 -2 -1 -3 1 1 2 -0 3 3 4 5 4 3 5 4 1 2 5 6 6
9 10 9 9 6 5 3 -1 -3 -7 -7 1 2 2 1 1 1 2 2 2 1 2 1 -1 -2 -2 -2 -1 -1 1 1 1 1 1 4 3 5 6 3 -1 -4 -3 -1 -1 -1 2 5
9 10 9 9 6 5 4 -1 -3 -7 -6 1 0 1 1 1 2 2 2 1 -0 -1 -1 -1 -0 -1 -1 -1 -3 1 0 0 -0 3 4 5 6 5 0 -2 1 -0 3 3 3 3 4
10 10 9 8 7 5 4 -1 -3 -6 -6 -1 0 -0 -0 0 1 1 2 -0 -4 -5 -1 0 0 -0 -0 0 -1 -1 1 1 1 3 4 6 5 3 2 1 3 1 1 2 3 3 3
11 10 9 9 8 5 3 -1 -4 -5 -6 -7 -5 -6 -3 0 2 2 1 -2 -3 -0 4 2 -0 0 0 -0 2 2 0 2 2 3 4 3 4 4 3 0 -2 1 -2 0 3 5 5
10 9 9 9 8 5 2 -1 -4 -5 -7 -7 -8 -8 -7 -0 3 2 2 -2 -3 -0 5 2 1 1 0 0 0 2 2 3 3 2 4 6 5 5 3 0 -2 -1 -1 0 2 3 -0
10 9 9 9 8 6 2 -1 -4 -5 -8 -8 -8 -6 -1 0 1 1 -0 -0 2 3 5 3 2 -1 -2 -1 -1 2 3 3 3 4 4 5 4 4 3 0 0 1 1 1 0 1 5
10 9 9 9 8 5 1 -2 -4 -6 -8 -8 -3 -1 1 1 2 -0 -0 2 4 5 1 4 2 -1 -2 -0 -0 3 4 4 4 5 6 5 5 4 4 3 2 0 2 6 6 6 4
10 10 9 9 8 6 1 -3 -4 -7 -8 -7 0 1 1 1 0 -1 2 1 6 4 5 3 1 0 1 0 0 1 2 2 3 4 6 7 7 6 3 3 4 1 0 3 3 3 1
9 10 9 8 8 6 0 -4 -4 -7 -8 -4 1 2 2 1 0 0 2 5 5 5 3 4 3 4 3 2 1 -0 1 1 2 3 4 5 7 4 4 3 3 3 4 -0 3 1 2
9 10 8 9 8 5 -0 -3 -5 -8 -8 -3 3 3 2 1 1 1 2 4 4 0 1 2 4 3 1 1 1 2 1 0 3 2 2 3 7 5 3 4 2 3 -0 2 5 5 1
9 9 8 8 7 3 -1 -3 -6 -7 -9 -3 3 3 1 2 2 2 5 3 2 0 1 3 2 3 -1 1 0 1 0 2 3 3 2 2 3 6 3 7 5 4 4 2 1 2 1
10 9 9 8 7 2 -2 -3 -6 -7 -10 -1 3 3 2 2 3 1 2 1 1 2 1 2 2 1 2 2 2 1 1 2 3 2 2 1 3 7 5 3 2 3 2 1 5 3 1
10 9 9 8 6 1 -3 -3 -7 -8 -10 0 2 2 2 2 3 3 1 2 1 2 1 1 1 -0 -1 1 2 1 1 1 3 1 3 0 4 7 6 4 2 3 2 2 1 4 6
10 9 9 8 5 1 -3 -4 -7 -8 -10 -0 1 2 2 2 2 2 2 2 2 1 0 -0 -1 -1 -0 0 0 2 2 1 2 1 1 -0 2 3 5 4 2 4 2 2 4 8 3
9 9 9 7 4 -0 -3 -4 -7 -9 -10 -3 -2 0 1 3 1 1 1 1 2 2 0 -0 0 -0 -1 1 1 1 1 1 1 2 0 1 5 3 1 -1 4 4 3 2 5 4 5
9 9 9 7 4 -1 -3 -6 -7 -10 -10 -6 -4 -4 -2 -1 -0 0 1 2 1 2 1 1 1 -0 -1 -0 0 1 1 1 1 1 1 -0 5 3 4 1 1 3 1 1 2 2 3
9 9 8 7 3 -2 -3 -7 -7 -14 -12 -7 -9 -7 -4 -2 -1 -0 -0 1 2 1 2 2 1 -0 1 2 -1 -1 -1 -1 -1 0 1 1 2 3 3 -0 -0 2 0 1 0 0 1
9 8 7 6 2 -2 -4 -7 -8 -12 -13 -13 -13 -6 -5 -5 -3 -1 -2 -1 0 0 2 1 2 0 2 2 1 -1 -1 -2 -2 -1 -1 0 1 1 3 0 3 -2 -4 -3 -2 -2 -2
9 8 7 5 0 -2 -5 -7 -9 -11 -11 -12 -14 -11 -6 -4 -4 -3 -3 -2 -2 -1 0 1 3 2 2 1 -0 0 1 0 -0 -1 -1 -2 -1 1 2 1 -2 -4 -4 -2 -2 -3 -4
8 8 7 5 -0 -2 -5 -6 -8 -12 -9 -9 -14 -17 -8 -6 -5 -4 -4 -4 -2 -1 -1 0 1 1 3 0 1 2 2 -0 1 1 -1 -1 -1 1 1 2 1 -3 -1 -2 -2 -0 -1
8 8 7 4 -0 -3 -5 -6 -8 -12 -8 -8 -10 -17 -7 -9 -6 -7 -8 -6 -6 -3 -2 -1 -2 2 3 1 2 1 -1 -2 -0 0 2 2 1 2 2 2 -1 -5 -2 -2 1 1 -1
8 7 6 3 0 -4 -5 -6 -12 -12 -9 -8 -9 -9 -5 -6 -5 -5 -6 -6 -6 -6 -4 -3 -1 1 1 2 2 1 -1 -2 -2 -3 -1 -0 1 1 0 2 2 -2 -2 -2 -2 -1 -1
7 7 6 3 -1 -5 -6 -7 -16 -10 -8 -6 -8 -7 -5 -3 -4 -4 -3 -4 -5 -4 -5 -3 -0 1 1 2 2 2 1 -1 -2 -1 -2 0 -3 -2 -2 -1 -3 -3 -4 -2 -2 -1 -1

GFSGBSN_850_dewp_084.txt.gz
Dewpoint
9 9 9 8 5 3 0 -3 -3 -3 -6 -1 2 2 2 1 2 -1 2 1 1 -4 -5 -4 -3 -4 -1 1 -1 -2 -1 -0 1 3 4 4 4 5 5 3 3 6 6 6 6 8 6
9 9 9 8 7 5 2 -1 -3 -3 -5 1 1 2 2 2 2 1 2 1 1 0 -5 -5 -5 -5 2 -0 -2 -1 -1 1 0 3 4 4 5 4 5 1 2 4 4 5 6 6 9
10 10 9 9 8 6 4 1 -2 -3 -4 -1 2 1 2 1 2 2 0 1 2 0 -4 -5 -6 -2 0 -1 -2 -1 -0 1 -1 2 3 4 5 5 6 3 0 1 4 4 8 7 8
10 10 10 9 8 7 5 3 -1 -3 -4 -4 1 1 2 2 2 2 -0 1 1 1 -4 -5 -4 -1 -0 -3 -5 -2 -0 1 0 -1 3 4 4 3 5 3 1 5 4 6 6 7 7
10 10 10 10 9 8 6 4 -0 -3 -4 -6 -1 1 2 1 1 1 1 0 0 -4 -6 -7 -3 1 -2 -2 -1 -2 -0 0 2 -0 2 4 3 4 5 6 6 6 7 6 6 5 6
9 10 10 10 9 9 6 4 1 -3 -5 -7 -2 2 2 1 1 2 2 1 -0 -3 0 1 0 -1 -0 -1 -1 -3 0 1 2 1 2 3 3 3 5 5 7 6 6 5 5 7 8
8 9 10 10 10 9 7 5 1 -3 -6 -6 -2 1 2 1 1 2 1 1 2 2 1 -0 -2 -3 -3 -2 -3 -1 -0 0 1 2 3 3 4 5 5 3 1 3 2 4 3 5 6
7 8 10 10 10 9 8 5 1 -3 -6 -6 -2 1 1 1 2 2 2 2 0 1 -0 -1 -1 -2 -1 -2 -2 -0 0 0 0 3 2 4 5 4 4 2 -0 0 2 4 6 5 5
6 8 10 10 9 9 8 5 1 -2 -6 -5 -5 -3 -1 1 1 0 1 0 -0 -5 0 -0 -0 -1 -1 -0 -1 -0 1 0 2 3 4 6 5 4 4 4 3 -1 -0 6 7 5 3
5 8 9 10 9 9 8 5 0 -3 -5 -6 -7 -6 -5 -1 2 2 1 0 -5 0 4 2 -0 1 1 -0 2 2 2 2 1 4 4 5 3 5 5 4 3 4 -0 2 3 4 6
4 7 8 10 8 9 8 5 -0 -4 -5 -7 -8 -8 -6 1 2 1 2 -3 -3 0 5 2 0 -2 0 1 2 2 2 3 1 2 4 5 5 5 4 3 1 3 2 2 3 5 4
5 4 7 10 9 9 8 5 -1 -4 -5 -8 -8 -5 -1 1 2 2 0 -1 1 4 4 2 0 -2 -2 -1 1 3 4 3 3 4 4 5 3 4 5 2 1 2 3 1 1 2 5
6 4 8 9 9 9 8 5 -1 -4 -7 -8 -4 -1 2 3 2 -0 1 2 4 5 1 2 1 -1 -2 -0 2 3 4 4 5 5 6 5 5 3 4 4 2 1 3 6 6 5 5
7 4 8 9 9 9 8 4 -2 -4 -7 -7 -0 1 1 1 -0 -0 2 2 5 3 5 1 0 -1 1 0 0 0 2 3 2 4 5 6 6 5 4 5 4 2 2 6 4 5 3
8 6 8 9 9 9 7 3 -3 -4 -8 -3 1 2 2 -0 -0 1 3 4 4 5 3 3 1 2 2 0 0 -1 1 3 4 3 6 6 6 4 4 5 4 3 4 -0 5 0 4
8 7 9 9 9 8 7 2 -3 -6 -8 -1 3 2 2 0 0 1 3 3 4 2 1 1 5 3 0 -0 0 2 1 0 3 2 2 2 6 4 5 5 3 4 1 3 5 4 1
7 8 8 9 8 8 7 0 -3 -7 -8 1 3 3 2 1 1 2 5 3 2 0 1 2 2 1 -1 1 -1 1 1 2 2 2 2 2 3 6 5 5 5 4 4 3 2 2 4
6 8 9 9 8 8 5 -1 -3 -7 -9 1 2 3 1 1 3 1 3 1 1 1 1 1 2 -0 -0 0 0 1 0 3 2 2 3 1 4 6 5 3 2 3 5 2 5 4 2
7 8 8 9 9 8 3 -2 -4 -7 -8 2 2 2 1 2 4 4 1 2 1 2 1 1 1 0 -1 1 3 1 1 2 2 2 3 1 5 7 5 3 2 4 3 3 3 4 4
5 7 9 8 9 7 1 -3 -4 -7 -8 1 2 2 2 2 2 2 2 2 3 1 0 -0 -1 -1 -0 0 -0 2 2 2 2 2 1 1 2 3 5 4 4 4 2 2 4 5 4
6 8 9 9 9 6 0 -3 -5 -8 -9 1 1 2 1 2 2 1 1 1 2 2 1 -0 0 -0 -0 1 1 1 2 3 2 2 0 1 4 1 2 -1 4 4 3 2 3 3 4
4 5 8 9 8 4 -1 -3 -6 -8 -10 -0 -3 -1 0 0 -0 1 1 2 0 2 1 1 1 -0 -1 1 1 1 1 1 2 2 1 0 5 3 3 1 1 3 2 1 2 2 3
5 5 8 8 8 2 -0 -3 -7 -8 -11 -4 -5 -4 -3 -1 -0 1 1 -0 0 1 2 2 1 -0 1 2 -1 -1 -1 -1 -1 1 2 2 3 3 3 -0 -0 2 1 1 1 0 1
5 7 8 8 7 2 -1 -4 -7 -9 -11 -7 -9 -7 -3 -3 -2 -1 -1 0 1 1 2 2 2 1 2 1 1 -0 -1 -2 -2 -1 -1 1 1 2 3 1 3 -1 -4 -3 -2 -2 -1
3 3 6 7 7 1 -1 -5 -7 -11 -12 -10 -12 -8 -5 -4 -3 -2 -1 -0 -1 -1 1 1 3 1 2 1 1 1 1 0 -0 -1 -1 -2 0 2 3 2 -0 -2 -2 -2 -2 -2 -5
3 4 5 7 6 0 -3 -5 -7 -11 -12 -12 -13 -11 -7 -4 -4 -3 -2 -2 -0 0 0 1 1 1 2 2 1 2 3 0 2 2 -1 -1 -1 1 2 3 2 1 -1 -2 -2 0 -0
3 4 5 6 5 -0 -4 -2 -3 -12 -10 -10 -12 -14 -8 -7 -6 -5 -4 -3 -5 -2 0 0 -1 2 2 3 2 2 1 -2 -0 0 2 2 1 2 2 4 2 -2 -2 -2 1 1 -1
4 6 6 6 3 -1 -5 -2 -4 -11 -9 -9 -11 -11 -5 -6 -5 -6 -6 -5 -5 -5 -2 -2 -0 1 2 3 3 2 0 -1 -1 -3 -1 1 2 2 2 3 4 -3 -2 -1 -1 -1 -1
4 5 6 5 2 -3 -4 -1 -5 -11 -8 -7 -11 -6 -8 -4 -4 -4 -4 -5 -5 -5 -4 -1 0 0 1 3 2 2 2 -1 -2 -1 -2 0 -2 0 -1 0 -3 -3 -3 -3 -3 -1 -1

GFSGBSN_850_dewp_087.txt.gz
Dewpoint
8 9 9 9 9 9 7 5 2 -1 -3 -3 3 2 3 2 1 2 -1 2 1 0 -3 -4 -5 -5 -1 2 0 -2 -0 -1 -1 1 1 1 3 5 5 5 5 7 7 7 6 7 7
9 9 10 9 10 9 8 6 3 1 -2 -3 1 3 2 2 1 2 2 1 1 2 -1 -4 -6 -6 1 2 -2 -2 -1 0 0 0 3 2 3 4 5 4 4 4 6 6 6 8 6
8 9 10 10 10 10 9 8 4 2 -1 -3 2 2 2 2 2 2 2 -1 2 2 0 -5 -4 -4 -0 -1 -1 -2 -1 1 1 -2 3 4 2 5 5 4 2 3 6 5 8 7 7
8 8 9 10 10 10 9 8 5 4 -0 -2 -2 2 2 2 1 1 1 -2 0 1 -1 -6 -4 -2 0 -2 -3 -2 -1 1 1 -1 -1 2 5 4 4 5 4 4 5 8 8 7 6
7 8 8 9 10 10 10 9 6 5 -0 -3 -4 0 2 2 2 2 -1 1 -0 -3 -6 -7 -4 1 -1 -2 -1 -3 -1 0 1 -0 -0 2 4 3 5 6 6 6 7 7 9 7 7
8 7 8 8 9 10 9 9 7 5 0 -3 -6 0 2 2 1 2 1 0 -3 -3 0 0 0 -0 -2 -1 -2 -1 -0 -0 2 1 0 2 3 3 5 6 7 7 7 5 7 7 6
9 8 7 8 8 10 10 9 8 6 0 -3 -6 1 2 2 1 2 0 1 2 1 0 0 -1 -2 -2 -2 -5 -0 -1 -0 1 2 3 2 4 5 4 4 5 4 5 5 5 6 8
8 9 7 8 8 10 9 9 8 6 -0 -4 -5 -0 2 1 1 2 1 1 0 0 1 -1 -1 -1 -2 -2 -1 0 -2 0 1 3 2 4 5 4 3 3 4 4 5 5 5 5 5
7 8 9 7 7 9 10 9 8 5 -1 -4 -5 -4 1 1 0 0 1 1 0 -4 1 0 -1 -1 -1 -1 0 1 -0 1 1 3 4 4 5 4 5 4 3 4 4 6 5 7 7
6 7 8 8 6 9 9 8 9 5 -1 -4 -6 -6 -3 1 2 2 1 1 -2 -3 3 2 0 0 0 1 1 1 1 2 1 4 4 4 4 5 5 4 3 4 3 6 6 6 8
6 7 8 9 6 9 9 9 8 4 -2 -4 -7 -7 -3 2 2 1 1 -1 -4 0 -1 2 -0 -1 -0 1 1 1 2 2 4 4 4 6 5 6 6 5 3 4 4 5 7 5 6
5 6 7 9 6 8 8 9 8 2 -3 -5 -8 -4 -0 2 2 1 -0 -3 1 0 2 1 1 -0 0 2 3 2 3 3 3 4 3 4 4 4 5 4 4 5 4 4 4 4 4
3 6 7 9 7 7 9 9 8 1 -4 -7 -5 -1 2 2 1 -1 1 2 2 -0 0 1 0 -0 -0 3 3 3 3 4 5 2 4 3 4 3 4 3 4 6 3 6 6 4 5
2 5 6 8 7 6 9 8 7 -1 -4 -8 -1 1 2 2 0 1 2 0 -0 2 2 0 0 -0 2 1 1 3 4 4 2 3 5 3 2 5 4 5 5 5 2 4 5 5 3
4 5 4 8 6 7 9 8 5 -3 -6 -4 1 1 1 -1 -1 1 2 -0 1 2 2 2 1 2 1 1 1 -0 2 4 4 3 3 4 5 4 4 5 4 3 3 -0 3 1 3
5 5 6 8 6 8 8 8 3 -3 -7 -1 1 2 1 -0 0 2 2 2 1 2 2 1 4 2 1 0 1 1 2 1 3 2 2 3 6 4 5 4 3 3 2 2 2 3 2
3 4 6 8 7 8 8 8 -0 -4 -7 1 2 3 1 0 1 2 2 1 2 1 1 2 3 3 -1 0 -0 1 3 2 2 2 2 2 2 5 4 5 5 4 4 3 2 2 4
3 3 6 8 7 9 8 6 -3 -6 -5 1 2 3 1 0 2 2 2 2 1 1 1 2 2 2 -0 -0 -1 1 3 3 2 2 3 1 3 5 4 3 3 3 5 4 3 3 1
3 4 6 8 7 8 8 4 -3 -7 -5 2 2 2 1 2 2 2 1 2 2 2 2 2 2 -0 -1 1 2 1 3 3 2 2 3 1 3 3 4 3 2 4 3 4 3 2 3
3 3 6 8 8 8 7 2 -3 -7 -3 2 1 2 2 2 2 2 2 3 3 1 1 0 -0 -1 -0 0 0 2 3 3 2 2 1 0 2 1 2 2 3 4 3 3 3 3 4
3 2 5 7 8 8 7 0 -3 -7 -2 2 2 1 1 2 1 1 1 2 3 2 1 -0 0 0 -0 1 1 2 3 3 2 2 0 1 3 -0 1 0 3 4 3 3 2 3 3
2 3 4 5 7 7 5 -2 -4 -7 -1 1 -1 1 0 0 1 1 1 2 2 2 1 1 1 -0 -0 2 1 2 2 2 2 2 1 0 3 1 1 1 1 2 2 2 2 2 3
1 4 3 3 5 7 2 -3 -4 -7 -6 0 -3 -2 -1 -0 0 1 1 1 1 1 2 2 1 1 2 2 -0 -1 -1 -1 -1 2 2 2 2 1 2 -0 -1 0 -0 1 1 0 1
2 3 5 3 4 6 1 -3 -5 -8 -9 -6 -5 -3 -3 -1 -1 0 -0 -0 2 1 2 2 2 2 2 0 0 -1 -1 -2 -2 -1 -1 1 2 2 2 0 1 -2 -4 -3 0 -0 -1
2 2 2 4 4 5 1 0 -6 -8 -10 -8 -8 -6 -4 -3 -2 -1 -0 0 -0 0 1 3 2 1 1 0 1 1 1 0 -0 -1 -1 -2 0 2 2 1 -0 -2 -2 -2 -2 -1 -2
1 2 2 4 4 4 2 -3 -7 -8 -10 -9 -11 -7 -4 -3 -4 -4 -1 -1 -0 0 0 1 2 1 2 2 1 2 2 1 2 2 -1 -1 -1 1 1 3 3 -1 -2 -2 -3 -1 -1
1 2 2 4 4 3 2 -5 -6 -9 -12 -10 -12 -8 -6 -6 -5 -4 -3 -2 -4 -1 0 1 -0 2 2 2 2 1 1 -2 1 1 2 1 1 1 2 2 2 -1 -2 -2 -1 -3 -1
2 3 3 4 4 3 0 -3 -1 -10 -11 -10 -11 -9 -9 -5 -4 -6 -6 -5 -4 -5 -0 -2 0 1 2 2 2 2 -0 -1 -2 -3 1 1 1 2 1 2 2 -2 -3 -3 -4 -1 -1
3 5 3 4 4 2 0 2 4 -6 -10 -10 -13 -6 -9 -8 -4 -5 -5 -5 -5 -4 -3 -0 -0 1 1 1 1 1 2 -0 -2 -1 -3 -1 -2 -1 -0 1 -3 -3 -4 -3 -3 -3 -3

GFSGBSN_850_dewp_090.txt.gz
Dewpoint
8 8 8 8 9 9 10 9 8 6 3 -0 -2 1 2 2 3 2 2 -0 2 1 1 -4 -5 -6 -1 1 -0 -2 -2 -2 -1 -1 -0 1 1 3 4 4 4 6 6 6 8 7 8
8 8 8 8 9 9 10 9 9 7 4 2 -2 -2 -1 1 2 2 1 2 -0 1 3 -3 -5 -6 -1 1 -2 -1 -2 -2 0 -1 -0 1 1 2 4 5 4 4 5 6 8 8 7
9 8 8 8 8 9 10 10 9 8 5 4 -2 -3 -2 1 2 1 2 2 -1 2 2 -1 -4 -3 -2 -3 -1 -2 -2 0 1 -0 -1 3 3 3 4 4 4 4 7 5 7 8 8
8 9 9 8 8 8 9 10 9 9 6 4 -1 -3 -4 2 2 2 1 0 -0 0 -0 -3 -4 -3 -2 -2 -2 -1 -3 0 1 1 -2 1 3 2 5 5 5 5 6 9 8 8 8
5 7 8 9 8 8 9 9 9 9 7 5 -1 -4 -4 -0 2 1 0 1 -0 -3 -6 -7 -2 0 -1 -2 -1 -2 -2 0 1 1 -0 1 3 3 4 6 6 5 8 8 10 7 8
3 2 4 7 9 8 9 9 9 9 8 5 -1 -4 -4 -4 1 0 1 -0 -3 -1 0 0 -0 1 -2 -1 -1 -2 -1 -1 1 1 2 3 4 3 3 5 6 7 7 5 8 8 7
1 0 -3 2 7 9 9 9 9 9 8 5 -1 -5 -5 -5 -4 -0 1 1 2 0 0 -1 -1 -1 -2 -3 -5 -3 -0 -1 1 2 2 3 4 5 4 5 5 4 4 6 7 7 6
-0 -6 -6 1 4 7 9 8 9 9 8 5 -1 -5 -6 -7 -5 2 1 1 0 -0 0 -1 -0 -1 -1 -1 -0 -0 -0 0 1 3 2 4 4 3 3 4 4 3 5 5 6 5 6
1 -1 0 1 6 6 8 8 8 9 8 4 -2 -5 -7 -7 -2 0 1 1 0 -2 1 1 0 -1 -2 -0 1 1 1 1 2 3 3 5 5 3 4 5 5 5 5 5 7 7 6
0 1 0 -4 5 7 7 8 7 8 8 3 -4 -5 -8 -2 1 1 1 1 -0 -4 -2 1 0 -1 0 1 1 0 1 2 2 3 4 5 4 4 5 5 3 5 3 3 7 8 9
0 -0 -0 -1 3 7 7 9 7 8 8 1 -4 -7 -8 -0 1 1 1 0 -4 0 -4 -2 -0 -1 1 1 1 0 2 3 4 5 5 5 6 5 6 5 3 4 4 5 6 7 7
-0 1 0 2 4 5 7 8 7 8 8 -1 -5 -7 -5 1 1 1 0 -3 0 -3 -1 -1 0 0 1 2 2 2 3 3 3 4 3 5 4 5 5 5 4 4 5 6 6 7 8
0 -1 1 1 3 4 7 8 7 8 7 -3 -7 -4 0 1 1 0 -2 1 -2 -1 -2 -0 -1 -0 1 3 3 3 3 4 5 3 4 4 4 4 4 5 4 4 5 8 8 7 5
-1 -0 1 1 4 5 6 8 8 8 5 -5 -4 -0 1 2 0 -0 2 -2 -1 1 1 0 0 -0 1 0 0 3 3 4 3 3 4 3 5 4 3 6 6 6 5 5 7 5 3
-1 -1 0 2 4 5 6 7 8 8 0 -5 -0 2 2 2 -0 1 1 -2 -1 1 1 2 1 2 1 0 1 0 2 4 3 3 3 3 4 3 4 4 5 5 3 -0 2 1 2
-1 -1 0 2 4 6 6 7 7 6 -4 -1 -0 1 0 -1 0 1 -0 1 1 1 1 1 2 1 1 -0 1 1 2 2 3 2 2 2 4 3 4 3 3 2 1 2 2 2 3
-1 -1 1 4 5 5 7 7 7 1 -4 -0 -0 1 1 -0 0 2 -1 0 2 1 1 2 3 3 -1 0 0 1 3 2 2 2 2 2 2 4 3 4 5 4 3 3 1 1 2
-1 -0 2 4 4 5 7 7 7 -2 -0 1 2 2 1 1 2 2 1 1 1 1 1 2 1 2 -1 -0 -1 1 4 3 2 2 2 2 2 3 4 2 3 3 5 2 2 2 0
-1 0 2 3 5 6 7 7 4 -4 -0 1 2 2 1 2 2 1 1 2 2 2 1 2 2 0 -1 1 2 2 3 3 2 2 2 1 2 4 3 1 1 3 3 4 2 1 2
-1 1 2 3 4 7 7 7 1 -5 -1 -0 0 2 2 2 2 1 2 3 3 1 1 1 -0 -1 -0 0 0 2 3 3 2 2 1 0 2 -0 1 1 2 4 3 3 3 2 3
-0 1 1 4 3 7 7 5 -1 -5 -1 -1 -0 0 1 2 1 1 1 2 3 3 1 -0 0 -0 -0 2 1 3 3 3 2 2 0 1 2 -1 1 1 2 3 3 3 2 3 3
0 1 2 2 5 7 6 3 -4 -4 0 1 1 1 1 -0 0 1 1 2 2 2 1 1 1 0 -1 1 1 2 2 2 2 2 1 0 2 0 1 0 1 2 1 1 2 2 3
0 1 2 2 3 4 6 -1 -4 -3 1 1 -2 0 -0 1 0 1 1 1 2 2 2 1 0 1 1 0 -1 -1 -1 -1 0 2 2 1 1 1 2 0 -1 1 -1 0 1 0 1
1 1 2 4 5 4 4 -1 -3 -5 1 -1 -4 -1 -2 0 0 1 0 0 2 1 2 2 1 1 2 0 -0 -1 -1 -2 -1 -1 -0 1 2 1 1 -1 1 -2 -4 -3 -0 -0 -1
0 1 2 2 4 4 3 1 1 -5 0 -3 -5 -4 -4 -1 -2 -1 1 1 1 1 1 2 1 1 0 0 0 1 1 0 -0 -1 -1 -2 1 2 2 1 -1 -2 -2 -2 -3 -3 -1
0 1 2 3 3 3 3 -0 -3 -5 -1 -3 -6 -5 -4 -3 -3 -3 -1 -0 0 0 0 2 1 1 1 0 1 2 2 1 2 2 -1 -1 -1 0 1 3 3 -3 -2 -2 -4 -0 -3
0 1 3 2 3 3 3 1 -2 -6 -3 -4 -7 -5 -6 -5 -5 -3 -2 -2 -0 -0 0 0 0 2 2 1 2 1 1 -1 2 2 2 1 1 1 2 2 1 -2 -2 -3 -1 -3 -2
-0 2 2 3 2 4 3 2 -3 -6 -7 -7 -9 -6 -8 -5 -4 -5 -4 -4 -3 -0 0 -1 0 1 1 2 1 1 -0 -1 -2 -1 1 1 1 2 1 2 2 -3 -3 -2 -5 -2 -2
3 2 4 3 2 3 3 -1 -5 -6 -6 -7 -9 -7 -8 -5 -2 -3 -4 -4 -4 -2 -1 -1 -1 1 1 0 0 1 1 -1 -2 -1 -3 -1 -1 -1 0 0 -1 -1 -2 -0 0 0 0

GFSGBSN_850_dewp_096.txt.gz
Dewpoint
4 4 5 5 5 6 7 7 8 9 9 9 9 8 6 2 0 1 3 2 1 -1 2 2 2 -5 -5 -0 -4 -2 1 -1 -3 -1 1 0 1 2 3 2 3 4 3 4 3 6 7
2 3 3 3 3 4 5 6 7 8 8 9 9 8 7 4 1 2 2 1 2 0 0 2 2 -4 -5 -1 -6 -2 -2 -2 -3 -0 0 0 -0 0 2 1 3 2 2 3 4 4 7
1 2 2 1 1 2 3 3 5 6 6 8 9 8 7 3 2 3 3 0 0 -3 -0 2 2 -4 -3 -8 -3 -2 -1 -2 -3 -1 0 -1 -1 1 1 2 1 2 4 2 3 5 6
1 1 0 2 2 1 1 2 2 -1 4 7 8 8 7 5 -0 1 1 0 -5 -4 0 1 0 -4 -6 -5 -2 -2 -2 -2 -3 0 0 0 1 3 2 2 3 3 3 6 4 5 5
2 1 1 1 1 1 1 1 -2 1 1 6 8 9 7 4 -0 -1 -1 -2 -2 -2 -2 -4 -4 -1 -2 -2 -2 -2 -1 -1 -1 -0 -0 1 1 2 2 4 3 4 4 6 7 5 6
1 1 1 1 1 1 1 1 1 -6 3 6 7 8 6 4 -0 -2 -1 -1 -5 -5 -5 -4 -1 1 -3 -3 -3 -2 -2 -2 -0 -0 1 2 1 3 3 4 3 4 5 5 5 7 5
1 1 1 1 1 1 1 1 1 -2 1 6 7 6 7 3 -0 -4 -0 -4 -2 0 1 -1 -2 -2 -3 -1 -1 -2 -2 -1 -1 1 3 2 3 3 2 2 2 3 5 6 6 6 6
2 2 1 0 0 1 0 0 1 -0 -3 5 6 7 6 2 -1 -3 -2 -1 -0 -1 -1 -1 -1 -1 -1 -1 -1 0 -0 -0 1 1 1 3 4 2 2 3 4 3 5 6 7 6 6
1 1 0 1 0 -0 -0 0 1 -2 -3 5 5 7 5 2 -2 -1 -1 -0 0 -1 0 0 0 0 -1 -0 1 0 1 1 1 3 1 3 3 2 4 4 5 4 5 7 7 6 6
1 0 0 0 1 -0 -1 -0 1 -1 -6 3 5 6 4 1 -2 -1 0 -0 -0 -2 -5 -6 -0 -1 -0 1 -1 0 1 2 2 3 4 4 2 2 4 5 4 6 4 6 7 8 9
0 0 1 -2 -1 -0 -0 1 1 -1 -9 -3 4 5 4 1 -1 0 -0 -0 -2 -2 -11 -8 -1 -1 0 1 1 1 3 3 4 4 4 5 5 4 5 6 4 5 5 5 6 7 7
1 1 1 0 -1 -0 -0 0 1 0 -6 -4 5 5 2 -0 -0 0 -0 -1 -4 -5 -11 -4 -1 -1 1 1 2 3 3 3 4 4 5 4 2 3 5 5 5 4 4 5 6 6 6
0 1 1 1 1 -1 0 -0 0 0 1 1 4 4 2 -0 0 1 -1 -4 -2 -7 -6 -3 -2 -1 -0 1 2 3 4 4 4 4 4 5 5 4 4 5 5 4 3 6 6 7 6
0 1 1 0 -1 -1 -2 -0 -0 0 2 1 4 3 1 1 1 0 -4 -2 -3 -3 -1 -0 -0 -0 1 -0 -0 1 2 4 2 1 2 1 5 5 4 6 7 5 3 4 7 7 4
1 1 0 -0 -1 -2 -1 0 1 2 2 3 3 2 1 2 1 -2 -1 -1 -3 -2 -1 1 -0 1 -1 -0 1 0 2 3 3 2 1 3 6 3 4 4 4 5 3 -0 2 1 4
-0 1 -0 -0 -0 -1 -0 0 2 4 2 3 2 1 2 2 0 -1 -1 1 -0 -2 -0 -2 0 -0 -0 -1 0 1 1 2 3 1 1 2 6 3 4 3 3 2 -0 2 2 3 1
-0 -1 -1 -0 -1 -1 1 2 3 5 4 2 2 2 2 1 2 1 1 -1 1 1 -0 0 1 1 -0 0 -0 3 3 2 2 2 0 0 1 3 2 4 5 3 3 2 1 1 2
-0 -1 -0 -1 -1 1 2 4 4 4 2 2 1 2 2 2 1 1 1 0 1 1 1 1 1 -1 -2 -1 1 3 4 4 2 1 2 1 1 4 5 2 2 3 4 0 2 2 -0
-1 0 -0 -0 1 2 3 4 5 4 3 1 1 1 2 2 1 1 -0 1 1 1 1 2 2 1 -2 -1 3 3 3 2 2 2 2 0 1 0 1 -0 0 3 3 1 0 -0 1
-1 -1 -1 1 2 4 4 4 4 4 2 1 1 2 1 2 2 -1 2 2 2 1 1 1 0 -1 -0 1 1 3 3 2 2 2 1 -0 0 -1 0 1 1 3 3 3 1 1 2
-1 -2 0 2 4 3 3 4 5 4 2 1 0 1 1 2 2 1 1 2 3 3 1 1 -0 -0 -0 1 2 3 3 3 2 1 -0 -0 2 -1 1 1 1 3 3 3 1 2 2
-1 -2 1 3 5 5 5 5 3 2 1 -0 -0 0 -1 -0 0 1 1 2 2 2 1 1 1 -1 -1 1 -0 2 2 2 2 0 0 -0 2 -1 1 -0 0 1 0 1 2 2 2
-7 1 2 3 4 4 5 4 3 2 2 1 0 -0 -1 -0 -0 2 1 1 1 1 2 0 -1 -0 0 -0 -0 -0 -1 0 0 1 1 1 0 0 1 -0 -1 -1 -1 -1 0 0 1
-7 1 2 4 4 3 3 3 3 2 1 -2 -1 -1 -1 1 0 1 1 1 2 1 2 1 0 -1 0 -1 -1 -2 -2 -1 -1 -1 -1 1 1 1 1 -2 -3 -4 -5 -3 -1 -2 -1
-2 1 2 3 4 3 3 2 3 2 -0 -2 -3 -4 -1 1 -0 -0 1 1 1 2 2 1 1 1 0 -1 -1 0 -0 -1 -0 -1 -1 -1 -0 1 1 1 -3 -2 -2 -2 -2 -2 -3
-1 -0 2 2 3 3 3 2 3 2 0 -4 -5 -3 -1 -0 -1 -2 -0 1 0 0 1 0 2 1 0 -1 -1 1 1 0 2 1 -2 -2 -2 -0 0 2 1 -5 -2 -2 -5 -1 -2
-1 -1 2 3 3 3 2 2 2 2 0 -1 -5 -6 -4 -3 -3 -2 -1 -0 0 -0 0 0 1 1 0 -0 1 1 0 -1 2 2 2 1 0 1 1 1 0 -3 -2 -3 0 -3 -1
1 1 2 3 3 3 2 2 2 1 0 2 -1 -5 -6 -3 -2 -3 -3 -1 -0 0 1 0 0 0 0 0 -0 0 -1 -1 -1 -1 -0 0 0 1 0 2 1 -1 -3 -1 -1 -0 -1
2 3 2 2 3 2 2 2 2 1 1 1 1 -5 -3 -3 -2 -2 -2 -1 -1 -1 -0 0 -1 -0 -0 -0 -1 -1 0 -2 -3 -1 -3 -0 -2 -0 -1 -1 -2 -1 -1 -1 -1 -3 -1

GFSGBSN_850_dewp_099.txt.gz
Dewpoint
3 2 3 3 2 2 3 4 4 4 5 6 7 8 8 8 7 3 1 3 2 1 0 2 3 1 -5 -3 -7 -3 2 1 -2 -3 -2 1 0 1 1 2 2 3 3 3 3 2 4
2 2 2 1 1 2 2 1 3 3 2 4 5 7 8 8 7 4 1 2 1 2 1 1 3 1 -5 -4 -8 -2 -2 -2 -3 -2 -0 1 -0 -1 1 1 2 1 -0 1 1 4 4
2 1 1 2 2 2 2 1 2 2 1 1 1 5 8 7 5 3 2 3 -0 1 0 2 3 1 -4 -7 -6 -3 -2 -2 -2 -3 -1 -0 -0 -0 1 1 0 1 2 3 1 1 5
1 1 1 1 1 1 2 1 1 1 1 2 3 6 7 7 5 3 -0 0 -1 0 1 1 2 -1 -7 -6 -6 -3 -2 -2 -2 -2 -0 0 1 2 2 1 1 2 1 4 2 1 5
1 1 1 1 1 1 1 1 1 1 -0 -5 1 5 7 6 5 3 -0 -3 -0 2 1 1 -1 -5 -3 -3 -2 -3 -2 -1 -1 -1 -1 1 2 2 2 3 1 1 3 5 4 1 5
0 0 0 0 2 1 1 1 1 0 -1 -13 1 5 6 6 4 2 -0 -0 1 -1 -3 -4 -3 -0 -4 -3 -2 -2 -2 -2 -2 -0 0 2 2 3 3 4 2 3 3 4 5 5 4
1 1 1 1 2 1 1 1 1 1 1 -12 -1 4 6 6 4 2 0 0 -0 2 -1 -2 -2 -3 -3 -2 -1 -1 -2 -1 -1 1 1 2 2 3 1 1 1 4 1 2 4 6 5
1 2 1 1 1 2 0 1 0 1 1 -3 -1 4 6 6 3 1 1 -3 -1 -2 -1 -1 -1 -1 -1 -1 -1 -1 -0 -0 1 -0 1 2 4 3 -0 -0 2 3 2 5 5 5 5
1 1 1 1 2 1 0 1 -0 0 1 0 2 4 5 5 3 2 -0 -4 0 -1 -1 -0 -0 -0 -1 -1 0 0 0 1 1 1 1 3 3 3 3 2 3 2 4 6 5 6 5
1 1 2 1 2 1 1 -2 -0 -1 -0 -0 2 3 5 3 3 1 -0 -2 0 -1 -5 -6 -0 -0 -0 1 -0 -0 1 2 2 3 3 3 3 4 3 3 4 5 3 4 6 7 9
1 1 1 1 2 0 1 0 -1 0 -1 -2 2 2 4 3 2 1 -0 0 -1 -2 -10 -9 -1 -0 0 2 2 2 2 3 3 3 3 5 5 4 5 4 4 4 4 5 6 7 7
0 1 1 1 2 1 1 -0 -1 -0 -2 -1 1 2 3 3 2 0 0 -0 -3 -5 -11 -4 -1 -1 0 2 2 3 3 3 3 3 3 3 3 3 5 5 4 4 5 5 5 5 7
1 1 0 1 1 0 -0 -0 -0 -1 1 1 2 3 3 3 1 0 -0 -2 -2 -6 -6 -3 -1 -1 -0 1 1 3 3 4 4 4 4 5 5 5 4 6 5 3 3 6 5 6 6
0 0 1 1 1 0 -0 0 -1 0 1 -0 2 3 3 2 0 0 -2 -2 -4 -4 -2 -1 -1 -1 -0 -0 -0 1 2 3 2 1 3 5 7 5 4 6 6 5 2 4 6 7 5
0 1 1 -0 -0 -0 -1 -1 -0 1 -0 0 2 3 2 1 1 0 -0 -3 -3 -3 -2 0 -1 -1 -1 -1 1 -0 2 3 2 2 2 5 6 4 5 5 5 4 3 -0 2 1 5
1 -0 -1 0 0 -0 -1 -0 0 1 0 2 3 2 2 1 1 -1 -1 0 -1 -3 -1 -2 -2 -1 -0 -1 0 1 1 2 3 1 1 2 7 4 3 4 4 2 -0 2 3 3 3
-1 -1 0 1 -0 -1 -0 1 2 3 2 2 2 1 1 2 1 0 -1 -1 0 -0 -0 -0 0 0 -1 0 -0 2 3 2 2 2 -0 -0 2 4 2 4 6 4 3 1 1 0 2
-2 -0 0 0 -1 1 1 3 4 2 3 2 1 1 2 2 0 -0 1 -0 0 1 1 1 0 -1 -1 -1 2 3 4 3 2 2 2 1 1 5 5 2 2 3 4 -0 2 2 -0
-1 0 -0 0 2 3 3 4 2 1 2 2 1 1 2 2 1 0 -0 1 1 1 1 1 2 1 -2 0 2 3 3 2 2 1 2 0 1 1 1 -1 -0 3 3 1 -0 -0 1
-1 -1 0 2 4 4 4 4 4 2 2 1 1 1 1 2 1 -1 1 2 2 1 1 1 -0 -1 -0 1 1 3 3 2 2 2 1 -1 0 -1 0 0 1 3 3 2 1 2 2
-1 0 2 4 3 2 4 4 3 2 2 3 1 1 1 1 2 0 1 1 2 2 1 0 -0 -0 0 1 2 3 3 2 1 1 -0 -1 2 -1 0 1 1 2 3 3 1 1 2
1 1 4 3 5 3 4 3 2 2 3 3 0 0 -0 -1 -1 0 1 2 2 1 1 1 0 -1 -1 0 -1 2 2 2 2 -0 0 -1 2 -2 1 -1 -0 1 0 1 2 2 2
0 3 4 3 4 4 3 3 3 2 3 1 -0 -1 -1 -1 -1 1 1 1 1 1 1 -0 -1 -0 0 -0 -0 -0 -0 -0 0 0 1 0 0 -0 2 -0 -2 -1 -1 -0 0 0 1
-1 2 4 3 4 3 3 3 2 2 2 -1 -1 -1 -2 1 -0 -0 0 1 1 1 1 1 -1 -1 -0 -1 -1 -2 -1 -1 -1 -1 -1 0 0 0 1 -4 -5 -4 -5 -4 -2 -2 -2
-2 1 3 3 3 3 3 3 2 2 -4 -4 -4 -3 -1 -1 -1 -0 0 1 1 1 1 1 1 1 -0 -1 -1 -0 -0 -1 -1 -1 -2 -2 -1 1 1 -0 -5 -2 -2 -2 -2 -1 -1
-1 0 2 3 2 3 3 3 2 -2 -4 -5 -5 -2 -0 -0 -1 -2 0 0 0 0 0 1 2 0 -0 -2 -1 0 0 0 1 1 -2 -2 -2 -0 0 1 -3 -6 -2 -2 -5 -1 -1
1 2 1 3 2 2 3 3 1 -0 -1 -0 -5 -5 -2 -3 -2 -2 -1 -0 0 -0 -0 1 1 1 -1 -1 1 0 -0 -1 1 1 2 0 -0 1 1 1 -0 -3 -3 -3 0 -4 -1
1 3 1 2 3 3 2 3 2 2 -0 0 -1 -4 -5 -2 -2 -3 -2 -1 0 0 0 0 -0 -0 -1 0 -0 -0 -1 -1 -1 -2 -0 0 0 1 0 2 -1 -2 -3 -1 -2 -1 -2
2 3 3 2 3 3 2 2 2 2 -0 0 -0 -5 -3 -2 -2 -2 -1 -1 -1 -1 0 0 -1 -0 -1 -1 -2 -1 -0 -3 -3 -1 -3 -0 -3 -1 -1 -1 -3 -1 -1 -1 -3 -5 -3

GFSGBSN_850_dewp_105.txt.gz
Dewpoint
2 2 2 1 1 -0 -1 0 0 2 2 2 2 3 4 5 6 8 7 6 4 0 1 1 1 2 2 1 -3 -2 -1 3 3 1 -3 -4 -4 -6 -6 -9 -8 -6 -6 -5 -4 -3 -2
3 3 1 1 1 1 0 1 -1 -1 1 2 1 2 2 5 5 8 7 6 3 -0 2 1 1 1 2 -0 -5 -2 0 1 -2 -1 -3 -2 -3 -3 -3 -5 -6 -8 -9 -8 -8 -6 -3
3 2 1 1 1 1 0 1 1 -0 0 1 1 1 -0 4 4 7 7 5 3 1 1 1 1 3 2 -0 -5 -3 -2 -2 -2 -1 -2 -2 -2 -2 -3 -3 -4 -4 -3 -6 -7 -6 -4
2 1 1 0 1 0 -0 1 0 1 -1 1 1 -1 -3 2 5 7 6 5 3 -1 -3 -3 3 3 1 -3 -4 -4 -3 -2 -0 -1 -0 -1 -0 -1 -2 -1 -1 -1 -1 0 -6 -7 -6
1 1 1 1 1 1 1 0 -0 1 1 0 -0 -4 -7 2 4 5 5 4 1 0 0 1 3 3 -3 -3 -3 -4 -3 -2 -1 0 1 0 0 -0 1 1 1 -0 2 -1 -4 -10 -5
2 1 1 1 1 1 1 1 1 0 1 -0 -0 -7 3 0 4 5 5 3 1 2 2 2 1 -1 -2 -3 -2 -2 -2 -2 -2 -2 -0 0 0 1 1 2 2 3 1 -4 -4 -9 -5
2 1 0 1 1 1 0 1 1 1 1 -1 -1 -8 3 5 5 5 4 2 1 2 2 -1 -2 -2 -3 -3 -2 -1 -1 -1 -1 -2 -1 -2 2 1 -0 -0 2 1 -1 -3 -4 -10 -1
1 2 1 2 2 2 1 1 1 0 -0 -2 -2 -7 3 4 4 3 3 0 -0 1 1 -0 0 -1 -1 -1 -1 -1 0 -0 -1 2 -1 2 2 -2 3 2 4 4 0 -1 -4 -4 -2
1 1 1 1 0 2 1 2 0 1 -1 -3 -3 -5 2 4 4 3 2 1 -2 -1 -1 0 0 -0 -0 -0 -1 -0 1 1 1 3 3 3 2 2 3 2 1 1 1 -0 5 -1 -2
0 -0 0 0 0 1 1 1 1 0 -0 -2 -4 0 1 4 3 3 2 0 -1 -1 4 -0 -0 0 1 0 1 1 1 1 3 4 4 4 2 3 4 2 -1 -1 -4 2 4 2 5
-0 -0 0 0 1 1 1 1 0 -0 -1 -2 -2 -0 4 4 4 3 3 -1 -0 -1 4 -2 -1 1 1 2 1 3 2 2 3 4 3 5 3 3 4 0 -3 1 -1 -0 3 3 6
-1 0 0 1 1 0 0 1 1 0 -1 -3 -4 0 3 3 3 3 -1 -1 -2 5 3 3 -1 1 1 1 1 3 3 3 2 3 3 3 2 3 2 1 -1 0 2 5 6 6 5
-1 -2 -2 -1 -2 -0 1 1 2 1 -1 -2 -3 -1 3 3 3 -0 -1 -0 5 4 -4 1 2 -0 -0 0 0 1 3 5 6 6 7 5 5 3 3 3 3 4 7 8 8 8 6
-1 -1 -2 -2 -0 1 1 1 0 1 -0 -1 -2 0 1 3 3 1 0 1 5 -2 -0 -2 -1 -1 0 -0 0 -0 2 6 4 3 5 7 6 5 3 5 7 5 5 7 9 8 6
0 0 -1 -1 -0 1 0 0 1 0 -1 -1 1 3 2 2 2 1 0 5 4 -0 -2 -0 -1 -0 0 -1 -0 -0 1 3 2 1 6 7 7 4 3 3 4 3 3 0 3 1 4
1 2 1 -1 -1 0 -1 -1 -0 -0 -1 -0 2 2 2 2 1 0 1 2 2 -3 -2 -2 -2 -2 -1 -1 -0 -0 1 2 3 1 1 4 7 4 3 3 2 1 -1 4 5 4 4
4 3 4 1 0 -1 -1 1 0 -1 0 2 2 1 1 2 1 0 3 1 -0 -2 -0 -1 -2 -2 -2 -1 0 0 1 1 1 1 -0 2 5 6 3 4 5 3 2 0 0 -0 -0
4 1 2 2 2 1 1 1 -0 -2 1 2 1 2 1 1 2 -1 -1 0 0 -1 1 0 -2 -2 -1 -0 0 0 2 2 1 1 1 -0 3 6 4 1 -0 2 2 0 5 -0 -0
3 -1 0 0 -1 -1 0 -3 -1 -0 1 1 1 1 1 2 3 -1 -0 1 1 -0 0 -0 -0 -2 -2 -0 1 1 1 1 1 1 1 -1 1 6 4 2 0 1 0 -0 0 4 3
3 1 0 0 -2 -3 -1 -3 -1 -1 0 -1 2 2 1 2 -1 -2 1 1 -1 1 1 -0 -1 -1 -1 -0 -1 1 0 1 1 0 1 0 1 2 5 4 3 2 1 -0 4 7 1
4 3 0 -1 -3 -5 -2 0 1 -1 1 -0 2 1 0 1 -0 -2 0 0 -1 0 0 -1 -1 -1 -1 -1 -1 0 0 -1 -1 -1 -1 -0 3 3 1 0 2 1 1 1 4 1 3
3 3 2 -0 0 -1 -2 -1 -0 1 0 2 1 -0 0 -1 -2 -1 1 1 -2 0 1 -1 -1 -1 -2 -0 -0 -0 -0 -1 0 -2 -1 -1 3 1 1 -1 -1 -1 -1 -1 0 0 0
3 3 3 2 2 2 2 2 1 1 2 3 0 -1 -2 -1 -2 -1 -0 0 -1 -0 1 -0 -1 -1 0 0 -0 -1 -1 -1 -1 0 -0 -0 1 2 3 -2 -2 -1 -1 -1 -1 -1 -0
-0 3 3 3 2 2 2 2 2 2 3 0 -1 -1 -2 -1 -2 -1 -1 1 -1 0 0 -0 0 -1 0 -1 -1 -1 -1 -2 -2 -1 -1 -1 -0 0 1 -2 1 -1 -4 -4 -2 -1 -1
-2 -0 2 3 3 3 2 -0 -3 -4 -4 -5 -4 -0 -2 -2 -3 -2 -1 1 1 1 1 1 1 1 -1 -1 -0 -1 -2 -1 -1 -1 -2 -2 -2 -1 -0 -4 -4 -2 -3 -2 -2 -2 -1
-2 -2 -1 1 3 2 2 -1 -4 -5 -3 -2 -2 -1 -1 -3 -2 -2 0 1 -0 -0 1 2 1 0 0 -1 -2 -1 -4 -2 -3 -2 -2 -1 -2 -2 -1 -2 -7 -3 -2 -3 -4 -2 -1
-0 -1 -1 -1 0 3 3 2 -3 -2 -3 -3 -2 -1 -0 -1 -2 -0 1 1 1 -0 0 1 1 1 -1 -1 -0 -1 -3 -2 -2 -2 -1 -1 -1 -0 -3 -1 -5 -3 -2 -3 -1 -0 -1
0 0 0 -0 0 1 3 2 2 -1 -1 -2 -3 -3 -1 -0 -1 -0 -0 0 1 1 0 1 1 1 0 1 -0 -1 -2 -2 -1 -2 -2 -2 -2 -1 -1 0 -0 -4 -2 -2 -1 -2 -2
1 1 1 0 0 1 3 3 2 1 0 0 -2 -3 -1 0 -0 -1 -0 -0 -0 -0 1 1 1 1 1 0 -1 -2 -2 -2 -3 -4 -2 -2 -3 -3 -3 -3 -3 -3 -2 -1 -2 -2 -2

GFSGBSN_850_dewp_108.txt.gz
Dewpoint
3 3 3 3 2 2 2 1 1 1 1 2 2 2 2 2 4 6 7 7 7 6 4 1 0 2 1 1 -2 -1 2 2 4 1 -3 -4 -4 -5 -5 -8 -9 -8 -7 -7 -7 -5 -4
3 3 3 2 2 2 2 1 1 0 1 0 1 1 2 2 4 5 7 8 7 4 2 1 1 1 2 -1 -4 -1 0 2 -1 -1 -3 -3 -3 -4 -4 -5 -5 -7 -7 -7 -8 -7 -8
3 3 1 2 2 2 2 1 1 1 0 1 -0 -1 -4 1 4 3 6 7 6 3 1 1 0 2 2 -2 -5 -3 -1 -2 -2 -2 -2 -3 -3 -2 -3 -3 -4 -3 -2 -3 -4 -5 -6
1 2 2 1 2 2 2 2 1 0 0 1 1 -0 -5 -3 4 6 6 6 5 3 -0 -1 2 3 1 -1 -2 -3 -3 -3 -1 -1 -1 -1 -1 -2 -2 -2 -1 -1 -1 1 -3 -4 -6
0 2 2 2 1 2 2 2 2 0 0 -1 1 -1 -6 -8 2 4 5 5 4 -1 -2 0 3 3 -2 -3 -5 -4 -4 -2 -2 -1 -1 -1 -1 -0 -1 1 1 -1 2 -1 -2 -4 -4
1 2 0 2 1 1 1 2 1 1 1 -0 -0 -2 -5 3 -2 4 5 4 1 2 2 3 2 1 -2 -3 -2 -3 -2 -2 -2 -1 -1 0 -0 1 1 2 0 1 1 3 2 -3 -5
1 1 0 -1 2 -0 1 2 1 1 1 -0 -1 -2 -2 4 2 3 5 3 3 3 2 -0 -1 -3 -3 -3 -3 -1 -2 -1 -1 -2 -1 -2 2 2 1 -0 -1 -1 2 1 -1 -5 -4
1 2 -1 1 1 1 0 1 1 1 1 -1 -3 -2 -3 2 3 4 3 2 1 1 1 -0 -1 -2 -1 -1 -1 -1 -1 -1 -1 1 -0 2 3 -1 -2 -0 1 3 3 2 -0 -2 -3
1 1 1 1 1 1 1 0 1 1 1 -1 -3 -3 -4 2 3 3 3 1 -1 0 -0 0 -1 -0 -0 0 -1 -0 0 1 2 4 4 4 2 1 2 2 2 3 2 1 3 3 -2
1 1 0 -0 1 1 1 1 0 -0 -1 -2 -2 -4 -2 2 3 3 3 -0 -1 0 5 0 0 0 1 0 1 0 1 2 3 4 4 4 1 3 3 2 1 2 -1 0 3 4 6
1 1 -0 -2 0 0 1 0 0 -1 -1 -2 -2 3 3 2 2 3 3 1 -1 -1 6 -1 -0 0 1 2 2 2 2 2 4 4 3 4 4 1 1 1 -1 -1 -0 6 3 6 4
0 0 -1 -1 -1 -1 -0 -0 -1 -1 -0 -1 -4 1 3 3 3 3 2 0 -1 4 4 1 0 1 1 1 1 3 3 3 3 3 3 3 2 3 2 2 1 1 4 5 4 6 8
2 0 -2 -1 0 -0 0 -1 -0 -0 -1 -0 -5 1 3 3 2 1 -1 -0 4 5 -4 1 2 -0 0 2 1 2 5 5 5 6 5 5 4 3 3 5 3 4 5 7 8 8 9
4 3 -1 -2 0 -0 -1 1 0 -1 -1 -2 -4 -1 3 3 3 -0 0 2 3 -2 1 -2 -1 -0 2 -0 0 0 5 5 3 3 6 6 4 5 4 5 5 6 7 8 9 9 9
5 3 1 -1 -0 -1 -1 -0 0 -1 -2 -2 -1 -4 1 3 2 0 2 5 4 2 -2 -0 -1 1 1 -0 0 0 2 3 2 1 6 8 6 3 4 4 4 5 6 3 8 3 7
4 2 3 -1 -0 -1 -1 -2 -2 -2 -3 0 -3 2 2 2 1 0 4 2 1 -3 -2 -2 -0 -2 -1 -1 0 -0 2 2 2 1 2 3 6 3 3 3 4 4 1 5 7 8 8
2 1 2 -2 -1 -1 -3 -2 -3 -4 -0 1 0 1 2 2 0 2 5 2 -1 -2 0 0 -1 -2 -2 -1 -0 0 2 2 1 1 1 2 5 4 3 4 4 4 3 2 1 1 2
3 0 0 -2 -2 -1 -3 -3 -4 -4 1 0 2 2 1 1 2 1 2 0 -0 -1 0 0 -1 -1 -1 -1 0 1 2 2 1 1 2 -0 3 6 4 1 -1 2 1 0 5 5 3
3 2 0 -1 0 1 -1 -2 -2 -3 1 -0 2 1 1 2 4 1 -1 -0 0 0 0 1 -0 -1 -1 -0 2 1 0 1 1 1 2 1 2 5 4 2 1 1 0 1 1 5 2
2 3 1 -1 0 1 -0 -3 -1 1 -0 1 1 2 1 2 1 -1 1 -0 -1 1 0 -1 -1 -1 -2 -1 -1 1 0 0 1 -0 -0 1 2 3 4 4 3 3 1 1 4 4 3
2 1 1 -1 -1 -2 -2 -3 -1 1 0 4 1 1 0 2 0 -1 1 -0 -1 0 -0 -1 -1 -1 -1 -1 -1 0 -1 -1 -1 -1 -1 1 3 1 0 1 1 -0 1 1 2 1 3
1 2 1 0 -1 -1 -2 -1 0 1 1 4 2 0 0 -1 -2 -1 1 1 -2 -1 1 -1 0 -1 -0 1 1 2 0 1 1 -0 -1 -1 3 1 1 -2 -2 -1 -1 0 1 1 1
1 1 2 1 0 2 2 1 0 1 2 4 1 -1 -0 -1 -2 -1 0 0 -1 -0 0 -0 -0 -1 1 1 -1 -1 -1 -1 -1 0 0 -0 1 2 3 -0 -2 1 -1 -1 -1 -1 0
-0 0 1 1 2 2 2 2 2 2 3 3 1 0 -2 -0 -2 -1 -1 0 -1 0 1 -0 1 0 -0 -1 -1 -1 -2 -2 -2 -2 -2 -0 -0 1 2 -2 1 -1 -3 -4 -2 -1 -0
-2 -1 1 1 1 2 2 -3 -4 -3 -3 -1 -1 -0 -1 -1 -2 -2 -1 0 1 1 1 1 2 0 -1 -0 1 -0 1 -0 -2 -2 -1 -2 -1 -1 2 -2 -4 -2 -2 -2 -2 -0 -2
-1 -0 1 1 3 0 2 1 -3 -3 -3 -2 -2 -2 -0 -2 -2 -2 -1 1 0 0 1 2 1 -0 0 0 -0 -0 -1 -3 -2 -1 -2 -1 -2 -1 -1 0 -3 -2 -3 -3 -4 -0 -1
-4 -0 0 0 0 2 1 1 1 -2 -3 -3 -3 -1 -0 -1 -2 -0 0 1 1 -0 1 1 1 1 -1 1 1 1 -1 -3 -0 -2 -1 -0 -0 0 1 0 -2 -2 -2 -3 0 0 -1
-4 0 1 0 0 2 2 1 1 1 -1 -2 -4 -2 -1 0 -1 -0 0 1 1 1 1 1 1 1 1 2 1 -0 -1 -1 -1 -3 -2 -2 -1 0 -1 0 -0 -2 -2 -1 -1 -1 -1
-2 -0 0 0 1 1 2 3 1 1 1 -0 -1 -3 -2 0 1 -0 0 0 0 0 1 1 2 1 2 2 -0 -1 -1 -2 -3 -3 -2 -1 -2 -1 -2 -0 -3 -3 -2 -2 -2 -2 -2

GFSGBSN_850_dewp_114.txt.gz
Dewpoint
3 2 2 2 2 2 1 2 2 3 3 3 3 1 2 -1 0 1 4 6 6 7 6 6 2 0 -1 -1 1 -0 4 2 -1 -4 -4 -4 -4 -4 -4 -4 -5 -6 -5 -3 -4 -4 -5
2 2 1 1 -0 1 1 1 0 2 3 2 2 1 1 0 -2 1 3 6 7 7 7 4 -1 0 0 -2 0 3 -3 -1 -2 -4 -3 -4 -3 -3 -3 -3 -4 -3 -3 -3 -4 -3 -3
2 2 3 2 1 0 2 -0 0 1 2 2 1 1 1 -1 1 4 4 6 6 7 4 0 -0 -0 -3 -3 -1 -0 -1 0 -2 -3 -2 -2 -3 -3 -2 -2 -2 -2 -2 -3 -4 -4 -3
2 2 2 2 0 -0 0 -1 1 1 2 2 1 1 0 -2 -1 4 5 6 5 5 2 1 -1 -0 -0 -3 -2 -0 -1 -2 -2 -4 -2 -1 -2 -3 -3 -2 -2 -1 -2 -0 -4 -4 -3
2 1 1 2 0 2 1 -1 1 2 2 2 1 0 -2 -5 -4 4 6 6 5 2 -0 0 0 -0 -1 -1 -2 -3 -3 -3 -2 -2 -2 -2 -1 -1 -1 -0 -1 -2 -1 -0 -1 -2 -2
1 1 2 1 0 1 0 -0 0 2 2 1 0 -2 -5 -2 -3 5 5 5 1 -1 2 1 1 -2 -2 -3 -4 -4 -3 -3 -2 -1 -1 -1 -0 -1 -1 -2 -1 -2 -1 -0 -0 -2 -3
4 -2 2 -0 1 1 0 -0 1 1 1 0 -2 -2 2 -3 -6 4 2 1 1 2 1 1 -1 -2 -2 -3 -3 -4 -3 -2 -2 -1 -0 0 0 0 -1 0 -2 -1 0 1 -1 -2 -1
5 -1 1 -1 1 0 0 0 0 0 1 -2 -4 4 3 3 2 3 3 2 2 -0 0 -1 -1 -2 -3 -1 -1 -2 -2 -1 -1 -0 -0 -0 1 -1 -1 -1 0 1 2 1 -0 -1 -1
5 -3 -1 1 -0 -0 0 0 1 1 -2 -4 -5 4 3 4 4 3 2 1 0 -1 -2 -2 -0 0 -1 -1 -0 -1 -1 -1 1 2 2 1 -1 1 1 1 2 1 1 1 2 0 1
3 -5 -1 0 -1 -1 -0 1 -0 -3 -4 -3 -7 1 4 3 3 3 2 -0 0 0 -1 1 0 -0 0 0 1 -0 -0 1 2 1 1 2 0 1 2 2 1 2 -0 1 2 4 2
0 -4 -1 -1 -1 -1 -1 -2 -4 -2 -1 -5 -6 2 2 1 2 3 3 -0 0 -1 -3 -2 1 0 1 1 1 2 2 2 3 3 2 2 3 3 3 1 0 1 -0 1 3 6 5
-4 -2 -2 -1 -2 -1 -2 -3 -4 -0 2 1 1 1 1 2 2 3 2 -1 -2 -2 -2 -2 1 1 2 1 2 3 2 2 3 3 2 3 2 2 2 0 -0 1 5 4 5 5 5
-3 -1 -2 -1 0 -1 -3 -4 -5 -0 1 2 3 2 3 2 3 2 -1 -1 -2 -1 -5 -1 1 2 2 3 3 3 4 4 5 4 1 3 3 2 2 4 4 5 5 6 5 5 5
0 -1 -0 -2 1 -0 -2 -3 -4 -2 1 2 2 1 0 1 0 -1 0 -3 -1 -2 -1 -2 1 1 2 2 2 4 5 5 4 4 3 4 2 4 3 5 5 5 5 7 8 7 7
-2 0 1 0 1 0 -1 -2 -3 -3 -0 2 1 0 0 -1 -1 -0 1 -1 -1 0 -1 -0 -1 1 1 -0 0 2 4 3 2 1 4 4 3 1 3 4 5 6 7 5 7 7 5
-4 -2 -1 -0 -0 -1 -2 -1 1 0 -0 -1 0 -0 -1 -2 -1 1 -1 1 -1 -2 -0 -1 1 -1 0 -0 0 1 2 2 2 1 1 3 5 3 3 4 4 5 4 6 6 8 6
-6 -5 -4 -3 -3 -3 -3 -4 1 1 1 -1 -1 -0 -0 -0 0 -0 -0 0 -1 -1 0 0 1 -0 -0 0 0 1 2 2 1 1 1 2 4 4 2 2 3 3 4 2 2 6 7
-4 -6 -6 -6 -5 -6 -6 -0 1 0 -0 -2 -0 -1 -0 -1 -1 -1 0 0 -0 -1 0 0 -1 -1 -0 0 1 1 2 1 1 1 2 0 2 3 2 1 -0 1 2 1 3 3 4
-3 -4 -8 -9 -9 -11 -3 0 2 2 1 -1 -0 0 -1 -0 -0 -0 -1 -1 -0 1 1 0 -0 -1 -1 -0 1 0 1 -0 1 0 0 0 2 2 -2 -3 -1 2 1 1 1 1 4
-1 -2 -3 -9 -10 -10 -2 0 2 2 2 1 -0 -2 -2 -1 1 -1 0 -1 -1 -0 1 -1 -0 -2 -2 -1 -1 0 0 -0 0 -1 0 0 1 1 -1 1 1 2 1 1 0 1 3
-0 -1 -1 -2 -9 -7 -3 -0 -0 1 2 2 0 -1 -0 -1 -1 -1 -0 -0 0 1 -0 -1 -1 0 0 0 0 1 0 -0 -1 -1 -1 -1 1 -1 0 0 0 -1 0 1 1 1 1
-1 1 -0 1 -1 -4 -3 -1 -1 -0 -0 1 1 1 -0 -1 -1 -1 -0 -0 -1 -0 0 0 1 0 0 1 1 1 0 -0 1 -1 -1 -1 0 1 1 -2 -2 -2 -2 -0 0 1 1
-4 0 1 1 1 0 -1 -1 -2 -1 0 -0 0 1 1 -1 -2 -1 -1 0 -0 0 0 -0 0 1 0 0 -0 -1 -1 -1 -1 -1 -0 -1 0 1 2 -2 -2 -0 -2 -1 -1 0 1
-13 -3 1 1 2 2 2 1 -2 -3 -4 -3 -2 -0 0 -1 -1 -1 -2 0 0 1 1 0 0 0 -0 -1 -1 -1 -1 -1 -2 -2 -2 -1 -1 -0 -0 -4 -3 -4 -4 -4 -2 -0 -0
-23 -8 -3 1 2 2 2 -2 -3 -3 -3 -3 -2 0 0 -1 -2 -2 -3 -0 1 0 0 1 1 -0 -0 0 -1 -2 -3 -3 -2 -2 -2 -2 -2 -1 -2 -1 -6 -3 -3 -1 -3 -4 -1
-16 -23 -6 -2 1 2 2 -0 -0 0 -2 -3 -2 -2 -2 -0 -2 -2 -1 -1 0 -0 -0 1 0 -1 -1 0 -1 -1 -2 -3 -3 -4 -2 -2 -3 -2 -1 -3 -3 -10 -4 -4 -6 -4 -2
-14 -19 -18 -5 -2 0 2 1 1 2 2 -1 -4 -3 -1 0 -1 -1 -1 -0 1 0 0 1 -0 -1 0 0 1 1 -1 -4 -3 -1 -2 -1 -1 -1 -1 -0 -2 -6 -3 -4 -6 -12 -2
-13 -15 -21 -10 -3 -1 -0 1 1 2 2 2 -1 -4 -2 -1 -1 -1 -1 -0 1 1 1 1 -0 -1 1 0 1 0 -1 -2 -2 -4 -2 -3 -1 -0 -1 -0 -2 -3 -3 -3 -7 -2 -2
-8 -15 -17 -7 -4 -1 -0 -0 1 2 2 2 1 -0 -2 -2 -1 -1 -1 -1 0 0 0 1 1 1 1 1 -0 -1 -1 -2 -3 -2 -4 -1 -3 -3 -3 -2 -6 -3 -5 -5 -3 -3 -2

GFSGBSN_850_dewp_117.txt.gz
Dewpoint
2 2 3 2 2 2 1 1 1 0 2 2 4 3 2 1 -5 -0 2 6 5 7 7 6 5 -0 -3 -1 -0 2 5 1 -1 -3 -5 -5 -5 -5 -4 -4 -4 -5 -4 -3 -4 -4 -4
2 3 2 2 1 0 0 1 0 -0 2 2 2 2 2 1 -1 -4 2 6 7 7 7 6 2 -1 -2 1 3 3 -0 -3 -5 -6 -5 -5 -3 -4 -3 -3 -3 -2 -2 -3 -4 -5 -5
3 1 2 2 0 -0 0 1 1 0 2 2 2 1 2 1 -2 3 -1 6 7 7 6 2 0 -1 -2 3 3 -0 0 -1 -3 -3 -3 -3 -3 -3 -3 -3 -2 -2 -2 -3 -5 -5 -4
4 3 2 2 0 1 -1 1 2 1 2 2 2 0 1 -1 3 1 4 6 6 6 1 1 -1 -4 -2 -1 0 -0 -2 -2 -3 -4 -3 -2 -2 -3 -3 -2 -3 -2 -2 -1 -5 -4 -4
5 1 1 2 1 -0 0 1 1 2 2 1 1 0 -1 -5 4 5 6 6 5 4 2 0 -0 -2 -2 -1 -1 -1 -1 -3 -2 -2 -1 -1 -1 -1 -1 -2 -3 -3 -1 -1 -1 -3 -2
-0 -3 -0 2 1 -0 -1 0 2 2 2 1 -0 -2 -2 -0 3 5 5 4 3 1 1 0 -2 -5 -2 -3 -2 -3 -3 -3 -2 -1 -1 -1 -1 -2 -2 -3 -2 -3 -3 -2 0 -3 -3
-7 -3 2 1 0 -0 -2 -0 -0 1 -0 -3 -4 2 4 2 4 3 3 1 1 -1 -1 -1 -2 -2 -3 -5 -4 -4 -3 -3 -2 -1 -0 0 -1 0 -2 -1 -2 -1 -0 0 -1 -2 -1
-7 -5 2 2 -1 -1 -1 -1 -0 0 -4 3 3 3 0 3 3 2 2 2 -0 -1 -1 -1 -3 -2 -3 -2 -2 -3 -2 -2 -1 -1 -1 -1 1 -1 -1 -1 -0 0 1 0 -1 -1 -1
-5 -4 -0 0 -1 1 0 -0 -2 -4 -4 3 3 0 1 -0 3 2 1 -0 -1 -2 -2 -1 0 -1 -1 -1 -0 -1 -2 -1 1 1 1 2 -1 0 1 1 2 1 1 1 1 -0 0
-3 -3 -3 1 -1 -1 -3 -4 -3 -4 -7 2 3 3 3 3 3 2 -0 -1 -1 -1 -1 1 -0 0 -0 0 1 -0 -1 1 2 1 2 2 -0 1 2 2 1 1 -1 0 2 3 4
-4 -1 -3 -2 -3 -2 -4 0 1 -5 -3 1 3 3 2 2 1 2 -0 -1 0 -1 1 -2 1 0 0 1 1 1 1 2 2 2 2 -0 2 2 3 2 1 1 -1 2 4 5 6
-6 -1 1 1 -3 -4 -3 1 1 0 -0 1 1 1 2 3 3 2 0 -0 -2 -3 -2 -2 0 0 1 1 2 2 3 3 3 3 3 3 1 2 2 1 -0 -1 2 4 5 5 4
-8 -5 1 -1 -3 -4 -4 1 2 2 3 2 2 2 2 2 2 2 0 -2 -2 -1 -5 -1 1 2 2 3 3 3 4 4 5 4 1 3 3 2 2 4 4 4 5 4 3 2 4
-6 -8 -4 -1 -3 -4 -5 -3 2 2 3 2 2 1 2 -0 -1 -1 -0 -3 -1 -2 -2 -2 0 1 2 2 3 4 5 5 4 4 5 4 2 3 3 4 5 5 5 7 7 7 5
-6 -7 -8 -5 -4 -4 -7 -4 -3 2 2 1 1 -0 -1 -1 -1 0 -2 -1 -1 -1 -1 -0 -1 1 0 0 1 4 4 2 2 3 3 4 3 0 2 4 4 6 7 5 7 7 4
-7 -7 -7 -8 -6 -5 -7 -4 -2 -4 -4 -1 -0 -1 -1 -0 0 -0 -1 -0 -1 -2 -0 -1 1 -1 -0 -0 0 1 2 1 2 1 1 2 5 2 2 3 4 5 4 7 5 7 6
-10 -9 -8 -8 -9 -11 -4 -0 -0 -1 -2 -3 -2 -2 -1 -1 -0 -1 -0 -1 -1 -1 0 0 1 0 -0 0 0 1 1 1 1 1 1 2 3 2 1 2 2 3 3 4 3 5 6
-7 -11 -12 -13 -13 -13 -5 1 1 1 -2 -3 -2 -2 -2 -2 -1 -1 -0 -0 0 -0 0 0 -1 -0 -0 -0 1 1 2 1 1 1 2 0 2 3 2 -0 -0 0 2 1 3 3 4
-5 -5 -10 -12 -13 -6 -1 -0 1 1 -0 -3 -2 -2 -2 -2 -1 -1 -1 -1 -0 0 0 -0 -0 -1 -1 -1 1 0 -0 -1 1 0 0 0 1 1 -3 -4 -2 1 0 0 1 1 3
-1 -3 -5 -9 -9 -4 -1 1 0 1 0 -2 -2 -2 -3 -2 -0 -1 0 -1 -2 -1 0 -0 -1 -1 -1 -1 -1 0 -0 -1 -1 -0 0 0 0 -0 -1 -1 0 1 -0 0 0 0 3
-0 -0 -1 -4 -7 -5 -1 -0 -1 -1 -1 1 -1 -1 -0 -1 -1 -1 -0 -0 -0 -0 -1 -1 -1 0 1 0 0 1 -0 -0 -2 -1 -0 -1 0 -1 -1 0 -0 -1 -1 0 -0 0 0
-4 0 1 1 -2 -5 -3 -1 -1 -1 -0 -1 0 0 0 -1 -1 -2 -1 -0 -1 -1 0 -0 0 1 -0 0 0 0 0 -0 0 -1 -1 -2 -0 0 1 -1 -2 -1 -2 -1 -0 1 1
-16 -4 1 1 -0 -1 -1 0 -0 -0 -1 -1 -0 0 0 -1 -2 -2 -1 0 -0 0 -0 -0 0 1 0 -1 -0 -1 -1 -1 -1 -1 -1 -1 -0 0 1 -2 -3 -3 -2 -2 -1 -0 0
-20 -16 -3 1 1 1 1 -0 -2 -4 -4 -4 -3 -1 -0 -1 -2 -2 -2 -1 0 0 1 0 0 -0 -0 -1 -1 -0 -0 -1 -1 -1 -2 -1 -1 -0 0 -5 -9 -9 -4 -4 -2 -2 -1
-12 -20 -15 -4 0 1 1 -0 -2 -2 -4 -2 -2 -1 -0 -1 -2 -2 -2 -2 -0 0 0 1 0 -0 -1 -0 -1 -2 -4 -4 -3 -2 -2 -2 -2 -1 -3 -3 -7 -7 -3 -2 -1 -4 -2
-4 -14 -21 -11 -4 -0 1 1 -0 0 -1 -4 -3 -2 -2 -1 -2 -2 -2 -2 -1 -0 -1 -0 1 -0 -0 -0 -1 -1 -2 -4 -4 -5 -2 -2 -3 -2 -2 -3 -8 -13 -5 -4 -7 -6 -6
1 -10 -16 -21 -9 -3 -0 1 1 1 2 1 -2 -3 -1 -1 -1 -2 -2 -1 0 0 -0 0 0 -0 0 -0 1 1 -0 -4 -2 -2 -2 -1 -1 -0 -1 -1 -4 -7 -4 -5 -11 -16 -4
2 -3 -13 -18 -20 -8 -3 -2 1 1 1 2 1 -1 -3 -1 -2 -2 -1 -1 0 1 1 -0 -1 -1 0 0 1 -0 -1 -2 -1 -3 -3 -3 -2 -1 -1 -1 -4 -4 -4 -5 -10 -4 -3
3 1 -10 -16 -17 -10 -4 -2 -1 1 1 2 2 1 1 -1 -4 -3 -1 -2 -1 0 0 1 -0 0 -0 0 -0 -1 -0 -2 -3 -1 -5 -2 -4 -4 -3 -3 -7 -4 -5 -5 -5 -4 -4

GFSGBSN_850_dewp_123.txt.gz
Dewpoint
3 3 3 2 2 1 -0 0 -0 -2 1 1 4 3 3 3 0 -1 -5 4 3 5 7 6 2 -4 -4 -1 4 4 3 -2 -5 -7 -8 -6 -5 -5 -4 -4 -5 -5 -3 -3 -4 -5 -5
4 3 3 0 1 0 -1 -0 -1 0 2 1 3 2 4 2 0 -2 -8 4 1 6 7 5 -2 -4 -0 4 4 -1 -4 -7 -8 -10 -8 -8 -4 -5 -4 -3 -5 -3 -2 -3 -6 -6 -6
3 3 2 1 2 1 1 0 1 2 2 3 4 3 2 1 -4 -4 -3 5 5 4 5 -0 -3 -2 2 4 2 -1 -3 -6 -6 -6 -7 -5 -5 -6 -5 -4 -3 -3 -5 -5 -6 -5 -5
1 -2 -2 0 2 2 1 0 0 2 3 1 0 1 -1 -2 1 -5 3 5 6 5 0 -1 -2 -3 2 1 -1 -3 -3 -3 -3 -4 -5 -4 -5 -6 -4 -3 -5 -3 -5 -6 -9 -5 -4
-1 -3 -3 -1 2 1 1 1 2 2 1 -1 -1 -4 1 3 -5 0 5 6 5 1 -2 -4 -5 -5 1 1 -1 -2 -3 -2 -2 -2 -2 -2 -3 -2 -3 -3 -3 -4 -3 -2 -3 -4 -3
-3 -2 0 2 2 1 -3 1 1 -2 -2 -2 -4 -0 4 4 3 6 5 4 1 -1 -3 -5 -6 -5 -0 -1 -2 -3 -3 -3 -2 -2 -2 -2 -2 -2 -2 -2 -2 -2 -1 -2 -2 -3 -3
-8 -7 -6 -6 -7 -7 -3 3 2 0 -3 1 2 1 3 4 3 4 3 0 -2 -3 -4 -3 -3 -3 -3 -2 -4 -3 -3 -3 -2 -2 -1 -1 -2 -1 -2 -2 -3 -1 -0 0 -1 -2 -2
-10 -10 -9 -8 -5 -5 -4 1 3 2 2 3 -0 2 3 3 3 2 -0 -2 -2 -2 -1 -3 -4 -4 -3 -3 -4 -3 -2 -2 -1 0 -1 -2 -1 -2 -2 -2 -1 -0 1 -0 -1 -2 -1
-9 -11 -6 -4 -6 -7 -4 2 1 2 2 3 3 3 3 3 2 -1 -4 -3 -1 -0 -0 -0 -0 -1 -1 -0 -1 -2 -2 -0 -0 -1 0 -1 -2 -1 -0 1 1 0 1 0 0 -1 -0
-7 -9 -4 -5 -8 -5 1 0 1 1 1 1 3 3 2 2 -1 -2 -2 -2 -2 -2 -0 -0 -0 -0 -0 0 0 -1 -0 0 0 1 1 1 -1 0 1 2 1 2 -1 0 1 3 4
-7 -7 -2 -6 -8 -2 -0 -0 2 0 1 1 1 1 1 1 -1 -2 -2 -2 -4 -3 1 -2 -0 0 -0 1 1 0 1 1 1 1 1 -1 1 2 3 2 0 1 -1 0 1 5 5
-6 -7 -6 -2 -1 -2 -1 -1 -0 1 1 0 1 1 -0 -0 -2 -3 -2 -2 -4 -1 1 -2 0 0 1 1 2 2 3 2 2 3 1 2 1 2 1 1 1 0 2 3 4 5 5
-4 -6 -8 -5 -3 -3 -2 -2 -1 -1 -0 1 1 1 1 -1 -3 -4 -3 -3 -1 -1 -5 -0 0 1 1 2 3 3 3 3 3 4 1 1 2 1 2 3 3 3 5 4 3 4 4
-6 -5 -7 -7 -4 -4 -4 -3 -4 -2 -1 -2 -2 -2 -1 -2 -3 -5 -4 -2 -1 -1 -2 -2 -0 1 2 1 2 4 4 4 3 3 5 4 3 2 2 3 4 6 5 6 6 6 5
-10 -7 -7 -10 -4 0 1 0 -1 -3 -4 -2 -2 -2 -2 -2 -3 -4 -3 -1 -1 -1 -2 -0 0 1 -0 -0 1 3 4 3 1 3 4 5 3 -0 2 2 4 4 6 5 7 5 6
-13 -12 -10 -9 -1 1 1 0 -1 -2 -4 -3 -4 -3 -3 -2 -3 -3 -1 -0 -1 -3 -1 -1 -0 -1 -0 -1 1 2 1 0 2 2 0 2 6 1 1 3 3 4 3 4 4 5 6
-10 -15 -13 -11 -1 1 1 0 -1 -2 -3 -3 -4 -4 -3 -3 -3 -3 -1 -1 -1 -1 -1 -0 0 -0 -1 0 -0 0 1 -1 1 1 1 2 3 2 -0 1 3 2 1 2 3 4 5
-3 -9 -11 -10 -3 -0 -0 -0 -1 -1 -3 -3 -4 -3 -3 -4 -2 -2 -1 -1 0 0 0 0 -1 -1 -0 -1 0 0 0 -1 -0 1 2 1 1 3 1 -1 -2 0 0 1 3 2 3
-1 -2 -7 -8 -6 -2 -0 -1 -1 -1 -2 -3 -5 -5 -3 -4 -2 -1 -2 -2 -1 -0 -0 -0 -0 -1 -1 -0 1 -0 -0 -2 0 0 0 -0 1 1 -3 -5 -3 0 -0 -0 1 0 2
-11 -0 -0 -4 -7 -4 0 -1 -1 -2 -1 -2 -3 -3 -4 -3 -1 -2 -2 -1 -2 -1 -0 -1 -1 -2 -1 -1 -1 0 -1 -2 -1 0 0 -0 0 -0 -1 -3 -2 1 0 -0 0 2 2
-10 -12 -0 1 -1 -6 -3 -1 -2 -2 -0 -2 -2 -1 -2 -2 -2 -2 -1 -1 -1 -2 -1 -1 -1 0 0 1 -1 -0 -1 -1 -2 -1 0 -1 1 -1 -1 -1 -1 0 0 -1 -1 -0 1
-0 -11 -9 0 1 -1 -3 -1 -0 -0 -2 -2 -2 -1 -1 -2 -2 -2 -2 -1 -1 -1 -1 -1 -0 -0 0 -0 -1 -1 0 -1 -1 -1 -1 -2 1 -0 -0 -1 -1 -1 -2 -2 -2 0 0
1 -1 -12 -7 -0 1 -1 0 -1 -2 -4 -3 -2 -0 -1 -2 -3 -3 -3 -1 -1 -0 -1 -1 -1 0 -0 -1 -2 -1 -1 -1 -1 -0 -1 -1 -1 -0 0 -3 -4 -6 -6 -3 -3 -1 -1
-1 2 -1 -14 -7 -0 1 1 -0 -1 -2 -4 -4 -2 -1 -3 -2 -2 -2 -1 -0 -0 -1 -0 0 -0 -3 -1 -1 -0 -0 -0 -0 -1 -1 -1 -2 -1 0 -5 -13 -14 -4 -5 -2 -2 -2
-3 -0 2 -3 -15 -8 -1 1 1 -1 -1 -3 -3 -2 -2 -2 -2 -2 -2 -2 -2 -1 1 0 -0 -1 -1 -1 -1 -2 -5 -5 -2 -2 -1 -2 -2 -0 -1 -2 -8 -12 -8 -3 -4 -7 -5
-9 0 1 2 -7 -15 -7 -0 1 1 -0 0 -3 -3 -2 -2 -3 -3 -3 -3 -2 -2 -2 -1 -0 0 -0 -1 -1 -2 -5 -5 -4 -5 -2 -3 -3 -2 -2 -3 -10 -21 -8 -4 -7 -12 -10
-4 -4 1 1 1 -9 -15 -6 -1 1 0 1 1 0 -3 -2 -3 -2 -2 -2 -2 -1 -2 -1 -0 -0 -0 -1 1 0 -1 -4 -3 -3 0 -0 -1 0 -0 -1 -4 -10 -5 -5 -13 -17 -12
6 5 0 2 2 1 -10 -16 -7 -1 1 1 1 1 1 -2 -2 -2 -3 -2 -1 -0 -1 -1 -0 -0 -1 0 -0 -1 -1 -2 -2 -4 -3 -1 -1 -0 -1 -1 -3 -6 -4 -7 -13 -11 -6
6 6 5 1 1 3 -1 -11 -16 -10 -2 1 1 1 2 1 1 1 1 0 -0 -2 -2 -1 -0 -2 -1 -2 -2 -1 0 -2 -3 -2 -5 -3 -5 -5 -3 -4 -8 -6 -6 -7 -8 -7 -6

GFSGBSN_850_dewp_126.txt.gz
Dewpoint
3 3 3 2 3 3 1 -1 -1 1 1 4 4 3 3 2 1 2 -2 6 6 6 5 2 -2 -4 -3 3 3 1 -2 -4 -8 -8 -8 -5 -4 -5 -5 -5 -5 -6 -5 -4 -4 -4 -4
3 3 3 4 0 3 2 1 1 1 1 3 3 3 3 3 -0 -3 -2 5 7 7 5 4 -3 -3 1 4 -1 -3 -4 -8 -10 -11 -10 -7 -4 -5 -5 -5 -7 -5 -5 -6 -6 -6 -7
4 3 3 3 2 2 3 1 3 2 4 3 2 2 3 1 -5 -5 2 4 6 5 5 1 -3 1 2 3 -1 -3 -6 -8 -8 -8 -10 -8 -7 -5 -6 -5 -4 -5 -8 -10 -9 -7 -6
4 4 4 4 -3 -1 2 2 3 1 1 -0 -0 -0 -2 -3 -2 -2 4 4 7 4 3 -1 0 -1 1 2 -1 -3 -3 -3 -3 -5 -6 -6 -8 -5 -4 -4 -6 -6 -7 -8 -8 -5 -4
3 2 -1 -4 0 1 0 -1 -1 -1 -3 -4 -3 2 3 1 -2 4 5 4 4 2 -0 -1 -2 -1 1 -2 -2 -3 -3 -2 -2 -2 -3 -4 -5 -2 -3 -4 -3 -4 -5 -4 -5 -4 -4
-1 -0 1 -1 1 -0 -1 0 -3 1 3 3 4 4 1 -1 2 5 5 4 0 -3 -5 -5 -4 -3 -0 -1 -3 -3 -3 -3 -2 -2 -2 -1 -1 -1 -1 -1 -2 -1 -1 -2 -3 -4 -4
1 2 -2 -3 -0 1 -1 -2 1 -0 1 2 3 3 2 3 3 1 -0 -3 -1 -3 -4 -2 -2 -2 -2 -4 -4 -3 -3 -2 -1 -2 -1 -1 3 2 -1 -2 -2 -1 -1 -1 -3 -4 -2
3 1 -7 -1 1 -1 0 3 2 3 3 2 3 2 3 3 2 0 -1 -3 -3 -2 -1 -1 -2 -2 -2 -3 -3 -2 -2 -1 -1 0 -1 -1 2 -2 -2 -1 -1 0 1 1 -1 -2 -2
-2 1 -4 -0 -0 -0 -1 -1 -0 2 2 3 3 3 3 2 2 1 -3 -3 -1 -1 -1 -0 -1 -0 -0 -0 -1 -0 -0 0 -0 1 1 2 -1 -2 -1 1 1 1 1 1 3 -0 -1
-2 -5 0 -1 -1 0 -1 -1 -1 2 2 2 3 3 1 -1 -2 -2 -2 -1 -1 -2 5 -0 0 -0 -0 0 1 -0 -0 1 1 2 1 2 -1 -0 1 2 1 3 -1 -0 1 3 4
-7 -1 -1 -1 0 -0 0 1 -0 -3 -2 0 0 0 0 -1 -3 -2 -3 -3 -4 -3 6 -2 -0 -0 -0 1 1 1 1 2 2 2 1 2 1 2 3 2 0 2 -1 2 3 4 5
-7 -6 -2 -1 1 0 -0 -0 -0 0 -1 -4 -1 -1 -1 -4 -3 -3 -2 -3 -5 7 4 2 0 0 1 1 2 2 3 2 3 2 1 2 1 1 2 1 1 0 2 3 4 5 5
-7 -8 -4 -3 -3 -2 -1 -2 -1 -1 -0 -0 -0 -1 -2 -4 -4 -4 -4 -3 9 5 -4 1 2 1 1 1 2 3 3 3 4 6 6 2 2 1 2 3 3 3 5 6 6 6 6
-8 -9 -5 -4 0 0 0 -2 -2 -2 -2 -2 -2 -2 -4 -5 -6 -7 -4 0 5 -1 -1 -2 -0 1 2 0 2 3 3 3 3 3 5 5 6 2 2 3 6 5 6 7 7 6 5
-11 -11 -8 -2 0 0 -0 -1 -3 -3 -2 -2 -3 -4 -4 -4 -3 -4 -2 5 3 0 -1 0 0 1 0 -0 1 1 3 3 1 3 4 4 5 -0 1 1 3 4 4 4 7 4 5
-13 -13 -10 -0 1 0 -0 -1 -2 -3 -3 -3 -4 -4 -4 -4 -4 -3 2 2 0 -2 -1 -1 -0 -1 0 -0 1 1 1 -0 2 2 1 2 5 1 1 2 3 4 3 5 6 6 6
-4 -11 -12 -5 0 0 -1 -1 -2 -3 -3 -3 -4 -4 -4 -4 -4 -1 5 1 -0 -1 -1 0 -0 -0 -1 0 0 0 0 -1 0 1 1 2 3 2 1 3 2 3 2 2 2 4 5
-2 -2 -9 -9 -3 0 -0 -1 -2 -3 -3 -3 -4 2 -4 -4 1 -1 0 -0 0 0 0 0 0 -0 -0 -0 0 -0 -0 -1 -0 1 1 1 2 4 0 -1 -2 -1 1 -0 5 4 3
-12 -4 -1 -5 -7 -4 0 -0 -1 -2 -3 -4 -5 -5 -4 -4 3 -0 -1 -1 -0 -0 -0 -0 -0 -1 -1 -0 -0 -0 -0 -1 0 1 1 0 2 4 -2 -3 -1 1 0 -1 1 2 4
-3 -12 -9 -1 -1 -5 -4 -1 -2 -2 -1 -4 -4 3 -4 -4 -3 -2 -2 -1 -1 -1 -0 -1 -1 -1 -2 -1 -2 -0 -1 -2 -0 0 0 -0 2 2 1 -3 -3 -1 -0 -1 1 5 2
0 -2 -12 -8 -1 -0 -3 -3 -0 -1 -2 -2 -3 -1 -2 1 -2 -1 -2 -2 -1 -2 -1 -1 -1 -0 -1 -1 -1 -1 -1 -2 -2 -1 1 1 3 1 1 -0 -0 -0 -1 -1 2 -0 2
-5 1 -3 -13 -7 -1 -1 -2 -0 -1 -3 -3 -1 -1 -2 -2 -2 -2 -2 -1 -3 -3 -2 -1 -0 -1 -0 -1 -4 -3 -2 -1 -2 -1 -1 -1 2 0 1 -3 -1 0 -1 -1 -1 -1 -1
-11 -2 1 -4 -13 -5 -1 -0 0 -1 -2 -4 -3 -1 -2 -2 -2 -2 -4 -3 -2 -1 -1 -2 -2 -1 -1 -2 -2 -2 -2 -2 -2 -1 -1 -0 0 0 -0 -3 -4 -5 -9 -6 -5 -4 -3
-3 -9 -1 2 -5 -13 -6 0 1 -0 -1 -3 -4 -3 -1 -4 -3 -3 -3 -1 -1 -0 -1 -0 0 -0 -3 -1 -1 -1 -0 -0 -0 -1 -1 -0 -0 -0 0 -4 -4 -11 -5 -6 -6 -6 -3
5 -9 -5 1 2 -5 -14 -8 0 1 -1 -1 -3 -3 -2 -3 -3 -3 -3 -2 -2 -2 0 1 0 -0 -1 -1 -1 -2 -4 -5 -2 -1 -0 -1 -1 -0 -1 -4 -8 -10 -9 -4 -3 -9 -7
6 5 -8 -2 2 2 -5 -14 -9 -0 1 0 -0 -3 -3 -2 -4 -3 -3 -2 -2 -3 -2 -1 -1 -0 0 -1 -1 -1 -6 -6 -5 -4 -2 -1 -1 -1 -2 -2 -8 -18 -7 -5 -6 -12 -9
6 6 5 -3 1 2 2 -6 -15 -8 -0 1 1 0 -1 -1 -3 -3 -3 -3 -2 -2 -2 -1 -0 1 -0 -1 -1 -1 -4 -4 -4 -3 0 1 1 2 1 -0 -4 -9 -5 -5 -10 -15 -13
5 6 6 6 5 3 3 2 -9 -14 -6 0 0 1 1 -1 -0 -1 -2 -3 -2 -1 -1 -1 0 0 0 1 -0 -2 -1 -2 -2 -4 -2 -1 0 1 -0 1 0 -8 -4 -7 -12 -12 -6
4 5 6 6 5 5 3 3 1 -11 -15 -6 -0 -0 1 2 1 1 0 0 0 -3 -3 -2 0 -1 0 0 -1 -2 -1 -1 -3 -4 -5 -3 -5 -5 -3 -4 -6 -7 -5 -6 -8 -7 -5

GFSGBSN_850_dewp_132.txt.gz
Dewpoint
3 3 2 1 3 2 2 4 3 3 3 4 3 4 2 1 1 3 3 4 6 5 -2 -0 -1 0 1 -1 -2 -3 -4 -5 -6 -5 -4 -5 -6 -6 -6 -7 -7 -8 -8 -7 -7 -6 -6
3 3 3 1 -1 1 2 3 4 4 4 3 3 2 1 -1 -1 4 5 4 5 3 -1 -2 -2 2 -0 -0 -2 -4 -5 -7 -5 -5 -5 -5 -6 -8 -8 -8 -8 -6 -8 -9 -9 -9 -8
3 3 2 -0 -2 3 0 0 2 2 3 3 3 2 -4 -1 -0 4 5 5 4 4 -2 1 1 0 -2 -2 -2 -2 -3 -8 -11 -5 -7 -9 -8 -6 -8 -8 -6 -9 -8 -9 -10 -9 -7
2 3 2 -2 2 2 2 -0 -4 -4 1 2 2 -2 -6 -4 3 6 6 6 5 4 0 1 -0 -0 -1 -2 -3 -2 -2 -2 -5 -9 -13 -14 -9 -7 -4 -6 -8 -6 -7 -4 -7 -6 -4
2 2 3 3 4 3 3 3 3 2 1 -2 -4 -3 -5 -3 6 6 5 5 3 0 -0 -0 0 -2 -1 -2 -3 -2 -2 -1 -1 -3 -5 -6 -4 -2 -2 -1 1 -3 -2 -4 -4 -4 -4
2 2 1 3 4 4 4 3 3 2 2 2 -1 -2 1 3 4 5 4 0 -3 -3 -3 -3 -3 -3 -1 -3 -3 -2 -2 -1 -1 -1 0 -1 0 1 1 2 2 -1 -2 -5 -5 -4 -3
1 2 2 3 4 4 3 4 3 0 3 0 1 3 4 5 3 -1 -2 -2 -2 -2 -3 -3 -3 -3 -4 -3 -2 -1 -2 -1 -1 -2 -0 -2 4 2 -1 -3 -3 -1 0 1 0 -2 0
1 2 2 2 1 2 3 3 3 3 3 2 3 3 3 1 -1 -1 1 -1 -0 -0 0 -0 -0 -1 -1 -2 -1 0 -0 -1 -1 3 -1 2 2 -2 -2 -1 -0 0 3 3 0 0 0
2 0 1 0 2 0 2 2 2 2 3 4 3 3 4 3 -0 -3 -4 -2 -1 -0 -1 0 -0 1 1 0 1 1 1 0 0 3 2 3 0 -2 -1 1 2 2 2 2 4 2 1
-3 -2 -2 0 0 -0 -0 2 2 1 1 2 2 -1 -2 -3 -4 -4 -2 -1 -2 -0 6 -0 -0 -0 1 1 1 1 1 2 1 2 2 2 -1 -0 2 3 1 3 0 2 3 4 4
-5 -1 0 -1 -1 -1 0 0 -0 -1 1 1 2 1 -1 -5 -5 -5 -5 -5 -5 -0 5 -1 -0 -0 1 1 1 2 2 2 3 2 2 3 1 2 4 2 1 2 2 3 4 5 4
-6 -2 -0 -1 -2 -2 -1 0 1 0 -0 -2 1 -0 -2 -4 -6 -7 -5 -5 -1 7 4 2 -0 -0 1 1 1 2 3 3 2 3 2 2 1 1 2 1 1 1 3 4 3 5 5
-10 -4 -1 -1 -3 -3 -3 -2 -2 -1 -1 -1 -4 -3 -4 -4 -4 -7 -4 0 5 5 -2 2 2 -0 -0 -0 1 1 2 3 4 5 5 4 3 1 1 3 2 4 4 7 6 7 5
-12 -7 -2 -1 -1 -2 -3 -4 -3 -3 -3 -3 -5 -5 -4 -5 -6 -7 -1 4 4 0 1 -1 -0 0 0 -0 1 -0 2 3 2 3 5 6 4 2 2 3 4 4 4 6 7 6 5
-8 -11 -6 -3 -1 -2 -2 -3 -4 -5 -5 -5 -4 -5 -5 -6 -6 -4 1 6 6 2 -1 0 0 0 0 -0 -0 -0 -0 1 0 1 4 5 5 0 2 1 2 4 6 3 6 4 6
-5 -5 -8 -7 -4 -1 -1 -1 -2 -4 -5 -6 -6 -5 -3 -4 -3 1 4 3 1 -1 -1 -1 -1 -2 -0 -1 -0 -1 -1 -2 0 -0 0 2 4 1 2 1 2 3 2 5 6 6 6
-4 -7 -3 -4 -6 -5 -4 -2 -3 -4 -5 -5 -6 1 -3 -4 -1 2 6 3 -0 -1 -1 -0 -1 -1 -2 -2 -2 -2 -2 -1 -2 -0 -0 1 2 3 1 2 5 5 5 3 2 3 6
-1 -3 -8 -5 -1 -2 -4 -4 -2 -3 -6 -6 -2 5 -6 -6 4 0 2 -0 -1 -1 -0 -0 -0 -1 -1 -2 -1 -1 -2 -3 -2 -1 1 1 2 3 2 -1 -2 -1 -1 -2 2 4 2
-8 -1 -2 -8 -6 -2 -2 -3 -1 -1 -6 -6 0 -1 -5 -6 7 2 -1 -0 -0 -0 -0 -0 -0 -1 -2 -2 -1 -2 -2 -1 -2 -0 1 0 2 3 2 -1 -1 -0 -1 -1 -2 2 3
2 -7 -1 -1 -8 -7 -3 -2 -1 -1 -3 -6 -0 4 0 -2 -3 -1 -1 -1 -0 -0 -0 -1 -1 -2 -2 -1 -2 -2 -2 -2 -1 -0 0 -0 0 1 3 1 0 0 -1 -1 0 3 3
5 1 -7 -0 -1 -8 -6 -3 -2 -1 -2 -4 -2 1 -3 4 -1 -2 -3 -3 -1 0 -0 -1 -1 -1 -2 -3 -5 -3 -4 -4 0 -1 -0 1 2 1 1 0 -0 -0 -0 -1 0 0 1
5 5 -3 -6 1 -1 -8 -6 -3 -3 -2 -1 1 0 -1 -3 -3 -3 -3 -4 -3 -3 -2 -1 -0 -3 -2 -2 -4 -3 -4 -6 -5 -1 -0 -0 2 -0 0 -2 -2 -1 -2 -1 -1 -2 -0
4 5 3 -7 -4 1 1 -7 -8 -4 -2 0 -2 -1 -1 -2 -3 -3 -3 -4 -3 -4 -5 -4 -3 -2 -2 -2 -3 -3 -3 -3 -5 -4 -1 -1 1 1 2 -1 -1 -1 -4 -4 -3 -3 -3
4 4 6 4 -7 -3 2 2 -7 -8 -3 -1 -2 -3 -1 -1 -4 -4 -5 -4 -3 -3 -2 -3 -2 -2 -2 -2 -3 -4 -2 -2 -2 -3 -3 -2 -1 0 2 -0 0 -3 -6 -6 -5 -5 -5
4 4 4 6 5 -3 -2 3 3 -9 -8 -2 -1 -2 0 0 -3 -3 -5 -5 -5 -4 -2 -1 -1 -2 -1 -2 -1 -3 -3 -3 -2 -2 -2 -3 -1 1 2 1 -2 -5 -6 -6 -8 -7 -7
2 4 4 4 5 6 2 0 3 -0 -10 -6 -3 -0 -2 -0 -1 -3 -4 -5 -3 -4 -4 -3 -2 -2 -1 -0 -1 -1 -3 -6 -2 -0 -3 -2 -1 1 1 1 -1 -9 -8 -6 -7 -7 -9
0 1 3 4 4 5 6 5 4 3 -1 -8 -5 -2 -0 1 -0 -1 -3 -2 -3 -4 -3 -2 -1 0 1 0 0 -0 -3 -6 -5 -3 1 1 1 2 2 2 1 -5 -8 -6 -9 -10 -9
1 0 1 3 4 4 5 5 5 4 3 -0 -5 -4 -0 1 0 -0 -0 -3 -3 -3 -3 -1 -0 1 1 1 -0 -1 -3 -4 -3 -4 -0 1 2 2 1 2 1 -5 -5 -7 -9 -11 -10
1 0 -2 0 3 4 5 5 5 5 4 3 -1 -4 -3 0 -2 -0 -1 -1 -1 -2 -1 -1 -2 -0 -0 0 -0 -1 -1 -3 -3 -3 -5 -3 -2 -1 -1 -0 -5 -6 -8 -9 -9 -11 -9

GFSGBSN_850_dewp_135.txt.gz
Dewpoint
3 -1 -1 2 1 2 3 3 4 4 4 3 2 0 1 4 4 4 6 4 -1 1 4 3 1 1 -1 -5 -3 -4 -6 -6 -7 -5 -5 -6 -6 -6 -6 -7 -7 -7 -7 -7 -7 -7 -7
3 3 4 3 2 -4 -2 3 3 2 2 2 1 -2 -0 3 5 4 5 4 -1 1 3 -0 1 -1 -5 -2 -3 -5 -10 -7 -9 -9 -7 -6 -7 -8 -8 -8 -7 -7 -8 -9 -10 -8 -9
3 4 4 3 3 3 3 -2 1 3 2 2 -2 -2 -1 4 5 5 5 3 -1 -1 -2 2 0 -3 -5 -3 -3 -2 -3 -9 -12 -13 -15 -10 -8 -8 -7 -6 -7 -9 -9 -8 -8 -8 -7
3 4 4 4 4 3 3 2 1 -0 1 0 -5 -3 0 4 6 5 5 5 -1 1 0 -1 -2 -2 -3 -3 -2 -3 -2 -3 -5 -11 -16 -13 -13 -12 -6 -8 -7 -6 -7 -4 -7 -6 -4
2 3 4 4 4 3 2 3 3 -1 -3 -2 -4 1 3 5 7 5 5 3 -0 -1 -0 -1 -2 -5 -2 -4 -5 -3 -3 -3 -3 -3 -4 -5 -4 -2 -2 -1 1 -2 -2 -4 -5 -5 -4
-1 1 2 3 4 4 3 2 2 2 2 -3 0 6 6 6 5 0 -2 -2 -3 -3 -3 -3 -3 -3 -3 -4 -2 -2 -3 -2 -2 -1 -2 0 1 1 -2 -1 -1 -2 -3 -3 -3 -4 -3
-1 -2 -0 2 3 3 3 3 3 2 2 0 4 5 4 3 -2 -3 -3 -3 -4 -2 -3 -4 -4 -4 -3 -1 -0 -2 -1 -1 -1 -3 -1 -0 -1 -1 -1 -2 -3 -0 1 2 1 -0 1
-2 -1 -2 -1 2 2 2 3 2 3 3 3 4 3 1 -1 -2 -1 -2 -2 -0 -0 0 0 -0 -1 0 -0 -0 -2 -1 -1 1 1 -1 -0 -0 -1 -1 -1 0 0 2 3 1 1 1
-0 -1 -2 -1 -1 2 2 2 4 3 4 3 3 1 -1 -2 -3 -2 -3 -1 -0 0 -0 -0 -0 -0 0 0 0 1 0 0 1 2 2 1 -0 -2 -1 1 3 2 2 2 3 2 1
-1 -1 -2 -2 -1 -2 -1 0 2 2 3 3 2 1 -1 -4 -2 -3 -2 -2 -1 0 -0 -0 -0 -1 1 1 1 1 1 2 1 2 2 1 -1 -0 1 3 1 3 1 2 3 4 3
-1 -1 -2 -3 -2 -0 -0 -0 1 1 1 -2 -2 -1 -4 -5 -6 -5 -4 -5 -6 -0 -3 -2 -1 -0 1 1 1 2 2 2 2 2 1 2 1 2 4 2 1 2 2 3 3 4 4
-3 -1 -2 -3 -3 -3 -2 -1 -1 -1 0 1 -0 -3 -6 -8 -8 -6 -4 -5 -0 -1 -3 -0 -1 0 1 1 2 2 3 3 2 3 1 2 1 1 2 1 1 1 3 3 3 5 3
-7 -2 -2 -2 -2 -4 -4 -3 -3 -3 -3 -2 -2 -3 -4 -5 -6 -7 -2 1 -0 -1 -3 1 1 -0 0 -0 2 1 3 4 3 1 2 3 3 1 1 3 2 3 0 2 2 3 3
-10 -8 -2 -2 -3 -2 -3 -5 -5 -4 -4 -5 -5 -4 -5 -5 -6 -6 -1 -1 -1 0 1 -2 -0 1 0 -1 1 -0 2 4 2 2 2 2 1 2 1 3 3 3 2 4 4 4 3
-4 -6 -8 -5 -2 -2 -2 -3 -5 -6 -7 -6 -6 -6 -5 -5 -5 -3 2 1 1 1 -1 0 0 1 1 0 -0 -0 -0 1 0 1 2 3 3 1 1 1 2 3 4 2 4 3 5
-4 -5 -4 -4 -6 -5 -4 -3 -3 -6 -6 -7 -8 -5 -4 -5 -2 1 0 1 0 -1 -1 -1 0 -2 -0 -1 -0 -2 -1 -2 1 -0 0 2 3 1 1 1 1 3 2 3 3 4 5
-4 -2 -7 -5 -2 -2 -4 -3 -2 -4 -7 -7 -7 1 -6 -5 -1 2 1 1 -0 -1 -1 0 -1 -1 -2 -2 -2 -2 -2 -2 -1 0 -0 1 2 0 1 3 4 4 4 4 2 3 4
-4 -4 -1 -5 -7 -4 -3 -3 -1 -3 -8 -8 -2 2 -5 -4 2 1 1 -0 -1 -1 -1 0 -0 -1 -1 -2 -1 -2 -2 -3 -1 -1 1 1 2 1 2 -1 0 2 2 1 1 1 2
5 -3 -4 -1 -4 -8 -5 -3 -1 -1 -5 -7 -4 -3 -2 -6 1 0 -1 -0 -0 0 0 -0 -0 -1 -2 -1 -1 -2 -3 -2 -2 -0 1 -0 0 1 -3 -1 -1 -1 -1 -1 -1 0 1
5 5 -3 -4 -0 -4 -8 -5 -3 -2 -2 -5 -2 -1 -1 -2 -2 -1 -1 -1 -0 -1 -0 -1 -1 -2 -2 -2 -2 -2 -3 -1 -2 -0 0 -0 1 -1 -2 -2 1 1 -1 -1 -1 1 0
4 5 3 -5 -4 0 -3 -8 -6 -5 -2 -2 -3 -0 -5 -1 -1 -2 -3 -3 -1 0 -1 -1 -1 -1 -1 -1 -4 -2 -3 -3 -0 -0 -0 0 2 0 1 1 0 1 1 0 1 -0 1
3 4 5 2 -6 -4 1 -2 -8 -6 -4 -2 -0 -2 -2 -2 -3 -3 -3 -5 -3 -3 -1 -1 0 -2 -2 -1 -4 -3 -3 -5 -6 0 -0 0 1 0 0 -1 -1 -0 -1 -2 -2 -1 -0
4 4 4 5 3 -4 -4 2 -3 -8 -5 -1 -1 -0 -2 -2 -3 -4 -3 -4 -3 -4 -4 -4 -2 -2 -2 -2 -3 -2 -3 -4 -5 -1 -0 -0 1 0 1 -1 -1 -1 -2 -3 -2 -2 -2
4 4 4 4 4 5 -0 -2 3 -3 -7 -3 -2 -3 -0 -1 -3 -4 -5 -5 -4 -4 -3 -3 -3 -3 -3 -2 -2 -5 -6 -3 -2 -3 -3 -2 -1 -0 1 -0 -4 -7 -7 -7 -4 -4 -4
3 3 3 3 4 4 6 3 1 3 -5 -6 -2 -2 1 -0 -1 -2 -3 -5 -5 -5 -4 -3 -3 -2 -1 -1 -2 -2 -4 -3 -2 -1 -2 -3 -1 0 1 1 -2 -6 -6 -7 -8 -9 -6
2 1 1 1 3 4 4 5 6 4 3 -4 -7 -1 -1 -0 -1 -2 -4 -4 -4 -4 -4 -3 -2 -1 -1 -2 -1 -1 -3 -4 -3 -0 -3 -2 -2 -1 1 2 0 -11 -9 -7 -8 -11 -12
3 2 1 1 0 2 4 5 5 5 4 3 -3 -5 -0 0 -2 -1 -2 -4 -3 -3 -3 -2 -1 -1 -1 0 1 0 -2 -6 -5 -1 -0 1 0 2 1 2 1 -3 -8 -7 -11 -15 -9
4 3 2 1 0 -2 -1 4 4 4 5 4 3 -1 -3 0 -2 -3 -3 -1 -2 -2 -2 -2 -2 0 1 1 0 -1 -2 -4 -3 -3 0 1 1 1 1 2 2 -4 -6 -10 -11 -12 -10
4 3 2 1 0 -2 -1 3 4 5 5 4 4 3 -2 -1 -1 -1 -2 -3 -2 -1 -2 -1 -3 0 0 -0 -1 -1 -1 -2 -3 -2 -4 -2 -2 0 -0 -0 -4 -7 -7 -9 -9 -10 -11

GFSGBSN_850_dewp_138.txt.gz
Dewpoint
4 3 3 5 0 1 2 2 3 3 3 2 3 6 4 4 4 7 7 1 3 3 2 1 0 1 -1 -6 -4 -8 -7 -9 -9 -7 -7 -6 -6 -6 -6 -7 -7 -8 -7 -7 -7 -7 -8
5 5 3 3 4 -1 2 3 4 3 -2 -2 2 5 5 4 5 4 1 -0 4 3 0 -1 -1 -2 -7 -4 -3 -4 -10 -10 -11 -8 -6 -6 -7 -8 -8 -8 -7 -7 -8 -10 -11 -8 -9
3 4 3 4 3 1 -3 3 2 1 -4 -2 2 5 5 4 5 1 1 4 4 -0 0 -0 -3 -5 -7 -3 -2 -4 -8 -14 -16 -16 -9 -8 -8 -9 -8 -6 -9 -9 -9 -8 -8 -8 -8
2 3 4 3 3 2 3 -1 -4 -4 -4 -2 0 6 5 5 2 -1 1 3 -1 0 -0 -2 -3 -6 -3 -3 -4 -5 -6 -7 -10 -17 -15 -13 -11 -9 -8 -7 -7 -6 -6 -4 -7 -7 -5
1 2 3 3 3 1 2 0 -4 -2 2 5 3 6 6 5 5 -2 0 -0 -1 -1 -2 -4 -6 -8 -5 -5 -4 -4 -4 -4 -3 -4 -7 -6 -3 -2 -3 -1 -1 -3 -2 -5 -6 -5 -4
-1 1 2 3 3 4 3 3 -4 2 6 6 6 6 6 6 3 -0 -2 -3 -3 -4 -3 -4 -4 -8 -3 -2 -2 -1 -1 -2 -2 -2 -3 -0 -0 -2 -2 -2 -9 -4 -4 -3 -2 -2 -1
-0 -2 1 1 2 2 2 2 1 5 6 5 5 2 -0 -1 -2 -3 -4 -4 -5 -3 -3 -4 -3 -3 -2 -1 -1 -2 -1 -1 -1 -3 -2 -1 -1 -2 -1 -2 -4 -1 0 2 1 -0 1
-1 -2 -2 0 2 2 2 2 0 4 2 2 1 -2 -2 -2 -1 -2 -3 -4 -2 -1 0 -1 -1 0 0 -0 -1 -2 -1 -1 0 1 -0 -1 -0 -2 -1 -1 0 0 1 2 1 0 1
-2 -1 -2 -2 1 3 3 2 2 4 2 0 -1 -2 -2 -2 -3 -4 -3 -1 -0 -0 -0 -0 -0 -0 -0 -0 1 0 -0 0 1 2 0 -0 -0 -2 -1 1 3 2 2 2 2 2 1
-3 -3 -2 -2 -0 1 3 3 1 2 2 0 -2 -3 -3 -3 -4 -4 -3 -3 -2 0 -2 -1 -1 -0 1 1 0 2 1 2 1 1 2 1 -1 -0 1 3 1 3 1 2 3 3 3
-2 -3 -3 -3 -2 -1 0 1 1 1 0 1 0 -4 -7 -7 -6 -6 -5 -6 -6 -1 -5 -6 -1 -0 0 1 1 2 2 2 2 2 -0 0 1 1 3 2 1 2 2 3 3 3 3
-2 -3 -3 -4 -4 -3 -3 -2 -1 -1 -2 -2 -4 -7 -6 -7 -7 -6 -4 -5 1 -3 -5 -1 -1 -0 0 1 1 2 3 2 2 3 1 2 1 1 1 1 1 1 3 3 3 4 1
-6 -2 -3 -3 -3 -5 -5 -4 -4 -2 -4 -5 -5 -7 -7 -6 -6 -6 -2 1 -2 -3 -4 -2 1 -0 0 -0 1 2 3 2 2 -1 -0 2 3 1 1 3 2 2 -2 0 0 1 3
-6 -8 -5 -2 -2 -2 -3 -7 -6 -6 -7 -7 -7 -7 -7 -6 -6 -5 -1 -2 -4 0 0 -3 -0 0 1 -1 0 -0 2 3 2 2 1 2 -2 2 1 2 2 3 1 1 3 4 3
-4 -5 -4 -5 -5 -4 -4 -3 -5 -7 -8 -7 -7 -7 -6 -4 -3 -0 2 -0 -2 -1 -1 1 0 1 1 -0 -1 -1 -0 1 0 1 -1 3 2 1 1 1 1 3 2 2 3 2 3
-2 -3 -6 -6 -3 -3 -3 -2 -5 -7 -7 -7 -8 -5 -5 -4 -0 1 -1 1 1 -1 -1 -1 0 -2 -0 -1 -1 -2 -1 -1 1 -0 -0 2 2 -0 1 1 1 2 2 2 0 3 2
-2 -2 -2 -6 -7 -5 -4 -2 -2 -7 -7 -7 -7 -0 -6 -6 -2 -0 0 -0 -0 -1 -1 0 0 -1 -2 -2 -2 -1 -2 -2 -0 0 -0 1 1 -1 2 3 3 3 3 3 1 2 4
4 -2 -2 -1 -5 -7 -5 -6 -2 -3 -10 -8 -4 -0 -6 -5 0 0 -0 -1 -1 -1 -1 0 -0 -1 -1 -2 -2 -2 -2 -3 -1 -0 0 0 1 2 1 -1 0 2 2 2 1 -2 2
5 4 -2 -3 -1 -3 -7 -5 -7 -5 -6 -7 -5 -3 -2 -5 0 -1 -1 -1 -0 0 0 -0 -0 -1 -2 -1 -2 -2 -3 -2 -1 -1 1 -0 -0 0 -7 -3 -2 -0 -1 -1 -1 -0 1
3 5 2 -2 -3 -0 -2 -7 -6 -7 -4 -6 -3 -3 -2 -3 -1 -2 -2 -1 -1 -0 -0 -1 -1 -2 -2 -2 -2 -2 -3 -2 -2 -1 -0 -1 -0 -3 -6 -9 -0 1 -0 -1 -1 1 0
3 3 4 4 -2 -4 0 0 -6 -8 -5 -4 -4 -2 -5 -4 -2 -3 -3 -2 -1 -1 -1 -1 -1 -1 -1 -1 -4 -1 -3 -4 -1 -0 0 -1 1 -0 -0 -1 -0 -0 0 -0 -0 -1 -0
3 3 3 3 4 1 -3 0 1 -6 -6 -3 -4 -3 -3 -2 -3 -3 -4 -6 -2 -3 -1 -1 -0 -2 -1 -1 -4 -5 -3 -4 -5 0 -0 0 -0 0 -0 -1 -1 0 -1 -1 -1 -1 -0
3 3 3 2 3 4 4 -1 2 1 -6 -4 -2 -1 -1 -4 -4 -4 -5 -5 -4 -4 -5 -4 -2 -2 -2 -2 -3 -3 -3 -3 -5 -1 -0 -0 1 -0 1 -1 -1 -2 -4 -3 -2 -2 -2
3 3 2 2 2 2 3 5 2 3 -1 -6 -3 -2 -0 -1 -3 -4 -4 -4 -5 -4 -4 -3 -3 -3 -4 -3 -2 -3 -3 -2 -2 -3 -3 -1 -1 -0 1 -1 -4 -8 -6 -5 -3 -4 -3
3 3 2 1 1 0 0 3 5 4 4 -1 -5 -3 0 -0 -1 -2 -2 -2 -4 -4 -4 -4 -5 -3 -2 -1 -2 -3 -6 -4 -2 -2 -2 -3 -2 -0 0 1 -2 -5 -7 -6 -6 -9 -8
4 3 3 2 2 1 -1 -1 2 5 5 4 -1 -4 -1 -1 -2 -3 -3 -4 -4 -4 -4 -4 -2 -2 -1 -2 -1 -2 -6 -7 -5 -0 -2 -3 -3 -1 0 2 -0 -12 -10 -7 -11 -10 -15
5 4 4 3 3 2 1 -1 -0 4 4 4 4 -1 -1 -0 -3 -2 -2 -3 -4 -3 -3 -3 -1 -1 -1 -1 0 0 -1 -5 -5 -2 1 0 -0 1 1 1 0 -3 -5 -7 -8 -10 -13
5 5 4 4 3 2 1 -0 -2 2 4 5 4 4 0 -1 -2 -1 -2 -1 -2 -2 -2 -2 -2 -0 0 1 0 -0 -1 -4 -5 -5 -0 1 1 1 0 1 1 -4 -6 -6 -8 -13 -12
4 3 4 4 2 1 1 -1 -3 -1 4 4 4 4 4 -0 1 2 2 1 -0 -2 -1 -3 -3 -0 -1 -1 -1 -1 -1 -2 -3 -2 -3 -2 -2 -0 -0 -1 -5 -5 -6 -8 -9 -9 -8